<?xml version="1.0" encoding="UTF-8" standalone="no" ?>
<gpx xmlns="http://www.topografix.com/GPX/1/1" xmlns:xsi="http://www.w3.org/2001/XMLSchema-instance" xsi:schemaLocation="http://www.topografix.com/GPX/1/1 http://www.topografix.com/GPX/1/1/gpx.xsd" version="1.1" creator="VisuGPX - https://www.visugpx.com">
  <metadata>
    <name>65 - PEDESTRE - Col de Barèges - Aller retour du parking Tournaboup Barèges (65) au col</name>
    <desc><![CDATA[Erreur de destination col de Barèges au lieu du col de Madaméte]]></desc>
  </metadata>
  <wpt lat="42.87535" lon="0.15196">
    <ele>2157.0673828125</ele>
    <name><![CDATA[Cabane DAygues]]></name>
    <desc><![CDATA[Cabane DAygues Cluses]]></desc>
    <cmt><![CDATA[Cabane DAygues Cluses]]></cmt>
  </wpt>
  <wpt lat="42.87741" lon="0.11263">
    <ele>2040.0280761719</ele>
    <name><![CDATA[Cabane Dets Co]]></name>
    <desc><![CDATA[Cabane Dets Coubous]]></desc>
    <cmt><![CDATA[Cabane Dets Coubous]]></cmt>
  </wpt>
  <wpt lat="42.85767" lon="0.14068">
    <ele>2517.0786132812</ele>
    <name><![CDATA[Col de Madamét]]></name>
    <desc><![CDATA[Col de Madaméte]]></desc>
    <cmt><![CDATA[Col de Madaméte]]></cmt>
  </wpt>
  <wpt lat="42.86479" lon="0.13437">
    <ele>2461.0822753906</ele>
    <name><![CDATA[Col de Tracens]]></name>
    <desc><![CDATA[Col de Tracens]]></desc>
    <cmt><![CDATA[Col de Tracens]]></cmt>
  </wpt>
  <wpt lat="42.86985" lon="0.11579">
    <ele>2111.8859863281</ele>
    <name><![CDATA[Lac Blanc]]></name>
    <desc><![CDATA[Lac Blanc]]></desc>
    <cmt><![CDATA[Lac Blanc]]></cmt>
  </wpt>
  <wpt lat="42.87344" lon="0.11913">
    <ele>2103.9553222656</ele>
    <name><![CDATA[Lac de la Jonq]]></name>
    <desc><![CDATA[Lac de la Jonquere]]></desc>
    <cmt><![CDATA[Lac de la Jonquere]]></cmt>
  </wpt>
  <wpt lat="42.8676" lon="0.14503">
    <ele>2305.109375</ele>
    <name><![CDATA[Lac de Madamet]]></name>
    <desc><![CDATA[Lac de Madamette]]></desc>
    <cmt><![CDATA[Lac de Madamette]]></cmt>
  </wpt>
  <wpt lat="42.86855" lon="0.12201">
    <ele>2185.9067382812</ele>
    <name><![CDATA[Lac de Tracens]]></name>
    <desc><![CDATA[Lac de Tracens]]></desc>
    <cmt><![CDATA[Lac de Tracens]]></cmt>
  </wpt>
  <wpt lat="42.87629" lon="0.11525">
    <ele>2038.10546875</ele>
    <name><![CDATA[Lac Dets Coubo]]></name>
    <desc><![CDATA[Lac Dets Coubous]]></desc>
    <cmt><![CDATA[Lac Dets Coubous]]></cmt>
  </wpt>
  <wpt lat="42.86404" lon="0.12087">
    <ele>2232.0498046875</ele>
    <name><![CDATA[Lac Nére]]></name>
    <desc><![CDATA[Lac Nére]]></desc>
    <cmt><![CDATA[Lac Nére]]></cmt>
  </wpt>
  <wpt lat="42.85779" lon="0.13651">
    <ele>2656.94921875</ele>
    <name><![CDATA[Pic de Madamét]]></name>
    <desc><![CDATA[Pic de Madaméte-2657m]]></desc>
    <cmt><![CDATA[Pic de Madaméte-2657m]]></cmt>
  </wpt>
  <trk>
    <name><![CDATA[ACTIVE LOG 001]]></name>
    <trkseg>
      <trkpt lat="42.90408" lon="0.1035">
        <ele>1466.1477050781</ele>
        <time>2015-07-23T07:58:21Z</time>
      </trkpt>
      <trkpt lat="42.90408" lon="0.10351">
        <ele>1466.1477050781</ele>
        <time>2015-07-23T07:58:22Z</time>
      </trkpt>
      <trkpt lat="42.90407" lon="0.1035">
        <ele>1467.1091308594</ele>
        <time>2015-07-23T07:58:51Z</time>
      </trkpt>
      <trkpt lat="42.90404" lon="0.10349">
        <ele>1466.1477050781</ele>
        <time>2015-07-23T07:58:54Z</time>
      </trkpt>
      <trkpt lat="42.90401" lon="0.10345">
        <ele>1467.1091308594</ele>
        <time>2015-07-23T07:59:16Z</time>
      </trkpt>
      <trkpt lat="42.90384" lon="0.10334">
        <ele>1466.1477050781</ele>
        <time>2015-07-23T07:59:33Z</time>
      </trkpt>
      <trkpt lat="42.90366" lon="0.10327">
        <ele>1465.6672363281</ele>
        <time>2015-07-23T07:59:51Z</time>
      </trkpt>
      <trkpt lat="42.90364" lon="0.10326">
        <ele>1464.7058105469</ele>
        <time>2015-07-23T07:59:53Z</time>
      </trkpt>
      <trkpt lat="42.90345" lon="0.10325">
        <ele>1466.6284179688</ele>
        <time>2015-07-23T08:00:13Z</time>
      </trkpt>
      <trkpt lat="42.90325" lon="0.10333">
        <ele>1465.1865234375</ele>
        <time>2015-07-23T08:00:32Z</time>
      </trkpt>
      <trkpt lat="42.90315" lon="0.1034">
        <ele>1466.1477050781</ele>
        <time>2015-07-23T08:00:47Z</time>
      </trkpt>
      <trkpt lat="42.90301" lon="0.10343">
        <ele>1468.5512695312</ele>
        <time>2015-07-23T08:00:59Z</time>
      </trkpt>
      <trkpt lat="42.90276" lon="0.10351">
        <ele>1470.9545898438</ele>
        <time>2015-07-23T08:01:21Z</time>
      </trkpt>
      <trkpt lat="42.90252" lon="0.10354">
        <ele>1470.4738769531</ele>
        <time>2015-07-23T08:01:42Z</time>
      </trkpt>
      <trkpt lat="42.90233" lon="0.10355">
        <ele>1470.4738769531</ele>
        <time>2015-07-23T08:01:58Z</time>
      </trkpt>
      <trkpt lat="42.90211" lon="0.10361">
        <ele>1471.9157714844</ele>
        <time>2015-07-23T08:02:17Z</time>
      </trkpt>
      <trkpt lat="42.90193" lon="0.10367">
        <ele>1475.7609863281</ele>
        <time>2015-07-23T08:02:34Z</time>
      </trkpt>
      <trkpt lat="42.90177" lon="0.10372">
        <ele>1477.68359375</ele>
        <time>2015-07-23T08:02:48Z</time>
      </trkpt>
      <trkpt lat="42.90171" lon="0.10374">
        <ele>1478.6450195312</ele>
        <time>2015-07-23T08:02:54Z</time>
      </trkpt>
      <trkpt lat="42.90167" lon="0.10376">
        <ele>1479.1254882812</ele>
        <time>2015-07-23T08:02:58Z</time>
      </trkpt>
      <trkpt lat="42.90149" lon="0.10386">
        <ele>1481.0483398438</ele>
        <time>2015-07-23T08:03:15Z</time>
      </trkpt>
      <trkpt lat="42.90134" lon="0.10392">
        <ele>1482.0095214844</ele>
        <time>2015-07-23T08:03:30Z</time>
      </trkpt>
      <trkpt lat="42.90116" lon="0.10395">
        <ele>1483.4514160156</ele>
        <time>2015-07-23T08:03:49Z</time>
      </trkpt>
      <trkpt lat="42.90114" lon="0.10397">
        <ele>1482.970703125</ele>
        <time>2015-07-23T08:04:04Z</time>
      </trkpt>
      <trkpt lat="42.90114" lon="0.10399">
        <ele>1483.4514160156</ele>
        <time>2015-07-23T08:04:44Z</time>
      </trkpt>
      <trkpt lat="42.90111" lon="0.104">
        <ele>1482.0095214844</ele>
        <time>2015-07-23T08:05:12Z</time>
      </trkpt>
      <trkpt lat="42.90098" lon="0.10402">
        <ele>1483.4514160156</ele>
        <time>2015-07-23T08:05:27Z</time>
      </trkpt>
      <trkpt lat="42.90079" lon="0.10405">
        <ele>1483.9321289062</ele>
        <time>2015-07-23T08:05:44Z</time>
      </trkpt>
      <trkpt lat="42.90061" lon="0.1041">
        <ele>1487.296875</ele>
        <time>2015-07-23T08:06:01Z</time>
      </trkpt>
      <trkpt lat="42.90041" lon="0.10415">
        <ele>1489.7001953125</ele>
        <time>2015-07-23T08:06:20Z</time>
      </trkpt>
      <trkpt lat="42.90023" lon="0.10421">
        <ele>1492.103515625</ele>
        <time>2015-07-23T08:06:36Z</time>
      </trkpt>
      <trkpt lat="42.9" lon="0.10425">
        <ele>1493.0646972656</ele>
        <time>2015-07-23T08:06:55Z</time>
      </trkpt>
      <trkpt lat="42.89973" lon="0.10429">
        <ele>1494.5065917969</ele>
        <time>2015-07-23T08:07:17Z</time>
      </trkpt>
      <trkpt lat="42.89953" lon="0.10432">
        <ele>1494.9873046875</ele>
        <time>2015-07-23T08:07:33Z</time>
      </trkpt>
      <trkpt lat="42.89929" lon="0.10439">
        <ele>1495.9487304688</ele>
        <time>2015-07-23T08:07:52Z</time>
      </trkpt>
      <trkpt lat="42.89905" lon="0.10443">
        <ele>1496.9099121094</ele>
        <time>2015-07-23T08:08:11Z</time>
      </trkpt>
      <trkpt lat="42.89884" lon="0.1045">
        <ele>1497.8713378906</ele>
        <time>2015-07-23T08:08:29Z</time>
      </trkpt>
      <trkpt lat="42.8988" lon="0.10451">
        <ele>1499.3132324219</ele>
        <time>2015-07-23T08:08:32Z</time>
      </trkpt>
      <trkpt lat="42.89869" lon="0.10453">
        <ele>1502.6779785156</ele>
        <time>2015-07-23T08:08:42Z</time>
      </trkpt>
      <trkpt lat="42.89856" lon="0.10455">
        <ele>1504.6005859375</ele>
        <time>2015-07-23T08:08:54Z</time>
      </trkpt>
      <trkpt lat="42.8985" lon="0.10457">
        <ele>1506.0424804688</ele>
        <time>2015-07-23T08:09:01Z</time>
      </trkpt>
      <trkpt lat="42.89846" lon="0.10458">
        <ele>1507.9653320312</ele>
        <time>2015-07-23T08:09:05Z</time>
      </trkpt>
      <trkpt lat="42.89826" lon="0.10471">
        <ele>1508.9265136719</ele>
        <time>2015-07-23T08:09:25Z</time>
      </trkpt>
      <trkpt lat="42.89809" lon="0.10482">
        <ele>1510.3684082031</ele>
        <time>2015-07-23T08:09:40Z</time>
      </trkpt>
      <trkpt lat="42.89793" lon="0.10493">
        <ele>1511.3298339844</ele>
        <time>2015-07-23T08:09:56Z</time>
      </trkpt>
      <trkpt lat="42.89791" lon="0.10494">
        <ele>1511.810546875</ele>
        <time>2015-07-23T08:09:58Z</time>
      </trkpt>
      <trkpt lat="42.89783" lon="0.10497">
        <ele>1511.810546875</ele>
        <time>2015-07-23T08:10:04Z</time>
      </trkpt>
      <trkpt lat="42.89764" lon="0.105">
        <ele>1514.6943359375</ele>
        <time>2015-07-23T08:10:21Z</time>
      </trkpt>
      <trkpt lat="42.89759" lon="0.10499">
        <ele>1515.6557617188</ele>
        <time>2015-07-23T08:10:26Z</time>
      </trkpt>
      <trkpt lat="42.89741" lon="0.10492">
        <ele>1518.0590820312</ele>
        <time>2015-07-23T08:10:44Z</time>
      </trkpt>
      <trkpt lat="42.89726" lon="0.10495">
        <ele>1519.0205078125</ele>
        <time>2015-07-23T08:11:00Z</time>
      </trkpt>
      <trkpt lat="42.89722" lon="0.10497">
        <ele>1520.4624023438</ele>
        <time>2015-07-23T08:11:04Z</time>
      </trkpt>
      <trkpt lat="42.89701" lon="0.10497">
        <ele>1522.8657226562</ele>
        <time>2015-07-23T08:11:20Z</time>
      </trkpt>
      <trkpt lat="42.89698" lon="0.105">
        <ele>1523.3464355469</ele>
        <time>2015-07-23T08:11:25Z</time>
      </trkpt>
      <trkpt lat="42.89692" lon="0.10505">
        <ele>1523.8269042969</ele>
        <time>2015-07-23T08:11:33Z</time>
      </trkpt>
      <trkpt lat="42.89689" lon="0.10505">
        <ele>1526.2302246094</ele>
        <time>2015-07-23T08:11:36Z</time>
      </trkpt>
      <trkpt lat="42.89683" lon="0.10503">
        <ele>1526.7109375</ele>
        <time>2015-07-23T08:11:43Z</time>
      </trkpt>
      <trkpt lat="42.89666" lon="0.10498">
        <ele>1528.1528320312</ele>
        <time>2015-07-23T08:12:00Z</time>
      </trkpt>
      <trkpt lat="42.89664" lon="0.10497">
        <ele>1529.1140136719</ele>
        <time>2015-07-23T08:12:03Z</time>
      </trkpt>
      <trkpt lat="42.89658" lon="0.10494">
        <ele>1531.5173339844</ele>
        <time>2015-07-23T08:12:09Z</time>
      </trkpt>
      <trkpt lat="42.89646" lon="0.1049">
        <ele>1532.9594726562</ele>
        <time>2015-07-23T08:12:20Z</time>
      </trkpt>
      <trkpt lat="42.89623" lon="0.10489">
        <ele>1535.3627929688</ele>
        <time>2015-07-23T08:12:36Z</time>
      </trkpt>
      <trkpt lat="42.89592" lon="0.10476">
        <ele>1535.8435058594</ele>
        <time>2015-07-23T08:12:52Z</time>
      </trkpt>
      <trkpt lat="42.89581" lon="0.1047">
        <ele>1538.2468261719</ele>
        <time>2015-07-23T08:13:07Z</time>
      </trkpt>
      <trkpt lat="42.89571" lon="0.10465">
        <ele>1540.1694335938</ele>
        <time>2015-07-23T08:13:25Z</time>
      </trkpt>
      <trkpt lat="42.89559" lon="0.1046">
        <ele>1540.1694335938</ele>
        <time>2015-07-23T08:13:46Z</time>
      </trkpt>
      <trkpt lat="42.89555" lon="0.10459">
        <ele>1541.611328125</ele>
        <time>2015-07-23T08:13:49Z</time>
      </trkpt>
      <trkpt lat="42.89548" lon="0.10485">
        <ele>1543.5339355469</ele>
        <time>2015-07-23T08:14:05Z</time>
      </trkpt>
      <trkpt lat="42.89546" lon="0.10495">
        <ele>1543.5339355469</ele>
        <time>2015-07-23T08:14:10Z</time>
      </trkpt>
      <trkpt lat="42.89544" lon="0.10502">
        <ele>1544.0146484375</ele>
        <time>2015-07-23T08:14:14Z</time>
      </trkpt>
      <trkpt lat="42.89536" lon="0.1053">
        <ele>1544.0146484375</ele>
        <time>2015-07-23T08:14:30Z</time>
      </trkpt>
      <trkpt lat="42.8953" lon="0.1055">
        <ele>1544.9758300781</ele>
        <time>2015-07-23T08:14:44Z</time>
      </trkpt>
      <trkpt lat="42.89527" lon="0.10569">
        <ele>1546.8984375</ele>
        <time>2015-07-23T08:14:57Z</time>
      </trkpt>
      <trkpt lat="42.89519" lon="0.10596">
        <ele>1549.3020019531</ele>
        <time>2015-07-23T08:15:14Z</time>
      </trkpt>
      <trkpt lat="42.89515" lon="0.1062">
        <ele>1549.7827148438</ele>
        <time>2015-07-23T08:15:29Z</time>
      </trkpt>
      <trkpt lat="42.89512" lon="0.10645">
        <ele>1552.6665039062</ele>
        <time>2015-07-23T08:15:47Z</time>
      </trkpt>
      <trkpt lat="42.89513" lon="0.10653">
        <ele>1552.6665039062</ele>
        <time>2015-07-23T08:15:52Z</time>
      </trkpt>
      <trkpt lat="42.89514" lon="0.10656">
        <ele>1552.6665039062</ele>
        <time>2015-07-23T08:15:55Z</time>
      </trkpt>
      <trkpt lat="42.89526" lon="0.10677">
        <ele>1554.1086425781</ele>
        <time>2015-07-23T08:16:12Z</time>
      </trkpt>
      <trkpt lat="42.89524" lon="0.1068">
        <ele>1554.5891113281</ele>
        <time>2015-07-23T08:16:39Z</time>
      </trkpt>
      <trkpt lat="42.89521" lon="0.10678">
        <ele>1555.0698242188</ele>
        <time>2015-07-23T08:16:42Z</time>
      </trkpt>
      <trkpt lat="42.89511" lon="0.10681">
        <ele>1557.4731445312</ele>
        <time>2015-07-23T08:16:56Z</time>
      </trkpt>
      <trkpt lat="42.895" lon="0.10682">
        <ele>1559.3957519531</ele>
        <time>2015-07-23T08:17:07Z</time>
      </trkpt>
      <trkpt lat="42.89498" lon="0.10682">
        <ele>1559.3957519531</ele>
        <time>2015-07-23T08:17:08Z</time>
      </trkpt>
      <trkpt lat="42.89485" lon="0.10684">
        <ele>1561.318359375</ele>
        <time>2015-07-23T08:17:23Z</time>
      </trkpt>
      <trkpt lat="42.89476" lon="0.10682">
        <ele>1563.2409667969</ele>
        <time>2015-07-23T08:17:33Z</time>
      </trkpt>
      <trkpt lat="42.8947" lon="0.10682">
        <ele>1565.1638183594</ele>
        <time>2015-07-23T08:17:43Z</time>
      </trkpt>
      <trkpt lat="42.89461" lon="0.10683">
        <ele>1568.5283203125</ele>
        <time>2015-07-23T08:17:55Z</time>
      </trkpt>
      <trkpt lat="42.89456" lon="0.10685">
        <ele>1568.5283203125</ele>
        <time>2015-07-23T08:18:09Z</time>
      </trkpt>
      <trkpt lat="42.89449" lon="0.10681">
        <ele>1570.4509277344</ele>
        <time>2015-07-23T08:18:18Z</time>
      </trkpt>
      <trkpt lat="42.89442" lon="0.10682">
        <ele>1571.8928222656</ele>
        <time>2015-07-23T08:18:28Z</time>
      </trkpt>
      <trkpt lat="42.89433" lon="0.10683">
        <ele>1573.3349609375</ele>
        <time>2015-07-23T08:18:39Z</time>
      </trkpt>
      <trkpt lat="42.89428" lon="0.10685">
        <ele>1575.7380371094</ele>
        <time>2015-07-23T08:18:47Z</time>
      </trkpt>
      <trkpt lat="42.89424" lon="0.10683">
        <ele>1575.2573242188</ele>
        <time>2015-07-23T08:18:52Z</time>
      </trkpt>
      <trkpt lat="42.89415" lon="0.10679">
        <ele>1576.21875</ele>
        <time>2015-07-23T08:19:06Z</time>
      </trkpt>
      <trkpt lat="42.89408" lon="0.10679">
        <ele>1578.1413574219</ele>
        <time>2015-07-23T08:19:17Z</time>
      </trkpt>
      <trkpt lat="42.89398" lon="0.10674">
        <ele>1579.5832519531</ele>
        <time>2015-07-23T08:19:32Z</time>
      </trkpt>
      <trkpt lat="42.89395" lon="0.10671">
        <ele>1579.1025390625</ele>
        <time>2015-07-23T08:19:37Z</time>
      </trkpt>
      <trkpt lat="42.89391" lon="0.10673">
        <ele>1580.544921875</ele>
        <time>2015-07-23T08:19:49Z</time>
      </trkpt>
      <trkpt lat="42.89379" lon="0.10672">
        <ele>1583.9094238281</ele>
        <time>2015-07-23T08:20:07Z</time>
      </trkpt>
      <trkpt lat="42.8937" lon="0.10674">
        <ele>1586.7932128906</ele>
        <time>2015-07-23T08:20:22Z</time>
      </trkpt>
      <trkpt lat="42.89359" lon="0.10669">
        <ele>1588.7160644531</ele>
        <time>2015-07-23T08:20:34Z</time>
      </trkpt>
      <trkpt lat="42.89352" lon="0.10668">
        <ele>1590.1579589844</ele>
        <time>2015-07-23T08:20:45Z</time>
      </trkpt>
      <trkpt lat="42.89344" lon="0.10668">
        <ele>1592.5612792969</ele>
        <time>2015-07-23T08:20:58Z</time>
      </trkpt>
      <trkpt lat="42.89337" lon="0.10667">
        <ele>1594.4836425781</ele>
        <time>2015-07-23T08:21:09Z</time>
      </trkpt>
      <trkpt lat="42.89331" lon="0.10671">
        <ele>1594.9643554688</ele>
        <time>2015-07-23T08:21:20Z</time>
      </trkpt>
      <trkpt lat="42.89323" lon="0.10676">
        <ele>1596.4067382812</ele>
        <time>2015-07-23T08:21:31Z</time>
      </trkpt>
      <trkpt lat="42.89322" lon="0.10676">
        <ele>1596.4067382812</ele>
        <time>2015-07-23T08:21:32Z</time>
      </trkpt>
      <trkpt lat="42.89313" lon="0.10675">
        <ele>1597.8486328125</ele>
        <time>2015-07-23T08:21:44Z</time>
      </trkpt>
      <trkpt lat="42.89306" lon="0.10679">
        <ele>1599.7712402344</ele>
        <time>2015-07-23T08:21:54Z</time>
      </trkpt>
      <trkpt lat="42.89297" lon="0.10682">
        <ele>1603.1357421875</ele>
        <time>2015-07-23T08:22:06Z</time>
      </trkpt>
      <trkpt lat="42.89287" lon="0.10684">
        <ele>1604.5776367188</ele>
        <time>2015-07-23T08:22:20Z</time>
      </trkpt>
      <trkpt lat="42.89274" lon="0.10681">
        <ele>1607.4616699219</ele>
        <time>2015-07-23T08:22:35Z</time>
      </trkpt>
      <trkpt lat="42.89262" lon="0.10678">
        <ele>1609.3842773438</ele>
        <time>2015-07-23T08:22:46Z</time>
      </trkpt>
      <trkpt lat="42.89261" lon="0.10686">
        <ele>1612.2683105469</ele>
        <time>2015-07-23T08:22:58Z</time>
      </trkpt>
      <trkpt lat="42.89249" lon="0.1069">
        <ele>1614.6716308594</ele>
        <time>2015-07-23T08:23:15Z</time>
      </trkpt>
      <trkpt lat="42.89242" lon="0.1069">
        <ele>1616.5942382812</ele>
        <time>2015-07-23T08:23:25Z</time>
      </trkpt>
      <trkpt lat="42.89234" lon="0.10698">
        <ele>1618.0361328125</ele>
        <time>2015-07-23T08:23:40Z</time>
      </trkpt>
      <trkpt lat="42.89218" lon="0.10701">
        <ele>1619.4782714844</ele>
        <time>2015-07-23T08:23:59Z</time>
      </trkpt>
      <trkpt lat="42.89209" lon="0.10699">
        <ele>1621.8813476562</ele>
        <time>2015-07-23T08:24:10Z</time>
      </trkpt>
      <trkpt lat="42.89201" lon="0.10698">
        <ele>1623.3234863281</ele>
        <time>2015-07-23T08:24:21Z</time>
      </trkpt>
      <trkpt lat="42.8919" lon="0.10698">
        <ele>1626.2072753906</ele>
        <time>2015-07-23T08:24:39Z</time>
      </trkpt>
      <trkpt lat="42.89175" lon="0.10696">
        <ele>1628.6108398438</ele>
        <time>2015-07-23T08:24:56Z</time>
      </trkpt>
      <trkpt lat="42.8917" lon="0.10697">
        <ele>1629.5720214844</ele>
        <time>2015-07-23T08:25:05Z</time>
      </trkpt>
      <trkpt lat="42.89165" lon="0.10703">
        <ele>1633.8979492188</ele>
        <time>2015-07-23T08:25:19Z</time>
      </trkpt>
      <trkpt lat="42.89165" lon="0.10704">
        <ele>1633.4172363281</ele>
        <time>2015-07-23T08:25:20Z</time>
      </trkpt>
      <trkpt lat="42.89157" lon="0.10703">
        <ele>1634.3786621094</ele>
        <time>2015-07-23T08:25:29Z</time>
      </trkpt>
      <trkpt lat="42.89147" lon="0.10706">
        <ele>1636.7817382812</ele>
        <time>2015-07-23T08:25:42Z</time>
      </trkpt>
      <trkpt lat="42.89137" lon="0.10711">
        <ele>1636.7817382812</ele>
        <time>2015-07-23T08:25:54Z</time>
      </trkpt>
      <trkpt lat="42.89125" lon="0.10717">
        <ele>1638.2238769531</ele>
        <time>2015-07-23T08:26:09Z</time>
      </trkpt>
      <trkpt lat="42.89121" lon="0.10724">
        <ele>1640.146484375</ele>
        <time>2015-07-23T08:26:18Z</time>
      </trkpt>
      <trkpt lat="42.89108" lon="0.10731">
        <ele>1643.9916992188</ele>
        <time>2015-07-23T08:26:35Z</time>
      </trkpt>
      <trkpt lat="42.89091" lon="0.10728">
        <ele>1644.4724121094</ele>
        <time>2015-07-23T08:26:51Z</time>
      </trkpt>
      <trkpt lat="42.8908" lon="0.10725">
        <ele>1646.8757324219</ele>
        <time>2015-07-23T08:27:06Z</time>
      </trkpt>
      <trkpt lat="42.89071" lon="0.10739">
        <ele>1648.3176269531</ele>
        <time>2015-07-23T08:27:20Z</time>
      </trkpt>
      <trkpt lat="42.8906" lon="0.10748">
        <ele>1650.2404785156</ele>
        <time>2015-07-23T08:27:32Z</time>
      </trkpt>
      <trkpt lat="42.89039" lon="0.10751">
        <ele>1651.2016601562</ele>
        <time>2015-07-23T08:27:49Z</time>
      </trkpt>
      <trkpt lat="42.89023" lon="0.10754">
        <ele>1653.6049804688</ele>
        <time>2015-07-23T08:28:03Z</time>
      </trkpt>
      <trkpt lat="42.89017" lon="0.10754">
        <ele>1654.5661621094</ele>
        <time>2015-07-23T08:28:11Z</time>
      </trkpt>
      <trkpt lat="42.89012" lon="0.10754">
        <ele>1655.5275878906</ele>
        <time>2015-07-23T08:28:16Z</time>
      </trkpt>
      <trkpt lat="42.88988" lon="0.10753">
        <ele>1657.4501953125</ele>
        <time>2015-07-23T08:28:34Z</time>
      </trkpt>
      <trkpt lat="42.88976" lon="0.1075">
        <ele>1658.4113769531</ele>
        <time>2015-07-23T08:28:44Z</time>
      </trkpt>
      <trkpt lat="42.88962" lon="0.1075">
        <ele>1660.3342285156</ele>
        <time>2015-07-23T08:28:59Z</time>
      </trkpt>
      <trkpt lat="42.88944" lon="0.10752">
        <ele>1662.7375488281</ele>
        <time>2015-07-23T08:29:15Z</time>
      </trkpt>
      <trkpt lat="42.8893" lon="0.10763">
        <ele>1663.2182617188</ele>
        <time>2015-07-23T08:29:30Z</time>
      </trkpt>
      <trkpt lat="42.88922" lon="0.10773">
        <ele>1664.66015625</ele>
        <time>2015-07-23T08:29:41Z</time>
      </trkpt>
      <trkpt lat="42.88918" lon="0.10779">
        <ele>1665.1408691406</ele>
        <time>2015-07-23T08:29:48Z</time>
      </trkpt>
      <trkpt lat="42.88905" lon="0.10791">
        <ele>1666.1020507812</ele>
        <time>2015-07-23T08:30:01Z</time>
      </trkpt>
      <trkpt lat="42.8888" lon="0.10798">
        <ele>1667.5439453125</ele>
        <time>2015-07-23T08:30:17Z</time>
      </trkpt>
      <trkpt lat="42.88864" lon="0.10803">
        <ele>1669.466796875</ele>
        <time>2015-07-23T08:30:31Z</time>
      </trkpt>
      <trkpt lat="42.88856" lon="0.10808">
        <ele>1670.4279785156</ele>
        <time>2015-07-23T08:30:45Z</time>
      </trkpt>
      <trkpt lat="42.88838" lon="0.10814">
        <ele>1672.8312988281</ele>
        <time>2015-07-23T08:31:02Z</time>
      </trkpt>
      <trkpt lat="42.88831" lon="0.10821">
        <ele>1673.3120117188</ele>
        <time>2015-07-23T08:31:11Z</time>
      </trkpt>
      <trkpt lat="42.88824" lon="0.10824">
        <ele>1674.2731933594</ele>
        <time>2015-07-23T08:31:19Z</time>
      </trkpt>
      <trkpt lat="42.88823" lon="0.10825">
        <ele>1674.75390625</ele>
        <time>2015-07-23T08:31:20Z</time>
      </trkpt>
      <trkpt lat="42.88808" lon="0.1083">
        <ele>1676.6767578125</ele>
        <time>2015-07-23T08:31:33Z</time>
      </trkpt>
      <trkpt lat="42.88794" lon="0.10838">
        <ele>1679.0798339844</ele>
        <time>2015-07-23T08:31:49Z</time>
      </trkpt>
      <trkpt lat="42.88784" lon="0.10842">
        <ele>1680.0412597656</ele>
        <time>2015-07-23T08:31:58Z</time>
      </trkpt>
      <trkpt lat="42.88766" lon="0.10839">
        <ele>1681.9638671875</ele>
        <time>2015-07-23T08:32:10Z</time>
      </trkpt>
      <trkpt lat="42.88753" lon="0.10839">
        <ele>1683.8864746094</ele>
        <time>2015-07-23T08:32:26Z</time>
      </trkpt>
      <trkpt lat="42.88742" lon="0.10836">
        <ele>1685.8090820312</ele>
        <time>2015-07-23T08:32:39Z</time>
      </trkpt>
      <trkpt lat="42.88732" lon="0.10835">
        <ele>1687.2509765625</ele>
        <time>2015-07-23T08:32:52Z</time>
      </trkpt>
      <trkpt lat="42.8872" lon="0.10836">
        <ele>1688.6931152344</ele>
        <time>2015-07-23T08:33:06Z</time>
      </trkpt>
      <trkpt lat="42.88706" lon="0.10843">
        <ele>1690.1350097656</ele>
        <time>2015-07-23T08:33:23Z</time>
      </trkpt>
      <trkpt lat="42.88698" lon="0.10846">
        <ele>1692.0578613281</ele>
        <time>2015-07-23T08:33:35Z</time>
      </trkpt>
      <trkpt lat="42.88684" lon="0.10849">
        <ele>1693.4997558594</ele>
        <time>2015-07-23T08:33:53Z</time>
      </trkpt>
      <trkpt lat="42.88663" lon="0.10844">
        <ele>1696.8642578125</ele>
        <time>2015-07-23T08:34:12Z</time>
      </trkpt>
      <trkpt lat="42.88649" lon="0.10841">
        <ele>1697.8256835938</ele>
        <time>2015-07-23T08:34:26Z</time>
      </trkpt>
      <trkpt lat="42.88637" lon="0.10835">
        <ele>1698.7868652344</ele>
        <time>2015-07-23T08:34:35Z</time>
      </trkpt>
      <trkpt lat="42.88629" lon="0.10827">
        <ele>1700.7094726562</ele>
        <time>2015-07-23T08:34:44Z</time>
      </trkpt>
      <trkpt lat="42.88623" lon="0.10831">
        <ele>1701.6708984375</ele>
        <time>2015-07-23T08:34:56Z</time>
      </trkpt>
      <trkpt lat="42.88625" lon="0.10844">
        <ele>1703.5935058594</ele>
        <time>2015-07-23T08:35:09Z</time>
      </trkpt>
      <trkpt lat="42.88626" lon="0.10847">
        <ele>1704.07421875</ele>
        <time>2015-07-23T08:35:12Z</time>
      </trkpt>
      <trkpt lat="42.88628" lon="0.10864">
        <ele>1705.9965820312</ele>
        <time>2015-07-23T08:35:26Z</time>
      </trkpt>
      <trkpt lat="42.88635" lon="0.10883">
        <ele>1707.9194335938</ele>
        <time>2015-07-23T08:35:41Z</time>
      </trkpt>
      <trkpt lat="42.88637" lon="0.10897">
        <ele>1710.3227539062</ele>
        <time>2015-07-23T08:35:53Z</time>
      </trkpt>
      <trkpt lat="42.88633" lon="0.10902">
        <ele>1710.8034667969</ele>
        <time>2015-07-23T08:36:01Z</time>
      </trkpt>
      <trkpt lat="42.8862" lon="0.10901">
        <ele>1711.7648925781</ele>
        <time>2015-07-23T08:36:14Z</time>
      </trkpt>
      <trkpt lat="42.88608" lon="0.10913">
        <ele>1714.16796875</ele>
        <time>2015-07-23T08:36:32Z</time>
      </trkpt>
      <trkpt lat="42.88606" lon="0.10913">
        <ele>1715.6101074219</ele>
        <time>2015-07-23T08:36:35Z</time>
      </trkpt>
      <trkpt lat="42.88596" lon="0.10915">
        <ele>1716.0905761719</ele>
        <time>2015-07-23T08:36:43Z</time>
      </trkpt>
      <trkpt lat="42.88578" lon="0.10918">
        <ele>1719.4553222656</ele>
        <time>2015-07-23T08:37:03Z</time>
      </trkpt>
      <trkpt lat="42.88571" lon="0.10928">
        <ele>1720.4165039062</ele>
        <time>2015-07-23T08:37:13Z</time>
      </trkpt>
      <trkpt lat="42.88569" lon="0.10933">
        <ele>1720.4165039062</ele>
        <time>2015-07-23T08:37:17Z</time>
      </trkpt>
      <trkpt lat="42.88559" lon="0.10942">
        <ele>1721.8583984375</ele>
        <time>2015-07-23T08:37:29Z</time>
      </trkpt>
      <trkpt lat="42.88554" lon="0.10948">
        <ele>1722.8198242188</ele>
        <time>2015-07-23T08:37:35Z</time>
      </trkpt>
      <trkpt lat="42.88548" lon="0.10959">
        <ele>1724.2619628906</ele>
        <time>2015-07-23T08:37:47Z</time>
      </trkpt>
      <trkpt lat="42.88541" lon="0.10969">
        <ele>1724.2619628906</ele>
        <time>2015-07-23T08:37:58Z</time>
      </trkpt>
      <trkpt lat="42.88538" lon="0.10979">
        <ele>1725.7038574219</ele>
        <time>2015-07-23T08:38:07Z</time>
      </trkpt>
      <trkpt lat="42.88525" lon="0.10986">
        <ele>1728.587890625</ele>
        <time>2015-07-23T08:38:19Z</time>
      </trkpt>
      <trkpt lat="42.88515" lon="0.10993">
        <ele>1729.068359375</ele>
        <time>2015-07-23T08:38:29Z</time>
      </trkpt>
      <trkpt lat="42.88508" lon="0.11">
        <ele>1729.5490722656</ele>
        <time>2015-07-23T08:38:39Z</time>
      </trkpt>
      <trkpt lat="42.88502" lon="0.11007">
        <ele>1730.5104980469</ele>
        <time>2015-07-23T08:38:47Z</time>
      </trkpt>
      <trkpt lat="42.88491" lon="0.11015">
        <ele>1731.9523925781</ele>
        <time>2015-07-23T08:38:58Z</time>
      </trkpt>
      <trkpt lat="42.88484" lon="0.11022">
        <ele>1732.4331054688</ele>
        <time>2015-07-23T08:39:06Z</time>
      </trkpt>
      <trkpt lat="42.8848" lon="0.11026">
        <ele>1732.9135742188</ele>
        <time>2015-07-23T08:39:11Z</time>
      </trkpt>
      <trkpt lat="42.8847" lon="0.1104">
        <ele>1734.3557128906</ele>
        <time>2015-07-23T08:39:26Z</time>
      </trkpt>
      <trkpt lat="42.88459" lon="0.11051">
        <ele>1735.7976074219</ele>
        <time>2015-07-23T08:39:40Z</time>
      </trkpt>
      <trkpt lat="42.88456" lon="0.11059">
        <ele>1735.7976074219</ele>
        <time>2015-07-23T08:39:46Z</time>
      </trkpt>
      <trkpt lat="42.8845" lon="0.11071">
        <ele>1735.7976074219</ele>
        <time>2015-07-23T08:39:55Z</time>
      </trkpt>
      <trkpt lat="42.88437" lon="0.11086">
        <ele>1737.7202148438</ele>
        <time>2015-07-23T08:40:09Z</time>
      </trkpt>
      <trkpt lat="42.88425" lon="0.11101">
        <ele>1738.681640625</ele>
        <time>2015-07-23T08:40:23Z</time>
      </trkpt>
      <trkpt lat="42.88418" lon="0.11107">
        <ele>1739.6428222656</ele>
        <time>2015-07-23T08:40:30Z</time>
      </trkpt>
      <trkpt lat="42.88404" lon="0.11122">
        <ele>1738.681640625</ele>
        <time>2015-07-23T08:40:45Z</time>
      </trkpt>
      <trkpt lat="42.88397" lon="0.11139">
        <ele>1739.6428222656</ele>
        <time>2015-07-23T08:40:58Z</time>
      </trkpt>
      <trkpt lat="42.88391" lon="0.11138">
        <ele>1739.6428222656</ele>
        <time>2015-07-23T08:41:07Z</time>
      </trkpt>
      <trkpt lat="42.8839" lon="0.11142">
        <ele>1739.162109375</ele>
        <time>2015-07-23T08:41:10Z</time>
      </trkpt>
      <trkpt lat="42.88386" lon="0.1115">
        <ele>1739.162109375</ele>
        <time>2015-07-23T08:41:15Z</time>
      </trkpt>
      <trkpt lat="42.8838" lon="0.11155">
        <ele>1740.6042480469</ele>
        <time>2015-07-23T08:41:20Z</time>
      </trkpt>
      <trkpt lat="42.88367" lon="0.11161">
        <ele>1741.5656738281</ele>
        <time>2015-07-23T08:41:34Z</time>
      </trkpt>
      <trkpt lat="42.88345" lon="0.11154">
        <ele>1742.0463867188</ele>
        <time>2015-07-23T08:41:47Z</time>
      </trkpt>
      <trkpt lat="42.8834" lon="0.11161">
        <ele>1743.9689941406</ele>
        <time>2015-07-23T08:41:57Z</time>
      </trkpt>
      <trkpt lat="42.8834" lon="0.11162">
        <ele>1743.9689941406</ele>
        <time>2015-07-23T08:41:58Z</time>
      </trkpt>
      <trkpt lat="42.88338" lon="0.11167">
        <ele>1744.9301757812</ele>
        <time>2015-07-23T08:42:03Z</time>
      </trkpt>
      <trkpt lat="42.88337" lon="0.11177">
        <ele>1745.4108886719</ele>
        <time>2015-07-23T08:42:09Z</time>
      </trkpt>
      <trkpt lat="42.88326" lon="0.11194">
        <ele>1748.2946777344</ele>
        <time>2015-07-23T08:42:24Z</time>
      </trkpt>
      <trkpt lat="42.88323" lon="0.11195">
        <ele>1748.775390625</ele>
        <time>2015-07-23T08:42:26Z</time>
      </trkpt>
      <trkpt lat="42.88318" lon="0.11202">
        <ele>1749.2561035156</ele>
        <time>2015-07-23T08:42:34Z</time>
      </trkpt>
      <trkpt lat="42.88316" lon="0.11208">
        <ele>1749.7368164062</ele>
        <time>2015-07-23T08:42:51Z</time>
      </trkpt>
      <trkpt lat="42.88318" lon="0.11223">
        <ele>1751.6594238281</ele>
        <time>2015-07-23T08:43:11Z</time>
      </trkpt>
      <trkpt lat="42.88316" lon="0.11236">
        <ele>1752.1398925781</ele>
        <time>2015-07-23T08:43:20Z</time>
      </trkpt>
      <trkpt lat="42.88312" lon="0.11249">
        <ele>1753.1013183594</ele>
        <time>2015-07-23T08:43:31Z</time>
      </trkpt>
      <trkpt lat="42.88308" lon="0.11258">
        <ele>1754.0627441406</ele>
        <time>2015-07-23T08:43:42Z</time>
      </trkpt>
      <trkpt lat="42.88305" lon="0.11269">
        <ele>1754.0627441406</ele>
        <time>2015-07-23T08:43:53Z</time>
      </trkpt>
      <trkpt lat="42.88301" lon="0.11279">
        <ele>1755.5046386719</ele>
        <time>2015-07-23T08:44:05Z</time>
      </trkpt>
      <trkpt lat="42.88299" lon="0.11289">
        <ele>1756.4660644531</ele>
        <time>2015-07-23T08:44:20Z</time>
      </trkpt>
      <trkpt lat="42.88297" lon="0.11299">
        <ele>1758.388671875</ele>
        <time>2015-07-23T08:44:32Z</time>
      </trkpt>
      <trkpt lat="42.88296" lon="0.11311">
        <ele>1760.3112792969</ele>
        <time>2015-07-23T08:44:44Z</time>
      </trkpt>
      <trkpt lat="42.88295" lon="0.11318">
        <ele>1761.2727050781</ele>
        <time>2015-07-23T08:44:52Z</time>
      </trkpt>
      <trkpt lat="42.88292" lon="0.1133">
        <ele>1763.1953125</ele>
        <time>2015-07-23T08:45:05Z</time>
      </trkpt>
      <trkpt lat="42.88293" lon="0.1134">
        <ele>1764.6372070312</ele>
        <time>2015-07-23T08:45:14Z</time>
      </trkpt>
      <trkpt lat="42.8829" lon="0.11354">
        <ele>1764.6372070312</ele>
        <time>2015-07-23T08:45:26Z</time>
      </trkpt>
      <trkpt lat="42.88282" lon="0.11361">
        <ele>1765.5986328125</ele>
        <time>2015-07-23T08:45:37Z</time>
      </trkpt>
      <trkpt lat="42.88281" lon="0.1137">
        <ele>1765.1179199219</ele>
        <time>2015-07-23T08:45:47Z</time>
      </trkpt>
      <trkpt lat="42.88283" lon="0.11381">
        <ele>1767.0405273438</ele>
        <time>2015-07-23T08:46:00Z</time>
      </trkpt>
      <trkpt lat="42.88286" lon="0.11399">
        <ele>1768.9631347656</ele>
        <time>2015-07-23T08:46:18Z</time>
      </trkpt>
      <trkpt lat="42.88281" lon="0.11409">
        <ele>1769.9243164062</ele>
        <time>2015-07-23T08:46:28Z</time>
      </trkpt>
      <trkpt lat="42.88283" lon="0.11419">
        <ele>1772.3278808594</ele>
        <time>2015-07-23T08:46:42Z</time>
      </trkpt>
      <trkpt lat="42.88279" lon="0.11425">
        <ele>1774.2504882812</ele>
        <time>2015-07-23T08:46:53Z</time>
      </trkpt>
      <trkpt lat="42.88275" lon="0.11432">
        <ele>1775.6923828125</ele>
        <time>2015-07-23T08:47:12Z</time>
      </trkpt>
      <trkpt lat="42.88269" lon="0.1146">
        <ele>1778.5764160156</ele>
        <time>2015-07-23T08:47:50Z</time>
      </trkpt>
      <trkpt lat="42.88267" lon="0.11466">
        <ele>1780.9797363281</ele>
        <time>2015-07-23T08:47:58Z</time>
      </trkpt>
      <trkpt lat="42.88264" lon="0.11475">
        <ele>1781.4602050781</ele>
        <time>2015-07-23T08:48:09Z</time>
      </trkpt>
      <trkpt lat="42.88259" lon="0.11487">
        <ele>1783.3828125</ele>
        <time>2015-07-23T08:48:24Z</time>
      </trkpt>
      <trkpt lat="42.88262" lon="0.11502">
        <ele>1784.3442382812</ele>
        <time>2015-07-23T08:48:44Z</time>
      </trkpt>
      <trkpt lat="42.88263" lon="0.11505">
        <ele>1785.7861328125</ele>
        <time>2015-07-23T08:48:50Z</time>
      </trkpt>
      <trkpt lat="42.88269" lon="0.11511">
        <ele>1787.2280273438</ele>
        <time>2015-07-23T08:48:58Z</time>
      </trkpt>
      <trkpt lat="42.88273" lon="0.11517">
        <ele>1789.1508789062</ele>
        <time>2015-07-23T08:49:06Z</time>
      </trkpt>
      <trkpt lat="42.88277" lon="0.1154">
        <ele>1792.0349121094</ele>
        <time>2015-07-23T08:49:33Z</time>
      </trkpt>
      <trkpt lat="42.88271" lon="0.11547">
        <ele>1792.0349121094</ele>
        <time>2015-07-23T08:49:43Z</time>
      </trkpt>
      <trkpt lat="42.88269" lon="0.11558">
        <ele>1793.4768066406</ele>
        <time>2015-07-23T08:49:54Z</time>
      </trkpt>
      <trkpt lat="42.88269" lon="0.1157">
        <ele>1792.515625</ele>
        <time>2015-07-23T08:50:06Z</time>
      </trkpt>
      <trkpt lat="42.88267" lon="0.11581">
        <ele>1792.515625</ele>
        <time>2015-07-23T08:50:21Z</time>
      </trkpt>
      <trkpt lat="42.88273" lon="0.11585">
        <ele>1792.515625</ele>
        <time>2015-07-23T08:50:30Z</time>
      </trkpt>
      <trkpt lat="42.88273" lon="0.11589">
        <ele>1792.99609375</ele>
        <time>2015-07-23T08:50:34Z</time>
      </trkpt>
      <trkpt lat="42.88277" lon="0.11605">
        <ele>1794.4379882812</ele>
        <time>2015-07-23T08:50:47Z</time>
      </trkpt>
      <trkpt lat="42.88276" lon="0.11619">
        <ele>1796.3608398438</ele>
        <time>2015-07-23T08:51:02Z</time>
      </trkpt>
      <trkpt lat="42.88269" lon="0.11627">
        <ele>1798.7639160156</ele>
        <time>2015-07-23T08:51:14Z</time>
      </trkpt>
      <trkpt lat="42.88263" lon="0.11637">
        <ele>1799.7253417969</ele>
        <time>2015-07-23T08:51:26Z</time>
      </trkpt>
      <trkpt lat="42.88259" lon="0.11645">
        <ele>1800.6865234375</ele>
        <time>2015-07-23T08:51:35Z</time>
      </trkpt>
      <trkpt lat="42.88261" lon="0.11658">
        <ele>1804.0515136719</ele>
        <time>2015-07-23T08:51:48Z</time>
      </trkpt>
      <trkpt lat="42.88259" lon="0.11665">
        <ele>1804.5319824219</ele>
        <time>2015-07-23T08:51:56Z</time>
      </trkpt>
      <trkpt lat="42.88264" lon="0.11671">
        <ele>1807.8967285156</ele>
        <time>2015-07-23T08:52:14Z</time>
      </trkpt>
      <trkpt lat="42.88263" lon="0.1168">
        <ele>1811.2612304688</ele>
        <time>2015-07-23T08:52:28Z</time>
      </trkpt>
      <trkpt lat="42.88262" lon="0.1169">
        <ele>1811.7419433594</ele>
        <time>2015-07-23T08:52:39Z</time>
      </trkpt>
      <trkpt lat="42.88262" lon="0.11705">
        <ele>1812.703125</ele>
        <time>2015-07-23T08:52:52Z</time>
      </trkpt>
      <trkpt lat="42.88261" lon="0.11711">
        <ele>1813.6643066406</ele>
        <time>2015-07-23T08:52:58Z</time>
      </trkpt>
      <trkpt lat="42.88259" lon="0.11721">
        <ele>1816.0676269531</ele>
        <time>2015-07-23T08:53:08Z</time>
      </trkpt>
      <trkpt lat="42.88257" lon="0.1173">
        <ele>1817.990234375</ele>
        <time>2015-07-23T08:53:19Z</time>
      </trkpt>
      <trkpt lat="42.88255" lon="0.1173">
        <ele>1817.990234375</ele>
        <time>2015-07-23T08:53:20Z</time>
      </trkpt>
      <trkpt lat="42.88251" lon="0.11735">
        <ele>1819.4323730469</ele>
        <time>2015-07-23T08:53:28Z</time>
      </trkpt>
      <trkpt lat="42.88254" lon="0.11752">
        <ele>1822.31640625</ele>
        <time>2015-07-23T08:53:41Z</time>
      </trkpt>
      <trkpt lat="42.8825" lon="0.11764">
        <ele>1823.2778320312</ele>
        <time>2015-07-23T08:53:53Z</time>
      </trkpt>
      <trkpt lat="42.88245" lon="0.11775">
        <ele>1824.7197265625</ele>
        <time>2015-07-23T08:54:05Z</time>
      </trkpt>
      <trkpt lat="42.88239" lon="0.11781">
        <ele>1827.603515625</ele>
        <time>2015-07-23T08:54:18Z</time>
      </trkpt>
      <trkpt lat="42.88235" lon="0.11789">
        <ele>1828.5649414062</ele>
        <time>2015-07-23T08:54:27Z</time>
      </trkpt>
      <trkpt lat="42.88237" lon="0.11796">
        <ele>1830.0068359375</ele>
        <time>2015-07-23T08:54:38Z</time>
      </trkpt>
      <trkpt lat="42.88235" lon="0.11805">
        <ele>1832.890625</ele>
        <time>2015-07-23T08:54:52Z</time>
      </trkpt>
      <trkpt lat="42.88233" lon="0.11814">
        <ele>1835.2939453125</ele>
        <time>2015-07-23T08:55:05Z</time>
      </trkpt>
      <trkpt lat="42.88226" lon="0.11827">
        <ele>1838.6589355469</ele>
        <time>2015-07-23T08:55:24Z</time>
      </trkpt>
      <trkpt lat="42.88226" lon="0.11841">
        <ele>1839.6201171875</ele>
        <time>2015-07-23T08:55:42Z</time>
      </trkpt>
      <trkpt lat="42.88228" lon="0.11848">
        <ele>1841.5427246094</ele>
        <time>2015-07-23T08:55:54Z</time>
      </trkpt>
      <trkpt lat="42.88224" lon="0.11855">
        <ele>1843.4653320312</ele>
        <time>2015-07-23T08:56:07Z</time>
      </trkpt>
      <trkpt lat="42.88225" lon="0.11865">
        <ele>1844.9072265625</ele>
        <time>2015-07-23T08:56:19Z</time>
      </trkpt>
      <trkpt lat="42.88225" lon="0.11877">
        <ele>1847.310546875</ele>
        <time>2015-07-23T08:56:34Z</time>
      </trkpt>
      <trkpt lat="42.88221" lon="0.11884">
        <ele>1847.7912597656</ele>
        <time>2015-07-23T08:56:45Z</time>
      </trkpt>
      <trkpt lat="42.88219" lon="0.11887">
        <ele>1848.7524414062</ele>
        <time>2015-07-23T08:56:50Z</time>
      </trkpt>
      <trkpt lat="42.88223" lon="0.11895">
        <ele>1850.6750488281</ele>
        <time>2015-07-23T08:57:06Z</time>
      </trkpt>
      <trkpt lat="42.88224" lon="0.11901">
        <ele>1852.1171875</ele>
        <time>2015-07-23T08:57:17Z</time>
      </trkpt>
      <trkpt lat="42.88223" lon="0.11908">
        <ele>1853.0786132812</ele>
        <time>2015-07-23T08:57:25Z</time>
      </trkpt>
      <trkpt lat="42.88219" lon="0.11915">
        <ele>1854.0400390625</ele>
        <time>2015-07-23T08:57:36Z</time>
      </trkpt>
      <trkpt lat="42.88215" lon="0.11924">
        <ele>1856.923828125</ele>
        <time>2015-07-23T08:57:49Z</time>
      </trkpt>
      <trkpt lat="42.88214" lon="0.11933">
        <ele>1858.8464355469</ele>
        <time>2015-07-23T08:58:04Z</time>
      </trkpt>
      <trkpt lat="42.88214" lon="0.11936">
        <ele>1859.3271484375</ele>
        <time>2015-07-23T08:58:08Z</time>
      </trkpt>
      <trkpt lat="42.88208" lon="0.11938">
        <ele>1861.73046875</ele>
        <time>2015-07-23T08:58:25Z</time>
      </trkpt>
      <trkpt lat="42.88206" lon="0.11946">
        <ele>1863.6528320312</ele>
        <time>2015-07-23T08:58:37Z</time>
      </trkpt>
      <trkpt lat="42.88202" lon="0.11952">
        <ele>1865.5756835938</ele>
        <time>2015-07-23T08:58:52Z</time>
      </trkpt>
      <trkpt lat="42.88192" lon="0.11945">
        <ele>1867.9787597656</ele>
        <time>2015-07-23T08:59:16Z</time>
      </trkpt>
      <trkpt lat="42.88191" lon="0.11958">
        <ele>1870.3823242188</ele>
        <time>2015-07-23T08:59:31Z</time>
      </trkpt>
      <trkpt lat="42.88188" lon="0.11969">
        <ele>1873.2663574219</ele>
        <time>2015-07-23T08:59:46Z</time>
      </trkpt>
      <trkpt lat="42.88188" lon="0.11978">
        <ele>1873.7468261719</ele>
        <time>2015-07-23T08:59:56Z</time>
      </trkpt>
      <trkpt lat="42.88185" lon="0.11991">
        <ele>1875.6694335938</ele>
        <time>2015-07-23T09:00:12Z</time>
      </trkpt>
      <trkpt lat="42.88179" lon="0.12">
        <ele>1876.630859375</ele>
        <time>2015-07-23T09:00:26Z</time>
      </trkpt>
      <trkpt lat="42.88176" lon="0.12013">
        <ele>1878.5534667969</ele>
        <time>2015-07-23T09:00:46Z</time>
      </trkpt>
      <trkpt lat="42.88181" lon="0.12025">
        <ele>1878.5534667969</ele>
        <time>2015-07-23T09:00:57Z</time>
      </trkpt>
      <trkpt lat="42.88188" lon="0.12036">
        <ele>1879.9953613281</ele>
        <time>2015-07-23T09:01:07Z</time>
      </trkpt>
      <trkpt lat="42.88194" lon="0.12045">
        <ele>1880.4760742188</ele>
        <time>2015-07-23T09:01:18Z</time>
      </trkpt>
      <trkpt lat="42.88199" lon="0.12051">
        <ele>1880.9567871094</ele>
        <time>2015-07-23T09:01:28Z</time>
      </trkpt>
      <trkpt lat="42.882" lon="0.12054">
        <ele>1880.9567871094</ele>
        <time>2015-07-23T09:01:35Z</time>
      </trkpt>
      <trkpt lat="42.88207" lon="0.12062">
        <ele>1881.91796875</ele>
        <time>2015-07-23T09:01:53Z</time>
      </trkpt>
      <trkpt lat="42.8822" lon="0.12081">
        <ele>1883.3598632812</ele>
        <time>2015-07-23T09:02:09Z</time>
      </trkpt>
      <trkpt lat="42.88224" lon="0.12091">
        <ele>1883.8405761719</ele>
        <time>2015-07-23T09:02:19Z</time>
      </trkpt>
      <trkpt lat="42.88224" lon="0.12097">
        <ele>1886.724609375</ele>
        <time>2015-07-23T09:02:34Z</time>
      </trkpt>
      <trkpt lat="42.8823" lon="0.12101">
        <ele>1887.6860351562</ele>
        <time>2015-07-23T09:02:38Z</time>
      </trkpt>
      <trkpt lat="42.88241" lon="0.12103">
        <ele>1888.6474609375</ele>
        <time>2015-07-23T09:02:46Z</time>
      </trkpt>
      <trkpt lat="42.88246" lon="0.1212">
        <ele>1889.6086425781</ele>
        <time>2015-07-23T09:02:58Z</time>
      </trkpt>
      <trkpt lat="42.88246" lon="0.12125">
        <ele>1890.0893554688</ele>
        <time>2015-07-23T09:03:04Z</time>
      </trkpt>
      <trkpt lat="42.88252" lon="0.12138">
        <ele>1890.5698242188</ele>
        <time>2015-07-23T09:03:14Z</time>
      </trkpt>
      <trkpt lat="42.88249" lon="0.12147">
        <ele>1891.0505371094</ele>
        <time>2015-07-23T09:03:24Z</time>
      </trkpt>
      <trkpt lat="42.88249" lon="0.12148">
        <ele>1891.53125</ele>
        <time>2015-07-23T09:03:35Z</time>
      </trkpt>
      <trkpt lat="42.88246" lon="0.1217">
        <ele>1893.4538574219</ele>
        <time>2015-07-23T09:03:52Z</time>
      </trkpt>
      <trkpt lat="42.8824" lon="0.1219">
        <ele>1894.4150390625</ele>
        <time>2015-07-23T09:04:07Z</time>
      </trkpt>
      <trkpt lat="42.8824" lon="0.12195">
        <ele>1893.4538574219</ele>
        <time>2015-07-23T09:04:13Z</time>
      </trkpt>
      <trkpt lat="42.8824" lon="0.12203">
        <ele>1893.4538574219</ele>
        <time>2015-07-23T09:04:25Z</time>
      </trkpt>
      <trkpt lat="42.8824" lon="0.12207">
        <ele>1892.9731445312</ele>
        <time>2015-07-23T09:04:29Z</time>
      </trkpt>
      <trkpt lat="42.88241" lon="0.12209">
        <ele>1892.0119628906</ele>
        <time>2015-07-23T09:04:31Z</time>
      </trkpt>
      <trkpt lat="42.88238" lon="0.12233">
        <ele>1890.0893554688</ele>
        <time>2015-07-23T09:04:47Z</time>
      </trkpt>
      <trkpt lat="42.88239" lon="0.12236">
        <ele>1889.1279296875</ele>
        <time>2015-07-23T09:04:49Z</time>
      </trkpt>
      <trkpt lat="42.8824" lon="0.1225">
        <ele>1889.6086425781</ele>
        <time>2015-07-23T09:05:03Z</time>
      </trkpt>
      <trkpt lat="42.88243" lon="0.12262">
        <ele>1890.0893554688</ele>
        <time>2015-07-23T09:05:14Z</time>
      </trkpt>
      <trkpt lat="42.88244" lon="0.12275">
        <ele>1890.0893554688</ele>
        <time>2015-07-23T09:05:26Z</time>
      </trkpt>
      <trkpt lat="42.88241" lon="0.12287">
        <ele>1890.0893554688</ele>
        <time>2015-07-23T09:05:37Z</time>
      </trkpt>
      <trkpt lat="42.88241" lon="0.12289">
        <ele>1890.0893554688</ele>
        <time>2015-07-23T09:05:39Z</time>
      </trkpt>
      <trkpt lat="42.88242" lon="0.123">
        <ele>1891.0505371094</ele>
        <time>2015-07-23T09:05:50Z</time>
      </trkpt>
      <trkpt lat="42.88245" lon="0.12313">
        <ele>1891.53125</ele>
        <time>2015-07-23T09:06:03Z</time>
      </trkpt>
      <trkpt lat="42.88244" lon="0.12326">
        <ele>1892.4926757812</ele>
        <time>2015-07-23T09:06:14Z</time>
      </trkpt>
      <trkpt lat="42.88243" lon="0.12348">
        <ele>1892.9731445312</ele>
        <time>2015-07-23T09:06:30Z</time>
      </trkpt>
      <trkpt lat="42.88244" lon="0.1235">
        <ele>1892.4926757812</ele>
        <time>2015-07-23T09:06:32Z</time>
      </trkpt>
      <trkpt lat="42.88245" lon="0.12356">
        <ele>1892.9731445312</ele>
        <time>2015-07-23T09:06:37Z</time>
      </trkpt>
      <trkpt lat="42.88245" lon="0.12374">
        <ele>1892.4926757812</ele>
        <time>2015-07-23T09:06:50Z</time>
      </trkpt>
      <trkpt lat="42.88248" lon="0.12401">
        <ele>1892.4926757812</ele>
        <time>2015-07-23T09:07:08Z</time>
      </trkpt>
      <trkpt lat="42.8825" lon="0.12422">
        <ele>1892.4926757812</ele>
        <time>2015-07-23T09:07:21Z</time>
      </trkpt>
      <trkpt lat="42.88251" lon="0.12425">
        <ele>1892.4926757812</ele>
        <time>2015-07-23T09:07:24Z</time>
      </trkpt>
      <trkpt lat="42.88256" lon="0.12446">
        <ele>1891.53125</ele>
        <time>2015-07-23T09:07:38Z</time>
      </trkpt>
      <trkpt lat="42.88265" lon="0.12471">
        <ele>1890.0893554688</ele>
        <time>2015-07-23T09:07:55Z</time>
      </trkpt>
      <trkpt lat="42.88264" lon="0.12476">
        <ele>1889.6086425781</ele>
        <time>2015-07-23T09:08:04Z</time>
      </trkpt>
      <trkpt lat="42.88259" lon="0.12489">
        <ele>1889.6086425781</ele>
        <time>2015-07-23T09:08:16Z</time>
      </trkpt>
      <trkpt lat="42.88251" lon="0.12493">
        <ele>1889.6086425781</ele>
        <time>2015-07-23T09:08:25Z</time>
      </trkpt>
      <trkpt lat="42.88247" lon="0.125">
        <ele>1889.6086425781</ele>
        <time>2015-07-23T09:08:30Z</time>
      </trkpt>
      <trkpt lat="42.88242" lon="0.12515">
        <ele>1889.6086425781</ele>
        <time>2015-07-23T09:08:40Z</time>
      </trkpt>
      <trkpt lat="42.88235" lon="0.1253">
        <ele>1890.5698242188</ele>
        <time>2015-07-23T09:08:53Z</time>
      </trkpt>
      <trkpt lat="42.88232" lon="0.12541">
        <ele>1890.5698242188</ele>
        <time>2015-07-23T09:09:01Z</time>
      </trkpt>
      <trkpt lat="42.8823" lon="0.1255">
        <ele>1891.0505371094</ele>
        <time>2015-07-23T09:09:14Z</time>
      </trkpt>
      <trkpt lat="42.8823" lon="0.12557">
        <ele>1891.0505371094</ele>
        <time>2015-07-23T09:09:28Z</time>
      </trkpt>
      <trkpt lat="42.88227" lon="0.12562">
        <ele>1891.53125</ele>
        <time>2015-07-23T09:10:04Z</time>
      </trkpt>
      <trkpt lat="42.88226" lon="0.12564">
        <ele>1892.4926757812</ele>
        <time>2015-07-23T09:10:11Z</time>
      </trkpt>
      <trkpt lat="42.8822" lon="0.12564">
        <ele>1893.4538574219</ele>
        <time>2015-07-23T09:10:23Z</time>
      </trkpt>
      <trkpt lat="42.88225" lon="0.12556">
        <ele>1893.4538574219</ele>
        <time>2015-07-23T09:10:41Z</time>
      </trkpt>
      <trkpt lat="42.88222" lon="0.12565">
        <ele>1892.9731445312</ele>
        <time>2015-07-23T09:10:54Z</time>
      </trkpt>
      <trkpt lat="42.8822" lon="0.12566">
        <ele>1893.4538574219</ele>
        <time>2015-07-23T09:10:58Z</time>
      </trkpt>
      <trkpt lat="42.8822" lon="0.12567">
        <ele>1893.4538574219</ele>
        <time>2015-07-23T09:11:14Z</time>
      </trkpt>
      <trkpt lat="42.88217" lon="0.12563">
        <ele>1893.9345703125</ele>
        <time>2015-07-23T09:11:26Z</time>
      </trkpt>
      <trkpt lat="42.88208" lon="0.12565">
        <ele>1895.3764648438</ele>
        <time>2015-07-23T09:11:37Z</time>
      </trkpt>
      <trkpt lat="42.88202" lon="0.12568">
        <ele>1896.818359375</ele>
        <time>2015-07-23T09:11:50Z</time>
      </trkpt>
      <trkpt lat="42.88202" lon="0.12572">
        <ele>1898.2602539062</ele>
        <time>2015-07-23T09:11:54Z</time>
      </trkpt>
      <trkpt lat="42.882" lon="0.12586">
        <ele>1899.2216796875</ele>
        <time>2015-07-23T09:12:07Z</time>
      </trkpt>
      <trkpt lat="42.88199" lon="0.12597">
        <ele>1901.14453125</ele>
        <time>2015-07-23T09:12:17Z</time>
      </trkpt>
      <trkpt lat="42.88201" lon="0.12606">
        <ele>1902.1057128906</ele>
        <time>2015-07-23T09:12:27Z</time>
      </trkpt>
      <trkpt lat="42.88209" lon="0.12618">
        <ele>1903.5478515625</ele>
        <time>2015-07-23T09:12:46Z</time>
      </trkpt>
      <trkpt lat="42.88208" lon="0.12621">
        <ele>1903.5478515625</ele>
        <time>2015-07-23T09:12:50Z</time>
      </trkpt>
      <trkpt lat="42.88202" lon="0.12629">
        <ele>1904.9897460938</ele>
        <time>2015-07-23T09:13:01Z</time>
      </trkpt>
      <trkpt lat="42.88201" lon="0.12642">
        <ele>1906.431640625</ele>
        <time>2015-07-23T09:13:15Z</time>
      </trkpt>
      <trkpt lat="42.88201" lon="0.12657">
        <ele>1908.3542480469</ele>
        <time>2015-07-23T09:13:29Z</time>
      </trkpt>
      <trkpt lat="42.88202" lon="0.1267">
        <ele>1910.2768554688</ele>
        <time>2015-07-23T09:13:41Z</time>
      </trkpt>
      <trkpt lat="42.88201" lon="0.1268">
        <ele>1911.7189941406</ele>
        <time>2015-07-23T09:13:53Z</time>
      </trkpt>
      <trkpt lat="42.882" lon="0.12692">
        <ele>1913.1608886719</ele>
        <time>2015-07-23T09:14:05Z</time>
      </trkpt>
      <trkpt lat="42.88198" lon="0.12705">
        <ele>1913.6413574219</ele>
        <time>2015-07-23T09:14:18Z</time>
      </trkpt>
      <trkpt lat="42.88199" lon="0.12718">
        <ele>1915.0834960938</ele>
        <time>2015-07-23T09:14:31Z</time>
      </trkpt>
      <trkpt lat="42.88201" lon="0.12731">
        <ele>1915.0834960938</ele>
        <time>2015-07-23T09:14:45Z</time>
      </trkpt>
      <trkpt lat="42.88203" lon="0.12735">
        <ele>1915.5642089844</ele>
        <time>2015-07-23T09:14:49Z</time>
      </trkpt>
      <trkpt lat="42.88201" lon="0.12756">
        <ele>1916.044921875</ele>
        <time>2015-07-23T09:15:06Z</time>
      </trkpt>
      <trkpt lat="42.88198" lon="0.12767">
        <ele>1916.5256347656</ele>
        <time>2015-07-23T09:15:14Z</time>
      </trkpt>
      <trkpt lat="42.88203" lon="0.12773">
        <ele>1916.5256347656</ele>
        <time>2015-07-23T09:15:26Z</time>
      </trkpt>
      <trkpt lat="42.88211" lon="0.12773">
        <ele>1916.5256347656</ele>
        <time>2015-07-23T09:15:40Z</time>
      </trkpt>
      <trkpt lat="42.88212" lon="0.12776">
        <ele>1917.4868164062</ele>
        <time>2015-07-23T09:15:56Z</time>
      </trkpt>
      <trkpt lat="42.8821" lon="0.12778">
        <ele>1916.5256347656</ele>
        <time>2015-07-23T09:16:04Z</time>
      </trkpt>
      <trkpt lat="42.88208" lon="0.12781">
        <ele>1917.0063476562</ele>
        <time>2015-07-23T09:16:06Z</time>
      </trkpt>
      <trkpt lat="42.88199" lon="0.12801">
        <ele>1917.0063476562</ele>
        <time>2015-07-23T09:16:23Z</time>
      </trkpt>
      <trkpt lat="42.88202" lon="0.12801">
        <ele>1917.4868164062</ele>
        <time>2015-07-23T09:16:53Z</time>
      </trkpt>
      <trkpt lat="42.88228" lon="0.12798">
        <ele>1917.0063476562</ele>
        <time>2015-07-23T09:17:05Z</time>
      </trkpt>
      <trkpt lat="42.88238" lon="0.12792">
        <ele>1916.044921875</ele>
        <time>2015-07-23T09:17:17Z</time>
      </trkpt>
      <trkpt lat="42.88238" lon="0.12794">
        <ele>1916.5256347656</ele>
        <time>2015-07-23T09:17:20Z</time>
      </trkpt>
      <trkpt lat="42.88239" lon="0.12804">
        <ele>1917.0063476562</ele>
        <time>2015-07-23T09:17:33Z</time>
      </trkpt>
      <trkpt lat="42.88239" lon="0.1281">
        <ele>1918.9289550781</ele>
        <time>2015-07-23T09:17:52Z</time>
      </trkpt>
      <trkpt lat="42.88234" lon="0.12825">
        <ele>1919.8901367188</ele>
        <time>2015-07-23T09:18:06Z</time>
      </trkpt>
      <trkpt lat="42.88229" lon="0.12843">
        <ele>1921.33203125</ele>
        <time>2015-07-23T09:18:20Z</time>
      </trkpt>
      <trkpt lat="42.8823" lon="0.12853">
        <ele>1923.2548828125</ele>
        <time>2015-07-23T09:18:31Z</time>
      </trkpt>
      <trkpt lat="42.8823" lon="0.12856">
        <ele>1924.2160644531</ele>
        <time>2015-07-23T09:18:39Z</time>
      </trkpt>
      <trkpt lat="42.88229" lon="0.12866">
        <ele>1925.6579589844</ele>
        <time>2015-07-23T09:18:56Z</time>
      </trkpt>
      <trkpt lat="42.88225" lon="0.12879">
        <ele>1925.1772460938</ele>
        <time>2015-07-23T09:19:09Z</time>
      </trkpt>
      <trkpt lat="42.8822" lon="0.12882">
        <ele>1925.1772460938</ele>
        <time>2015-07-23T09:19:40Z</time>
      </trkpt>
      <trkpt lat="42.88215" lon="0.12887">
        <ele>1927.1000976562</ele>
        <time>2015-07-23T09:20:23Z</time>
      </trkpt>
      <trkpt lat="42.88215" lon="0.12898">
        <ele>1929.9838867188</ele>
        <time>2015-07-23T09:20:49Z</time>
      </trkpt>
      <trkpt lat="42.88215" lon="0.12909">
        <ele>1932.3874511719</ele>
        <time>2015-07-23T09:21:04Z</time>
      </trkpt>
      <trkpt lat="42.8822" lon="0.12905">
        <ele>1934.7907714844</ele>
        <time>2015-07-23T09:21:16Z</time>
      </trkpt>
      <trkpt lat="42.88225" lon="0.129">
        <ele>1938.1552734375</ele>
        <time>2015-07-23T09:21:26Z</time>
      </trkpt>
      <trkpt lat="42.88226" lon="0.12899">
        <ele>1938.1552734375</ele>
        <time>2015-07-23T09:21:27Z</time>
      </trkpt>
      <trkpt lat="42.88232" lon="0.12904">
        <ele>1940.0778808594</ele>
        <time>2015-07-23T09:21:37Z</time>
      </trkpt>
      <trkpt lat="42.88229" lon="0.12916">
        <ele>1941.5197753906</ele>
        <time>2015-07-23T09:21:50Z</time>
      </trkpt>
      <trkpt lat="42.88222" lon="0.1293">
        <ele>1942.4812011719</ele>
        <time>2015-07-23T09:22:03Z</time>
      </trkpt>
      <trkpt lat="42.88215" lon="0.12948">
        <ele>1945.3649902344</ele>
        <time>2015-07-23T09:22:19Z</time>
      </trkpt>
      <trkpt lat="42.88213" lon="0.12966">
        <ele>1947.7683105469</ele>
        <time>2015-07-23T09:22:35Z</time>
      </trkpt>
      <trkpt lat="42.88212" lon="0.12981">
        <ele>1949.6911621094</ele>
        <time>2015-07-23T09:22:50Z</time>
      </trkpt>
      <trkpt lat="42.8821" lon="0.13004">
        <ele>1949.6911621094</ele>
        <time>2015-07-23T09:23:09Z</time>
      </trkpt>
      <trkpt lat="42.88205" lon="0.13022">
        <ele>1949.2104492188</ele>
        <time>2015-07-23T09:23:23Z</time>
      </trkpt>
      <trkpt lat="42.88204" lon="0.13034">
        <ele>1948.2490234375</ele>
        <time>2015-07-23T09:23:32Z</time>
      </trkpt>
      <trkpt lat="42.88201" lon="0.13043">
        <ele>1948.2490234375</ele>
        <time>2015-07-23T09:23:39Z</time>
      </trkpt>
      <trkpt lat="42.88198" lon="0.13052">
        <ele>1947.7683105469</ele>
        <time>2015-07-23T09:23:51Z</time>
      </trkpt>
      <trkpt lat="42.88195" lon="0.1307">
        <ele>1946.3264160156</ele>
        <time>2015-07-23T09:24:05Z</time>
      </trkpt>
      <trkpt lat="42.88188" lon="0.13082">
        <ele>1947.2875976562</ele>
        <time>2015-07-23T09:24:16Z</time>
      </trkpt>
      <trkpt lat="42.88182" lon="0.13095">
        <ele>1948.2490234375</ele>
        <time>2015-07-23T09:24:27Z</time>
      </trkpt>
      <trkpt lat="42.88181" lon="0.13112">
        <ele>1948.2490234375</ele>
        <time>2015-07-23T09:24:41Z</time>
      </trkpt>
      <trkpt lat="42.8818" lon="0.13129">
        <ele>1950.171875</ele>
        <time>2015-07-23T09:24:57Z</time>
      </trkpt>
      <trkpt lat="42.88181" lon="0.13138">
        <ele>1952.0942382812</ele>
        <time>2015-07-23T09:25:09Z</time>
      </trkpt>
      <trkpt lat="42.88175" lon="0.13151">
        <ele>1954.0170898438</ele>
        <time>2015-07-23T09:25:23Z</time>
      </trkpt>
      <trkpt lat="42.88172" lon="0.13164">
        <ele>1954.0170898438</ele>
        <time>2015-07-23T09:25:36Z</time>
      </trkpt>
      <trkpt lat="42.88165" lon="0.13176">
        <ele>1954.4975585938</ele>
        <time>2015-07-23T09:25:49Z</time>
      </trkpt>
      <trkpt lat="42.88162" lon="0.13189">
        <ele>1954.9782714844</ele>
        <time>2015-07-23T09:26:00Z</time>
      </trkpt>
      <trkpt lat="42.88156" lon="0.13206">
        <ele>1956.9008789062</ele>
        <time>2015-07-23T09:26:16Z</time>
      </trkpt>
      <trkpt lat="42.88155" lon="0.13208">
        <ele>1956.9008789062</ele>
        <time>2015-07-23T09:26:18Z</time>
      </trkpt>
      <trkpt lat="42.88154" lon="0.13213">
        <ele>1956.4201660156</ele>
        <time>2015-07-23T09:26:34Z</time>
      </trkpt>
      <trkpt lat="42.88151" lon="0.13223">
        <ele>1956.4201660156</ele>
        <time>2015-07-23T09:26:47Z</time>
      </trkpt>
      <trkpt lat="42.8815" lon="0.13225">
        <ele>1955.939453125</ele>
        <time>2015-07-23T09:26:49Z</time>
      </trkpt>
      <trkpt lat="42.88151" lon="0.13252">
        <ele>1956.4201660156</ele>
        <time>2015-07-23T09:27:07Z</time>
      </trkpt>
      <trkpt lat="42.8815" lon="0.13266">
        <ele>1957.3815917969</ele>
        <time>2015-07-23T09:27:22Z</time>
      </trkpt>
      <trkpt lat="42.88147" lon="0.1328">
        <ele>1957.3815917969</ele>
        <time>2015-07-23T09:27:38Z</time>
      </trkpt>
      <trkpt lat="42.88142" lon="0.13293">
        <ele>1956.4201660156</ele>
        <time>2015-07-23T09:27:56Z</time>
      </trkpt>
      <trkpt lat="42.88142" lon="0.13304">
        <ele>1957.3815917969</ele>
        <time>2015-07-23T09:28:08Z</time>
      </trkpt>
      <trkpt lat="42.88144" lon="0.13311">
        <ele>1956.9008789062</ele>
        <time>2015-07-23T09:28:13Z</time>
      </trkpt>
      <trkpt lat="42.88142" lon="0.13324">
        <ele>1953.5363769531</ele>
        <time>2015-07-23T09:28:27Z</time>
      </trkpt>
      <trkpt lat="42.88139" lon="0.13344">
        <ele>1951.1330566406</ele>
        <time>2015-07-23T09:28:46Z</time>
      </trkpt>
      <trkpt lat="42.8814" lon="0.13358">
        <ele>1950.171875</ele>
        <time>2015-07-23T09:28:57Z</time>
      </trkpt>
      <trkpt lat="42.88141" lon="0.13371">
        <ele>1951.1330566406</ele>
        <time>2015-07-23T09:29:11Z</time>
      </trkpt>
      <trkpt lat="42.88143" lon="0.13373">
        <ele>1951.6137695312</ele>
        <time>2015-07-23T09:29:14Z</time>
      </trkpt>
      <trkpt lat="42.88156" lon="0.13386">
        <ele>1952.5749511719</ele>
        <time>2015-07-23T09:29:28Z</time>
      </trkpt>
      <trkpt lat="42.88158" lon="0.13388">
        <ele>1953.0556640625</ele>
        <time>2015-07-23T09:29:30Z</time>
      </trkpt>
      <trkpt lat="42.88166" lon="0.13409">
        <ele>1954.0170898438</ele>
        <time>2015-07-23T09:29:47Z</time>
      </trkpt>
      <trkpt lat="42.88168" lon="0.13412">
        <ele>1954.4975585938</ele>
        <time>2015-07-23T09:29:51Z</time>
      </trkpt>
      <trkpt lat="42.88162" lon="0.13429">
        <ele>1955.458984375</ele>
        <time>2015-07-23T09:30:07Z</time>
      </trkpt>
      <trkpt lat="42.88162" lon="0.13443">
        <ele>1954.9782714844</ele>
        <time>2015-07-23T09:30:21Z</time>
      </trkpt>
      <trkpt lat="42.8816" lon="0.13454">
        <ele>1955.458984375</ele>
        <time>2015-07-23T09:30:30Z</time>
      </trkpt>
      <trkpt lat="42.88155" lon="0.13464">
        <ele>1955.458984375</ele>
        <time>2015-07-23T09:30:41Z</time>
      </trkpt>
      <trkpt lat="42.8815" lon="0.13482">
        <ele>1955.939453125</ele>
        <time>2015-07-23T09:30:57Z</time>
      </trkpt>
      <trkpt lat="42.88146" lon="0.13491">
        <ele>1956.9008789062</ele>
        <time>2015-07-23T09:31:10Z</time>
      </trkpt>
      <trkpt lat="42.88144" lon="0.13497">
        <ele>1958.8234863281</ele>
        <time>2015-07-23T09:31:21Z</time>
      </trkpt>
      <trkpt lat="42.88141" lon="0.13507">
        <ele>1960.2653808594</ele>
        <time>2015-07-23T09:31:34Z</time>
      </trkpt>
      <trkpt lat="42.88133" lon="0.13512">
        <ele>1959.7846679688</ele>
        <time>2015-07-23T09:31:45Z</time>
      </trkpt>
      <trkpt lat="42.88116" lon="0.13523">
        <ele>1958.8234863281</ele>
        <time>2015-07-23T09:31:59Z</time>
      </trkpt>
      <trkpt lat="42.88105" lon="0.13531">
        <ele>1960.2653808594</ele>
        <time>2015-07-23T09:32:16Z</time>
      </trkpt>
      <trkpt lat="42.88104" lon="0.13535">
        <ele>1961.2268066406</ele>
        <time>2015-07-23T09:32:21Z</time>
      </trkpt>
      <trkpt lat="42.88105" lon="0.13542">
        <ele>1962.6687011719</ele>
        <time>2015-07-23T09:32:26Z</time>
      </trkpt>
      <trkpt lat="42.88102" lon="0.13557">
        <ele>1964.1108398438</ele>
        <time>2015-07-23T09:32:42Z</time>
      </trkpt>
      <trkpt lat="42.88095" lon="0.13566">
        <ele>1965.5529785156</ele>
        <time>2015-07-23T09:32:55Z</time>
      </trkpt>
      <trkpt lat="42.88094" lon="0.13576">
        <ele>1966.9948730469</ele>
        <time>2015-07-23T09:33:05Z</time>
      </trkpt>
      <trkpt lat="42.88093" lon="0.13586">
        <ele>1967.4753417969</ele>
        <time>2015-07-23T09:33:19Z</time>
      </trkpt>
      <trkpt lat="42.88091" lon="0.13596">
        <ele>1968.9174804688</ele>
        <time>2015-07-23T09:33:31Z</time>
      </trkpt>
      <trkpt lat="42.88098" lon="0.13587">
        <ele>1970.8400878906</ele>
        <time>2015-07-23T09:33:53Z</time>
      </trkpt>
      <trkpt lat="42.881" lon="0.1359">
        <ele>1973.7238769531</ele>
        <time>2015-07-23T09:34:08Z</time>
      </trkpt>
      <trkpt lat="42.88106" lon="0.13599">
        <ele>1975.646484375</ele>
        <time>2015-07-23T09:34:27Z</time>
      </trkpt>
      <trkpt lat="42.88104" lon="0.13608">
        <ele>1978.5305175781</ele>
        <time>2015-07-23T09:34:40Z</time>
      </trkpt>
      <trkpt lat="42.88105" lon="0.13616">
        <ele>1979.4916992188</ele>
        <time>2015-07-23T09:34:57Z</time>
      </trkpt>
      <trkpt lat="42.88103" lon="0.13623">
        <ele>1981.8952636719</ele>
        <time>2015-07-23T09:35:14Z</time>
      </trkpt>
      <trkpt lat="42.88103" lon="0.13631">
        <ele>1984.2985839844</ele>
        <time>2015-07-23T09:35:27Z</time>
      </trkpt>
      <trkpt lat="42.88101" lon="0.13634">
        <ele>1985.7404785156</ele>
        <time>2015-07-23T09:35:34Z</time>
      </trkpt>
      <trkpt lat="42.881" lon="0.13637">
        <ele>1986.7016601562</ele>
        <time>2015-07-23T09:35:38Z</time>
      </trkpt>
      <trkpt lat="42.88099" lon="0.13648">
        <ele>1988.1437988281</ele>
        <time>2015-07-23T09:35:53Z</time>
      </trkpt>
      <trkpt lat="42.88099" lon="0.13658">
        <ele>1991.0275878906</ele>
        <time>2015-07-23T09:36:08Z</time>
      </trkpt>
      <trkpt lat="42.88101" lon="0.13667">
        <ele>1992.9501953125</ele>
        <time>2015-07-23T09:36:23Z</time>
      </trkpt>
      <trkpt lat="42.88105" lon="0.13669">
        <ele>1994.8728027344</ele>
        <time>2015-07-23T09:36:36Z</time>
      </trkpt>
      <trkpt lat="42.88107" lon="0.13677">
        <ele>1996.7956542969</ele>
        <time>2015-07-23T09:36:52Z</time>
      </trkpt>
      <trkpt lat="42.88111" lon="0.13685">
        <ele>1999.6796875</ele>
        <time>2015-07-23T09:37:06Z</time>
      </trkpt>
      <trkpt lat="42.88108" lon="0.13695">
        <ele>2001.1215820312</ele>
        <time>2015-07-23T09:37:18Z</time>
      </trkpt>
      <trkpt lat="42.88105" lon="0.13707">
        <ele>2002.0827636719</ele>
        <time>2015-07-23T09:37:31Z</time>
      </trkpt>
      <trkpt lat="42.88107" lon="0.13714">
        <ele>2003.0441894531</ele>
        <time>2015-07-23T09:37:45Z</time>
      </trkpt>
      <trkpt lat="42.88104" lon="0.13724">
        <ele>2004.966796875</ele>
        <time>2015-07-23T09:37:57Z</time>
      </trkpt>
      <trkpt lat="42.88102" lon="0.13738">
        <ele>2006.4086914062</ele>
        <time>2015-07-23T09:38:14Z</time>
      </trkpt>
      <trkpt lat="42.88098" lon="0.13752">
        <ele>2009.7731933594</ele>
        <time>2015-07-23T09:38:28Z</time>
      </trkpt>
      <trkpt lat="42.88093" lon="0.13773">
        <ele>2008.8120117188</ele>
        <time>2015-07-23T09:38:44Z</time>
      </trkpt>
      <trkpt lat="42.88089" lon="0.13792">
        <ele>2010.7346191406</ele>
        <time>2015-07-23T09:39:01Z</time>
      </trkpt>
      <trkpt lat="42.88089" lon="0.13803">
        <ele>2012.1767578125</ele>
        <time>2015-07-23T09:39:13Z</time>
      </trkpt>
      <trkpt lat="42.88078" lon="0.13813">
        <ele>2013.6186523438</ele>
        <time>2015-07-23T09:39:28Z</time>
      </trkpt>
      <trkpt lat="42.88071" lon="0.13813">
        <ele>2015.0607910156</ele>
        <time>2015-07-23T09:39:41Z</time>
      </trkpt>
      <trkpt lat="42.8806" lon="0.13808">
        <ele>2016.5026855469</ele>
        <time>2015-07-23T09:39:58Z</time>
      </trkpt>
      <trkpt lat="42.88047" lon="0.13798">
        <ele>2016.9833984375</ele>
        <time>2015-07-23T09:40:14Z</time>
      </trkpt>
      <trkpt lat="42.88038" lon="0.13792">
        <ele>2017.4638671875</ele>
        <time>2015-07-23T09:40:27Z</time>
      </trkpt>
      <trkpt lat="42.88029" lon="0.13788">
        <ele>2018.4252929688</ele>
        <time>2015-07-23T09:40:43Z</time>
      </trkpt>
      <trkpt lat="42.88017" lon="0.13797">
        <ele>2020.3479003906</ele>
        <time>2015-07-23T09:40:59Z</time>
      </trkpt>
      <trkpt lat="42.88005" lon="0.13807">
        <ele>2020.8286132812</ele>
        <time>2015-07-23T09:41:13Z</time>
      </trkpt>
      <trkpt lat="42.88" lon="0.13813">
        <ele>2021.3090820312</ele>
        <time>2015-07-23T09:41:19Z</time>
      </trkpt>
      <trkpt lat="42.87998" lon="0.13815">
        <ele>2022.2705078125</ele>
        <time>2015-07-23T09:41:21Z</time>
      </trkpt>
      <trkpt lat="42.87992" lon="0.13822">
        <ele>2024.1931152344</ele>
        <time>2015-07-23T09:41:33Z</time>
      </trkpt>
      <trkpt lat="42.87989" lon="0.13826">
        <ele>2024.1931152344</ele>
        <time>2015-07-23T09:41:38Z</time>
      </trkpt>
      <trkpt lat="42.87981" lon="0.13841">
        <ele>2025.6350097656</ele>
        <time>2015-07-23T09:41:54Z</time>
      </trkpt>
      <trkpt lat="42.87981" lon="0.13848">
        <ele>2027.0771484375</ele>
        <time>2015-07-23T09:42:06Z</time>
      </trkpt>
      <trkpt lat="42.8798" lon="0.13862">
        <ele>2029.9611816406</ele>
        <time>2015-07-23T09:42:21Z</time>
      </trkpt>
      <trkpt lat="42.87976" lon="0.13875">
        <ele>2030.4418945312</ele>
        <time>2015-07-23T09:42:32Z</time>
      </trkpt>
      <trkpt lat="42.87976" lon="0.13888">
        <ele>2031.4030761719</ele>
        <time>2015-07-23T09:42:44Z</time>
      </trkpt>
      <trkpt lat="42.87969" lon="0.13904">
        <ele>2033.3256835938</ele>
        <time>2015-07-23T09:42:59Z</time>
      </trkpt>
      <trkpt lat="42.87967" lon="0.13907">
        <ele>2033.8063964844</ele>
        <time>2015-07-23T09:43:03Z</time>
      </trkpt>
      <trkpt lat="42.87956" lon="0.13915">
        <ele>2036.2097167969</ele>
        <time>2015-07-23T09:43:17Z</time>
      </trkpt>
      <trkpt lat="42.8796" lon="0.13917">
        <ele>2037.6516113281</ele>
        <time>2015-07-23T09:43:28Z</time>
      </trkpt>
      <trkpt lat="42.87954" lon="0.13922">
        <ele>2038.1323242188</ele>
        <time>2015-07-23T09:43:32Z</time>
      </trkpt>
      <trkpt lat="42.87954" lon="0.13938">
        <ele>2040.5354003906</ele>
        <time>2015-07-23T09:43:45Z</time>
      </trkpt>
      <trkpt lat="42.87952" lon="0.13938">
        <ele>2041.4968261719</ele>
        <time>2015-07-23T09:43:49Z</time>
      </trkpt>
      <trkpt lat="42.87955" lon="0.13947">
        <ele>2041.9775390625</ele>
        <time>2015-07-23T09:43:56Z</time>
      </trkpt>
      <trkpt lat="42.87948" lon="0.13949">
        <ele>2043.9001464844</ele>
        <time>2015-07-23T09:44:13Z</time>
      </trkpt>
      <trkpt lat="42.87952" lon="0.13952">
        <ele>2044.380859375</ele>
        <time>2015-07-23T09:44:18Z</time>
      </trkpt>
      <trkpt lat="42.87954" lon="0.13957">
        <ele>2046.3037109375</ele>
        <time>2015-07-23T09:44:28Z</time>
      </trkpt>
      <trkpt lat="42.87951" lon="0.13966">
        <ele>2049.6682128906</ele>
        <time>2015-07-23T09:44:41Z</time>
      </trkpt>
      <trkpt lat="42.87945" lon="0.13981">
        <ele>2051.1101074219</ele>
        <time>2015-07-23T09:44:59Z</time>
      </trkpt>
      <trkpt lat="42.87941" lon="0.13988">
        <ele>2051.1101074219</ele>
        <time>2015-07-23T09:45:19Z</time>
      </trkpt>
      <trkpt lat="42.87947" lon="0.13994">
        <ele>2051.5908203125</ele>
        <time>2015-07-23T09:45:31Z</time>
      </trkpt>
      <trkpt lat="42.87946" lon="0.14003">
        <ele>2052.5520019531</ele>
        <time>2015-07-23T09:45:40Z</time>
      </trkpt>
      <trkpt lat="42.87947" lon="0.14017">
        <ele>2053.5134277344</ele>
        <time>2015-07-23T09:45:57Z</time>
      </trkpt>
      <trkpt lat="42.87948" lon="0.14032">
        <ele>2053.0327148438</ele>
        <time>2015-07-23T09:46:10Z</time>
      </trkpt>
      <trkpt lat="42.87945" lon="0.14046">
        <ele>2053.994140625</ele>
        <time>2015-07-23T09:46:22Z</time>
      </trkpt>
      <trkpt lat="42.87945" lon="0.14059">
        <ele>2054.474609375</ele>
        <time>2015-07-23T09:46:38Z</time>
      </trkpt>
      <trkpt lat="42.87941" lon="0.14071">
        <ele>2055.4360351562</ele>
        <time>2015-07-23T09:46:49Z</time>
      </trkpt>
      <trkpt lat="42.87938" lon="0.14081">
        <ele>2055.4360351562</ele>
        <time>2015-07-23T09:47:00Z</time>
      </trkpt>
      <trkpt lat="42.87935" lon="0.14092">
        <ele>2058.8005371094</ele>
        <time>2015-07-23T09:47:16Z</time>
      </trkpt>
      <trkpt lat="42.87938" lon="0.14088">
        <ele>2060.7233886719</ele>
        <time>2015-07-23T09:47:32Z</time>
      </trkpt>
      <trkpt lat="42.87939" lon="0.14095">
        <ele>2062.6459960938</ele>
        <time>2015-07-23T09:47:45Z</time>
      </trkpt>
      <trkpt lat="42.87935" lon="0.14104">
        <ele>2064.5686035156</ele>
        <time>2015-07-23T09:48:00Z</time>
      </trkpt>
      <trkpt lat="42.87927" lon="0.1411">
        <ele>2065.0493164062</ele>
        <time>2015-07-23T09:48:10Z</time>
      </trkpt>
      <trkpt lat="42.87926" lon="0.14114">
        <ele>2066.4912109375</ele>
        <time>2015-07-23T09:48:23Z</time>
      </trkpt>
      <trkpt lat="42.87921" lon="0.14125">
        <ele>2069.3752441406</ele>
        <time>2015-07-23T09:48:37Z</time>
      </trkpt>
      <trkpt lat="42.87918" lon="0.14136">
        <ele>2067.9331054688</ele>
        <time>2015-07-23T09:48:48Z</time>
      </trkpt>
      <trkpt lat="42.87916" lon="0.14146">
        <ele>2066.9719238281</ele>
        <time>2015-07-23T09:49:03Z</time>
      </trkpt>
      <trkpt lat="42.87913" lon="0.14151">
        <ele>2066.9719238281</ele>
        <time>2015-07-23T09:49:07Z</time>
      </trkpt>
      <trkpt lat="42.87907" lon="0.14153">
        <ele>2066.4912109375</ele>
        <time>2015-07-23T09:49:12Z</time>
      </trkpt>
      <trkpt lat="42.879" lon="0.14169">
        <ele>2067.4523925781</ele>
        <time>2015-07-23T09:49:27Z</time>
      </trkpt>
      <trkpt lat="42.87894" lon="0.14179">
        <ele>2069.3752441406</ele>
        <time>2015-07-23T09:49:39Z</time>
      </trkpt>
      <trkpt lat="42.87894" lon="0.14181">
        <ele>2069.8557128906</ele>
        <time>2015-07-23T09:49:41Z</time>
      </trkpt>
      <trkpt lat="42.87895" lon="0.14186">
        <ele>2070.3364257812</ele>
        <time>2015-07-23T09:49:45Z</time>
      </trkpt>
      <trkpt lat="42.87898" lon="0.14204">
        <ele>2072.2590332031</ele>
        <time>2015-07-23T09:50:03Z</time>
      </trkpt>
      <trkpt lat="42.87898" lon="0.14209">
        <ele>2072.2590332031</ele>
        <time>2015-07-23T09:50:06Z</time>
      </trkpt>
      <trkpt lat="42.87897" lon="0.14226">
        <ele>2072.7397460938</ele>
        <time>2015-07-23T09:50:17Z</time>
      </trkpt>
      <trkpt lat="42.87895" lon="0.1424">
        <ele>2071.7783203125</ele>
        <time>2015-07-23T09:50:26Z</time>
      </trkpt>
      <trkpt lat="42.87886" lon="0.14267">
        <ele>2070.8171386719</ele>
        <time>2015-07-23T09:50:44Z</time>
      </trkpt>
      <trkpt lat="42.87882" lon="0.14284">
        <ele>2070.8171386719</ele>
        <time>2015-07-23T09:50:56Z</time>
      </trkpt>
      <trkpt lat="42.8788" lon="0.1429">
        <ele>2072.2590332031</ele>
        <time>2015-07-23T09:51:07Z</time>
      </trkpt>
      <trkpt lat="42.87877" lon="0.14292">
        <ele>2072.2590332031</ele>
        <time>2015-07-23T09:51:10Z</time>
      </trkpt>
      <trkpt lat="42.87872" lon="0.14295">
        <ele>2072.7397460938</ele>
        <time>2015-07-23T09:51:14Z</time>
      </trkpt>
      <trkpt lat="42.8786" lon="0.14316">
        <ele>2072.7397460938</ele>
        <time>2015-07-23T09:51:26Z</time>
      </trkpt>
      <trkpt lat="42.87858" lon="0.14317">
        <ele>2073.2204589844</ele>
        <time>2015-07-23T09:51:28Z</time>
      </trkpt>
      <trkpt lat="42.87854" lon="0.14319">
        <ele>2074.181640625</ele>
        <time>2015-07-23T09:51:37Z</time>
      </trkpt>
      <trkpt lat="42.8785" lon="0.14335">
        <ele>2074.6623535156</ele>
        <time>2015-07-23T09:51:50Z</time>
      </trkpt>
      <trkpt lat="42.87847" lon="0.14342">
        <ele>2074.181640625</ele>
        <time>2015-07-23T09:51:56Z</time>
      </trkpt>
      <trkpt lat="42.87838" lon="0.14355">
        <ele>2075.1428222656</ele>
        <time>2015-07-23T09:52:11Z</time>
      </trkpt>
      <trkpt lat="42.87835" lon="0.14362">
        <ele>2075.6235351562</ele>
        <time>2015-07-23T09:52:24Z</time>
      </trkpt>
      <trkpt lat="42.87837" lon="0.14363">
        <ele>2075.6235351562</ele>
        <time>2015-07-23T09:52:47Z</time>
      </trkpt>
      <trkpt lat="42.87832" lon="0.14381">
        <ele>2077.0659179688</ele>
        <time>2015-07-23T09:52:59Z</time>
      </trkpt>
      <trkpt lat="42.87826" lon="0.14402">
        <ele>2078.0270996094</ele>
        <time>2015-07-23T09:53:10Z</time>
      </trkpt>
      <trkpt lat="42.87818" lon="0.14423">
        <ele>2079.4689941406</ele>
        <time>2015-07-23T09:53:23Z</time>
      </trkpt>
      <trkpt lat="42.87815" lon="0.14432">
        <ele>2079.9497070312</ele>
        <time>2015-07-23T09:53:28Z</time>
      </trkpt>
      <trkpt lat="42.87817" lon="0.14454">
        <ele>2082.3530273438</ele>
        <time>2015-07-23T09:53:42Z</time>
      </trkpt>
      <trkpt lat="42.87817" lon="0.14469">
        <ele>2086.1982421875</ele>
        <time>2015-07-23T09:53:57Z</time>
      </trkpt>
      <trkpt lat="42.87818" lon="0.14473">
        <ele>2086.6787109375</ele>
        <time>2015-07-23T09:54:01Z</time>
      </trkpt>
      <trkpt lat="42.87817" lon="0.1448">
        <ele>2089.08203125</ele>
        <time>2015-07-23T09:54:09Z</time>
      </trkpt>
      <trkpt lat="42.87818" lon="0.14489">
        <ele>2090.5239257812</ele>
        <time>2015-07-23T09:54:22Z</time>
      </trkpt>
      <trkpt lat="42.87816" lon="0.145">
        <ele>2091.4853515625</ele>
        <time>2015-07-23T09:54:34Z</time>
      </trkpt>
      <trkpt lat="42.87814" lon="0.1451">
        <ele>2091.9660644531</ele>
        <time>2015-07-23T09:54:47Z</time>
      </trkpt>
      <trkpt lat="42.87813" lon="0.14527">
        <ele>2093.408203125</ele>
        <time>2015-07-23T09:55:04Z</time>
      </trkpt>
      <trkpt lat="42.87813" lon="0.14528">
        <ele>2093.8889160156</ele>
        <time>2015-07-23T09:55:05Z</time>
      </trkpt>
      <trkpt lat="42.87813" lon="0.14543">
        <ele>2092.4470214844</ele>
        <time>2015-07-23T09:55:21Z</time>
      </trkpt>
      <trkpt lat="42.87809" lon="0.14554">
        <ele>2093.408203125</ele>
        <time>2015-07-23T09:55:36Z</time>
      </trkpt>
      <trkpt lat="42.87809" lon="0.14555">
        <ele>2092.4470214844</ele>
        <time>2015-07-23T09:55:39Z</time>
      </trkpt>
      <trkpt lat="42.87805" lon="0.14566">
        <ele>2093.8889160156</ele>
        <time>2015-07-23T09:55:50Z</time>
      </trkpt>
      <trkpt lat="42.87802" lon="0.14578">
        <ele>2095.8115234375</ele>
        <time>2015-07-23T09:56:03Z</time>
      </trkpt>
      <trkpt lat="42.87799" lon="0.14585">
        <ele>2097.2534179688</ele>
        <time>2015-07-23T09:56:17Z</time>
      </trkpt>
      <trkpt lat="42.87791" lon="0.14595">
        <ele>2098.6953125</ele>
        <time>2015-07-23T09:56:31Z</time>
      </trkpt>
      <trkpt lat="42.87785" lon="0.14602">
        <ele>2098.6953125</ele>
        <time>2015-07-23T09:56:46Z</time>
      </trkpt>
      <trkpt lat="42.87783" lon="0.14601">
        <ele>2099.1760253906</ele>
        <time>2015-07-23T09:56:49Z</time>
      </trkpt>
      <trkpt lat="42.87771" lon="0.146">
        <ele>2100.6179199219</ele>
        <time>2015-07-23T09:57:04Z</time>
      </trkpt>
      <trkpt lat="42.87762" lon="0.14602">
        <ele>2099.6567382812</ele>
        <time>2015-07-23T09:57:19Z</time>
      </trkpt>
      <trkpt lat="42.87757" lon="0.14599">
        <ele>2099.1760253906</ele>
        <time>2015-07-23T09:57:34Z</time>
      </trkpt>
      <trkpt lat="42.87749" lon="0.14595">
        <ele>2100.1374511719</ele>
        <time>2015-07-23T09:57:48Z</time>
      </trkpt>
      <trkpt lat="42.87744" lon="0.14598">
        <ele>2101.5793457031</ele>
        <time>2015-07-23T09:58:01Z</time>
      </trkpt>
      <trkpt lat="42.8774" lon="0.14598">
        <ele>2103.501953125</ele>
        <time>2015-07-23T09:58:19Z</time>
      </trkpt>
      <trkpt lat="42.87734" lon="0.14596">
        <ele>2105.4245605469</ele>
        <time>2015-07-23T09:58:33Z</time>
      </trkpt>
      <trkpt lat="42.87727" lon="0.14594">
        <ele>2107.3471679688</ele>
        <time>2015-07-23T09:58:48Z</time>
      </trkpt>
      <trkpt lat="42.87723" lon="0.14595">
        <ele>2109.2700195312</ele>
        <time>2015-07-23T09:59:04Z</time>
      </trkpt>
      <trkpt lat="42.87718" lon="0.14599">
        <ele>2110.7119140625</ele>
        <time>2015-07-23T09:59:18Z</time>
      </trkpt>
      <trkpt lat="42.87712" lon="0.14602">
        <ele>2112.6345214844</ele>
        <time>2015-07-23T09:59:32Z</time>
      </trkpt>
      <trkpt lat="42.87707" lon="0.146">
        <ele>2114.5571289062</ele>
        <time>2015-07-23T09:59:44Z</time>
      </trkpt>
      <trkpt lat="42.877" lon="0.14609">
        <ele>2115.5185546875</ele>
        <time>2015-07-23T09:59:58Z</time>
      </trkpt>
      <trkpt lat="42.87692" lon="0.14612">
        <ele>2118.8830566406</ele>
        <time>2015-07-23T10:00:08Z</time>
      </trkpt>
      <trkpt lat="42.87689" lon="0.14614">
        <ele>2118.40234375</ele>
        <time>2015-07-23T10:00:13Z</time>
      </trkpt>
      <trkpt lat="42.87686" lon="0.14618">
        <ele>2118.8830566406</ele>
        <time>2015-07-23T10:00:17Z</time>
      </trkpt>
      <trkpt lat="42.87681" lon="0.14627">
        <ele>2119.8442382812</ele>
        <time>2015-07-23T10:00:25Z</time>
      </trkpt>
      <trkpt lat="42.87671" lon="0.14637">
        <ele>2120.3249511719</ele>
        <time>2015-07-23T10:00:35Z</time>
      </trkpt>
      <trkpt lat="42.87669" lon="0.14644">
        <ele>2119.3637695312</ele>
        <time>2015-07-23T10:00:40Z</time>
      </trkpt>
      <trkpt lat="42.87667" lon="0.14652">
        <ele>2119.3637695312</ele>
        <time>2015-07-23T10:00:46Z</time>
      </trkpt>
      <trkpt lat="42.87664" lon="0.14657">
        <ele>2119.3637695312</ele>
        <time>2015-07-23T10:00:50Z</time>
      </trkpt>
      <trkpt lat="42.87655" lon="0.14676">
        <ele>2119.3637695312</ele>
        <time>2015-07-23T10:01:05Z</time>
      </trkpt>
      <trkpt lat="42.87652" lon="0.14683">
        <ele>2119.8442382812</ele>
        <time>2015-07-23T10:01:10Z</time>
      </trkpt>
      <trkpt lat="42.87651" lon="0.14686">
        <ele>2119.3637695312</ele>
        <time>2015-07-23T10:01:12Z</time>
      </trkpt>
      <trkpt lat="42.87647" lon="0.147">
        <ele>2119.8442382812</ele>
        <time>2015-07-23T10:01:21Z</time>
      </trkpt>
      <trkpt lat="42.87641" lon="0.14715">
        <ele>2121.2861328125</ele>
        <time>2015-07-23T10:01:37Z</time>
      </trkpt>
      <trkpt lat="42.87632" lon="0.14726">
        <ele>2122.2475585938</ele>
        <time>2015-07-23T10:01:52Z</time>
      </trkpt>
      <trkpt lat="42.8763" lon="0.14731">
        <ele>2121.7668457031</ele>
        <time>2015-07-23T10:01:56Z</time>
      </trkpt>
      <trkpt lat="42.87624" lon="0.14747">
        <ele>2122.2475585938</ele>
        <time>2015-07-23T10:02:11Z</time>
      </trkpt>
      <trkpt lat="42.87623" lon="0.14753">
        <ele>2122.2475585938</ele>
        <time>2015-07-23T10:02:19Z</time>
      </trkpt>
      <trkpt lat="42.87623" lon="0.14758">
        <ele>2122.7282714844</ele>
        <time>2015-07-23T10:02:23Z</time>
      </trkpt>
      <trkpt lat="42.87615" lon="0.14773">
        <ele>2123.208984375</ele>
        <time>2015-07-23T10:02:38Z</time>
      </trkpt>
      <trkpt lat="42.87606" lon="0.14787">
        <ele>2125.1315917969</ele>
        <time>2015-07-23T10:02:53Z</time>
      </trkpt>
      <trkpt lat="42.876" lon="0.14793">
        <ele>2125.1315917969</ele>
        <time>2015-07-23T10:03:01Z</time>
      </trkpt>
      <trkpt lat="42.87597" lon="0.14799">
        <ele>2124.6511230469</ele>
        <time>2015-07-23T10:03:07Z</time>
      </trkpt>
      <trkpt lat="42.87593" lon="0.14818">
        <ele>2126.5737304688</ele>
        <time>2015-07-23T10:03:21Z</time>
      </trkpt>
      <trkpt lat="42.87591" lon="0.1482">
        <ele>2126.0930175781</ele>
        <time>2015-07-23T10:03:24Z</time>
      </trkpt>
      <trkpt lat="42.8758" lon="0.14836">
        <ele>2128.4963378906</ele>
        <time>2015-07-23T10:03:42Z</time>
      </trkpt>
      <trkpt lat="42.87571" lon="0.14844">
        <ele>2128.015625</ele>
        <time>2015-07-23T10:03:53Z</time>
      </trkpt>
      <trkpt lat="42.87566" lon="0.14857">
        <ele>2129.4575195312</ele>
        <time>2015-07-23T10:04:07Z</time>
      </trkpt>
      <trkpt lat="42.87564" lon="0.14867">
        <ele>2130.4189453125</ele>
        <time>2015-07-23T10:04:22Z</time>
      </trkpt>
      <trkpt lat="42.87557" lon="0.14879">
        <ele>2130.8996582031</ele>
        <time>2015-07-23T10:04:38Z</time>
      </trkpt>
      <trkpt lat="42.87556" lon="0.14883">
        <ele>2132.8220214844</ele>
        <time>2015-07-23T10:04:43Z</time>
      </trkpt>
      <trkpt lat="42.87548" lon="0.14893">
        <ele>2133.7834472656</ele>
        <time>2015-07-23T10:04:57Z</time>
      </trkpt>
      <trkpt lat="42.87542" lon="0.14907">
        <ele>2136.6672363281</ele>
        <time>2015-07-23T10:05:15Z</time>
      </trkpt>
      <trkpt lat="42.87539" lon="0.14922">
        <ele>2137.6286621094</ele>
        <time>2015-07-23T10:05:30Z</time>
      </trkpt>
      <trkpt lat="42.87535" lon="0.14942">
        <ele>2138.5900878906</ele>
        <time>2015-07-23T10:05:47Z</time>
      </trkpt>
      <trkpt lat="42.87532" lon="0.14967">
        <ele>2139.5512695312</ele>
        <time>2015-07-23T10:06:07Z</time>
      </trkpt>
      <trkpt lat="42.87529" lon="0.1499">
        <ele>2142.435546875</ele>
        <time>2015-07-23T10:06:25Z</time>
      </trkpt>
      <trkpt lat="42.87527" lon="0.14997">
        <ele>2143.8774414062</ele>
        <time>2015-07-23T10:06:41Z</time>
      </trkpt>
      <trkpt lat="42.87526" lon="0.15016">
        <ele>2144.3579101562</ele>
        <time>2015-07-23T10:06:56Z</time>
      </trkpt>
      <trkpt lat="42.87525" lon="0.15022">
        <ele>2145.8000488281</ele>
        <time>2015-07-23T10:07:01Z</time>
      </trkpt>
      <trkpt lat="42.87524" lon="0.15042">
        <ele>2145.8000488281</ele>
        <time>2015-07-23T10:07:18Z</time>
      </trkpt>
      <trkpt lat="42.87523" lon="0.15062">
        <ele>2147.2419433594</ele>
        <time>2015-07-23T10:07:34Z</time>
      </trkpt>
      <trkpt lat="42.8752" lon="0.1509">
        <ele>2148.203125</ele>
        <time>2015-07-23T10:07:52Z</time>
      </trkpt>
      <trkpt lat="42.87515" lon="0.15108">
        <ele>2149.6452636719</ele>
        <time>2015-07-23T10:08:08Z</time>
      </trkpt>
      <trkpt lat="42.87517" lon="0.15109">
        <ele>2149.6452636719</ele>
        <time>2015-07-23T10:08:14Z</time>
      </trkpt>
      <trkpt lat="42.87517" lon="0.1513">
        <ele>2150.1259765625</ele>
        <time>2015-07-23T10:08:31Z</time>
      </trkpt>
      <trkpt lat="42.87517" lon="0.15146">
        <ele>2151.5678710938</ele>
        <time>2015-07-23T10:08:45Z</time>
      </trkpt>
      <trkpt lat="42.87518" lon="0.15168">
        <ele>2153.4904785156</ele>
        <time>2015-07-23T10:09:03Z</time>
      </trkpt>
      <trkpt lat="42.8752" lon="0.1519">
        <ele>2154.9323730469</ele>
        <time>2015-07-23T10:09:20Z</time>
      </trkpt>
      <trkpt lat="42.87513" lon="0.15211">
        <ele>2157.8166503906</ele>
        <time>2015-07-23T10:09:38Z</time>
      </trkpt>
      <trkpt lat="42.87512" lon="0.15212">
        <ele>2157.3359375</ele>
        <time>2015-07-23T10:09:46Z</time>
      </trkpt>
      <trkpt lat="42.87507" lon="0.15211">
        <ele>2157.3359375</ele>
        <time>2015-07-23T10:09:51Z</time>
      </trkpt>
      <trkpt lat="42.87489" lon="0.15218">
        <ele>2155.4130859375</ele>
        <time>2015-07-23T10:10:09Z</time>
      </trkpt>
      <trkpt lat="42.87481" lon="0.15219">
        <ele>2157.8166503906</ele>
        <time>2015-07-23T10:10:25Z</time>
      </trkpt>
      <trkpt lat="42.87476" lon="0.15221">
        <ele>2158.7778320312</ele>
        <time>2015-07-23T10:10:30Z</time>
      </trkpt>
      <trkpt lat="42.87466" lon="0.15227">
        <ele>2161.1811523438</ele>
        <time>2015-07-23T10:10:47Z</time>
      </trkpt>
      <trkpt lat="42.87462" lon="0.1523">
        <ele>2162.623046875</ele>
        <time>2015-07-23T10:10:53Z</time>
      </trkpt>
      <trkpt lat="42.87455" lon="0.15236">
        <ele>2165.5070800781</ele>
        <time>2015-07-23T10:11:08Z</time>
      </trkpt>
      <trkpt lat="42.87452" lon="0.15241">
        <ele>2165.5070800781</ele>
        <time>2015-07-23T10:11:19Z</time>
      </trkpt>
      <trkpt lat="42.87446" lon="0.15244">
        <ele>2167.91015625</ele>
        <time>2015-07-23T10:11:35Z</time>
      </trkpt>
      <trkpt lat="42.87437" lon="0.15248">
        <ele>2171.2746582031</ele>
        <time>2015-07-23T10:11:52Z</time>
      </trkpt>
      <trkpt lat="42.87428" lon="0.15252">
        <ele>2172.7170410156</ele>
        <time>2015-07-23T10:12:10Z</time>
      </trkpt>
      <trkpt lat="42.87421" lon="0.15259">
        <ele>2176.0815429688</ele>
        <time>2015-07-23T10:12:27Z</time>
      </trkpt>
      <trkpt lat="42.87415" lon="0.15266">
        <ele>2178.9653320312</ele>
        <time>2015-07-23T10:12:45Z</time>
      </trkpt>
      <trkpt lat="42.87409" lon="0.15274">
        <ele>2181.3686523438</ele>
        <time>2015-07-23T10:13:03Z</time>
      </trkpt>
      <trkpt lat="42.87403" lon="0.15284">
        <ele>2183.7719726562</ele>
        <time>2015-07-23T10:13:23Z</time>
      </trkpt>
      <trkpt lat="42.87396" lon="0.15293">
        <ele>2186.6557617188</ele>
        <time>2015-07-23T10:13:41Z</time>
      </trkpt>
      <trkpt lat="42.8739" lon="0.15301">
        <ele>2190.0207519531</ele>
        <time>2015-07-23T10:13:57Z</time>
      </trkpt>
      <trkpt lat="42.87385" lon="0.15309">
        <ele>2192.4240722656</ele>
        <time>2015-07-23T10:14:16Z</time>
      </trkpt>
      <trkpt lat="42.8738" lon="0.15318">
        <ele>2192.9045410156</ele>
        <time>2015-07-23T10:14:44Z</time>
      </trkpt>
      <trkpt lat="42.87374" lon="0.15327">
        <ele>2196.2692871094</ele>
        <time>2015-07-23T10:14:59Z</time>
      </trkpt>
      <trkpt lat="42.8737" lon="0.15333">
        <ele>2198.6723632812</ele>
        <time>2015-07-23T10:15:12Z</time>
      </trkpt>
      <trkpt lat="42.87368" lon="0.1534">
        <ele>2201.5563964844</ele>
        <time>2015-07-23T10:15:25Z</time>
      </trkpt>
      <trkpt lat="42.87366" lon="0.15348">
        <ele>2202.9982910156</ele>
        <time>2015-07-23T10:15:39Z</time>
      </trkpt>
      <trkpt lat="42.87361" lon="0.15351">
        <ele>2204.4404296875</ele>
        <time>2015-07-23T10:15:51Z</time>
      </trkpt>
      <trkpt lat="42.87354" lon="0.15352">
        <ele>2207.3244628906</ele>
        <time>2015-07-23T10:16:05Z</time>
      </trkpt>
      <trkpt lat="42.8735" lon="0.15356">
        <ele>2208.2856445312</ele>
        <time>2015-07-23T10:16:10Z</time>
      </trkpt>
      <trkpt lat="42.87348" lon="0.15356">
        <ele>2209.7275390625</ele>
        <time>2015-07-23T10:16:25Z</time>
      </trkpt>
      <trkpt lat="42.87346" lon="0.15358">
        <ele>2211.650390625</ele>
        <time>2015-07-23T10:17:01Z</time>
      </trkpt>
      <trkpt lat="42.87345" lon="0.15361">
        <ele>2213.0922851562</ele>
        <time>2015-07-23T10:17:04Z</time>
      </trkpt>
      <trkpt lat="42.8734" lon="0.15372">
        <ele>2215.4956054688</ele>
        <time>2015-07-23T10:17:18Z</time>
      </trkpt>
      <trkpt lat="42.87336" lon="0.15374">
        <ele>2217.8986816406</ele>
        <time>2015-07-23T10:17:30Z</time>
      </trkpt>
      <trkpt lat="42.87334" lon="0.15375">
        <ele>2220.3022460938</ele>
        <time>2015-07-23T10:17:47Z</time>
      </trkpt>
      <trkpt lat="42.87327" lon="0.15381">
        <ele>2222.7055664062</ele>
        <time>2015-07-23T10:17:58Z</time>
      </trkpt>
      <trkpt lat="42.87325" lon="0.15391">
        <ele>2225.1086425781</ele>
        <time>2015-07-23T10:18:23Z</time>
      </trkpt>
      <trkpt lat="42.87322" lon="0.15392">
        <ele>2226.55078125</ele>
        <time>2015-07-23T10:18:35Z</time>
      </trkpt>
      <trkpt lat="42.8732" lon="0.15402">
        <ele>2227.5119628906</ele>
        <time>2015-07-23T10:18:48Z</time>
      </trkpt>
      <trkpt lat="42.87321" lon="0.15406">
        <ele>2227.5119628906</ele>
        <time>2015-07-23T10:18:51Z</time>
      </trkpt>
      <trkpt lat="42.87316" lon="0.15412">
        <ele>2228.9538574219</ele>
        <time>2015-07-23T10:19:03Z</time>
      </trkpt>
      <trkpt lat="42.87317" lon="0.15418">
        <ele>2231.3571777344</ele>
        <time>2015-07-23T10:19:14Z</time>
      </trkpt>
      <trkpt lat="42.87316" lon="0.15424">
        <ele>2232.3186035156</ele>
        <time>2015-07-23T10:19:25Z</time>
      </trkpt>
      <trkpt lat="42.87317" lon="0.15428">
        <ele>2234.2412109375</ele>
        <time>2015-07-23T10:19:38Z</time>
      </trkpt>
      <trkpt lat="42.87313" lon="0.15439">
        <ele>2237.1252441406</ele>
        <time>2015-07-23T10:19:58Z</time>
      </trkpt>
      <trkpt lat="42.87311" lon="0.15441">
        <ele>2237.1252441406</ele>
        <time>2015-07-23T10:20:11Z</time>
      </trkpt>
      <trkpt lat="42.87309" lon="0.1545">
        <ele>2239.5285644531</ele>
        <time>2015-07-23T10:20:26Z</time>
      </trkpt>
      <trkpt lat="42.87312" lon="0.15458">
        <ele>2241.451171875</ele>
        <time>2015-07-23T10:20:39Z</time>
      </trkpt>
      <trkpt lat="42.87307" lon="0.15461">
        <ele>2242.8930664062</ele>
        <time>2015-07-23T10:20:50Z</time>
      </trkpt>
      <trkpt lat="42.873" lon="0.1547">
        <ele>2246.2578125</ele>
        <time>2015-07-23T10:21:03Z</time>
      </trkpt>
      <trkpt lat="42.87298" lon="0.15459">
        <ele>2248.1801757812</ele>
        <time>2015-07-23T10:21:16Z</time>
      </trkpt>
      <trkpt lat="42.87295" lon="0.15473">
        <ele>2249.6223144531</ele>
        <time>2015-07-23T10:21:31Z</time>
      </trkpt>
      <trkpt lat="42.87296" lon="0.15483">
        <ele>2252.9870605469</ele>
        <time>2015-07-23T10:21:47Z</time>
      </trkpt>
      <trkpt lat="42.87289" lon="0.15482">
        <ele>2253.9484863281</ele>
        <time>2015-07-23T10:21:56Z</time>
      </trkpt>
      <trkpt lat="42.87283" lon="0.15485">
        <ele>2256.8322753906</ele>
        <time>2015-07-23T10:22:13Z</time>
      </trkpt>
      <trkpt lat="42.87283" lon="0.1549">
        <ele>2258.2741699219</ele>
        <time>2015-07-23T10:22:26Z</time>
      </trkpt>
      <trkpt lat="42.87282" lon="0.15497">
        <ele>2259.7160644531</ele>
        <time>2015-07-23T10:22:39Z</time>
      </trkpt>
      <trkpt lat="42.87273" lon="0.15497">
        <ele>2260.6774902344</ele>
        <time>2015-07-23T10:22:55Z</time>
      </trkpt>
      <trkpt lat="42.87273" lon="0.15506">
        <ele>2264.0419921875</ele>
        <time>2015-07-23T10:23:06Z</time>
      </trkpt>
      <trkpt lat="42.8727" lon="0.15516">
        <ele>2265.9645996094</ele>
        <time>2015-07-23T10:23:21Z</time>
      </trkpt>
      <trkpt lat="42.87266" lon="0.15526">
        <ele>2268.3681640625</ele>
        <time>2015-07-23T10:23:36Z</time>
      </trkpt>
      <trkpt lat="42.8726" lon="0.15538">
        <ele>2270.2907714844</ele>
        <time>2015-07-23T10:23:49Z</time>
      </trkpt>
      <trkpt lat="42.87263" lon="0.1555">
        <ele>2271.7326660156</ele>
        <time>2015-07-23T10:24:04Z</time>
      </trkpt>
      <trkpt lat="42.87268" lon="0.15555">
        <ele>2273.6552734375</ele>
        <time>2015-07-23T10:24:18Z</time>
      </trkpt>
      <trkpt lat="42.87263" lon="0.1556">
        <ele>2274.1359863281</ele>
        <time>2015-07-23T10:24:33Z</time>
      </trkpt>
      <trkpt lat="42.87254" lon="0.15563">
        <ele>2274.6166992188</ele>
        <time>2015-07-23T10:24:57Z</time>
      </trkpt>
      <trkpt lat="42.8725" lon="0.15573">
        <ele>2276.5393066406</ele>
        <time>2015-07-23T10:25:12Z</time>
      </trkpt>
      <trkpt lat="42.87245" lon="0.15589">
        <ele>2278.9423828125</ele>
        <time>2015-07-23T10:25:31Z</time>
      </trkpt>
      <trkpt lat="42.87235" lon="0.15604">
        <ele>2281.8264160156</ele>
        <time>2015-07-23T10:25:50Z</time>
      </trkpt>
      <trkpt lat="42.8723" lon="0.15615">
        <ele>2285.1911621094</ele>
        <time>2015-07-23T10:26:05Z</time>
      </trkpt>
      <trkpt lat="42.87229" lon="0.1562">
        <ele>2286.1525878906</ele>
        <time>2015-07-23T10:26:10Z</time>
      </trkpt>
      <trkpt lat="42.87228" lon="0.15638">
        <ele>2289.0363769531</ele>
        <time>2015-07-23T10:26:27Z</time>
      </trkpt>
      <trkpt lat="42.87223" lon="0.15646">
        <ele>2289.5170898438</ele>
        <time>2015-07-23T10:26:35Z</time>
      </trkpt>
      <trkpt lat="42.87216" lon="0.15649">
        <ele>2289.9978027344</ele>
        <time>2015-07-23T10:26:45Z</time>
      </trkpt>
      <trkpt lat="42.87207" lon="0.15632">
        <ele>2292.4011230469</ele>
        <time>2015-07-23T10:27:03Z</time>
      </trkpt>
      <trkpt lat="42.87201" lon="0.15623">
        <ele>2295.2849121094</ele>
        <time>2015-07-23T10:27:15Z</time>
      </trkpt>
      <trkpt lat="42.87197" lon="0.15619">
        <ele>2296.7268066406</ele>
        <time>2015-07-23T10:27:26Z</time>
      </trkpt>
      <trkpt lat="42.87195" lon="0.15621">
        <ele>2297.2075195312</ele>
        <time>2015-07-23T10:27:49Z</time>
      </trkpt>
      <trkpt lat="42.87188" lon="0.15635">
        <ele>2300.572265625</ele>
        <time>2015-07-23T10:28:07Z</time>
      </trkpt>
      <trkpt lat="42.87186" lon="0.15638">
        <ele>2300.572265625</ele>
        <time>2015-07-23T10:28:09Z</time>
      </trkpt>
      <trkpt lat="42.87181" lon="0.15654">
        <ele>2302.9755859375</ele>
        <time>2015-07-23T10:28:27Z</time>
      </trkpt>
      <trkpt lat="42.87179" lon="0.15669">
        <ele>2305.859375</ele>
        <time>2015-07-23T10:28:44Z</time>
      </trkpt>
      <trkpt lat="42.87178" lon="0.1568">
        <ele>2308.2626953125</ele>
        <time>2015-07-23T10:28:59Z</time>
      </trkpt>
      <trkpt lat="42.8718" lon="0.15685">
        <ele>2310.1853027344</ele>
        <time>2015-07-23T10:29:13Z</time>
      </trkpt>
      <trkpt lat="42.87173" lon="0.157">
        <ele>2313.0693359375</ele>
        <time>2015-07-23T10:29:32Z</time>
      </trkpt>
      <trkpt lat="42.8717" lon="0.15706">
        <ele>2314.0305175781</ele>
        <time>2015-07-23T10:29:43Z</time>
      </trkpt>
      <trkpt lat="42.87165" lon="0.15716">
        <ele>2315.953125</ele>
        <time>2015-07-23T10:29:57Z</time>
      </trkpt>
      <trkpt lat="42.87162" lon="0.15723">
        <ele>2319.3181152344</ele>
        <time>2015-07-23T10:30:10Z</time>
      </trkpt>
      <trkpt lat="42.87156" lon="0.15734">
        <ele>2320.279296875</ele>
        <time>2015-07-23T10:30:24Z</time>
      </trkpt>
      <trkpt lat="42.87151" lon="0.15747">
        <ele>2323.1633300781</ele>
        <time>2015-07-23T10:30:42Z</time>
      </trkpt>
      <trkpt lat="42.87146" lon="0.15756">
        <ele>2325.0856933594</ele>
        <time>2015-07-23T10:30:56Z</time>
      </trkpt>
      <trkpt lat="42.87139" lon="0.15763">
        <ele>2326.0471191406</ele>
        <time>2015-07-23T10:31:14Z</time>
      </trkpt>
      <trkpt lat="42.87126" lon="0.15779">
        <ele>2327.4890136719</ele>
        <time>2015-07-23T10:31:36Z</time>
      </trkpt>
      <trkpt lat="42.87118" lon="0.15793">
        <ele>2327.9697265625</ele>
        <time>2015-07-23T10:31:52Z</time>
      </trkpt>
      <trkpt lat="42.87107" lon="0.1581">
        <ele>2330.373046875</ele>
        <time>2015-07-23T10:32:10Z</time>
      </trkpt>
      <trkpt lat="42.87099" lon="0.15829">
        <ele>2331.3342285156</ele>
        <time>2015-07-23T10:32:28Z</time>
      </trkpt>
      <trkpt lat="42.87097" lon="0.15833">
        <ele>2332.2958984375</ele>
        <time>2015-07-23T10:32:33Z</time>
      </trkpt>
      <trkpt lat="42.87093" lon="0.15843">
        <ele>2333.2570800781</ele>
        <time>2015-07-23T10:32:42Z</time>
      </trkpt>
      <trkpt lat="42.87091" lon="0.15851">
        <ele>2335.1796875</ele>
        <time>2015-07-23T10:32:50Z</time>
      </trkpt>
      <trkpt lat="42.87088" lon="0.15865">
        <ele>2336.1411132812</ele>
        <time>2015-07-23T10:33:06Z</time>
      </trkpt>
      <trkpt lat="42.87084" lon="0.15882">
        <ele>2338.5444335938</ele>
        <time>2015-07-23T10:33:22Z</time>
      </trkpt>
      <trkpt lat="42.87083" lon="0.15883">
        <ele>2339.986328125</ele>
        <time>2015-07-23T10:33:25Z</time>
      </trkpt>
      <trkpt lat="42.87078" lon="0.15891">
        <ele>2340.466796875</ele>
        <time>2015-07-23T10:33:35Z</time>
      </trkpt>
      <trkpt lat="42.87074" lon="0.15908">
        <ele>2343.3508300781</ele>
        <time>2015-07-23T10:33:51Z</time>
      </trkpt>
      <trkpt lat="42.87068" lon="0.15918">
        <ele>2346.2348632812</ele>
        <time>2015-07-23T10:34:05Z</time>
      </trkpt>
      <trkpt lat="42.87066" lon="0.1592">
        <ele>2346.7153320312</ele>
        <time>2015-07-23T10:34:20Z</time>
      </trkpt>
      <trkpt lat="42.87057" lon="0.15929">
        <ele>2347.6767578125</ele>
        <time>2015-07-23T10:34:33Z</time>
      </trkpt>
      <trkpt lat="42.87055" lon="0.15933">
        <ele>2347.1960449219</ele>
        <time>2015-07-23T10:34:37Z</time>
      </trkpt>
      <trkpt lat="42.87048" lon="0.15945">
        <ele>2350.5607910156</ele>
        <time>2015-07-23T10:34:50Z</time>
      </trkpt>
      <trkpt lat="42.87044" lon="0.15953">
        <ele>2352.0026855469</ele>
        <time>2015-07-23T10:35:01Z</time>
      </trkpt>
      <trkpt lat="42.87034" lon="0.15969">
        <ele>2353.4448242188</ele>
        <time>2015-07-23T10:35:17Z</time>
      </trkpt>
      <trkpt lat="42.87025" lon="0.15988">
        <ele>2355.3674316406</ele>
        <time>2015-07-23T10:35:33Z</time>
      </trkpt>
      <trkpt lat="42.87024" lon="0.16006">
        <ele>2357.2900390625</ele>
        <time>2015-07-23T10:35:48Z</time>
      </trkpt>
      <trkpt lat="42.87023" lon="0.16018">
        <ele>2358.2512207031</ele>
        <time>2015-07-23T10:36:02Z</time>
      </trkpt>
      <trkpt lat="42.87017" lon="0.16028">
        <ele>2360.173828125</ele>
        <time>2015-07-23T10:36:19Z</time>
      </trkpt>
      <trkpt lat="42.87011" lon="0.16036">
        <ele>2362.0964355469</ele>
        <time>2015-07-23T10:36:31Z</time>
      </trkpt>
      <trkpt lat="42.8701" lon="0.16037">
        <ele>2363.0578613281</ele>
        <time>2015-07-23T10:36:33Z</time>
      </trkpt>
      <trkpt lat="42.87003" lon="0.16036">
        <ele>2364.5</ele>
        <time>2015-07-23T10:36:46Z</time>
      </trkpt>
      <trkpt lat="42.86994" lon="0.16033">
        <ele>2364.9807128906</ele>
        <time>2015-07-23T10:37:01Z</time>
      </trkpt>
      <trkpt lat="42.86986" lon="0.16029">
        <ele>2365.4614257812</ele>
        <time>2015-07-23T10:37:15Z</time>
      </trkpt>
      <trkpt lat="42.86985" lon="0.16032">
        <ele>2365.9418945312</ele>
        <time>2015-07-23T10:37:34Z</time>
      </trkpt>
      <trkpt lat="42.86987" lon="0.16031">
        <ele>2366.4226074219</ele>
        <time>2015-07-23T10:37:58Z</time>
      </trkpt>
      <trkpt lat="42.86987" lon="0.1603">
        <ele>2366.9033203125</ele>
        <time>2015-07-23T10:38:32Z</time>
      </trkpt>
      <trkpt lat="42.86986" lon="0.16029">
        <ele>2365.9418945312</ele>
        <time>2015-07-23T10:38:49Z</time>
      </trkpt>
      <trkpt lat="42.86987" lon="0.16029">
        <ele>2365.9418945312</ele>
        <time>2015-07-23T10:40:03Z</time>
      </trkpt>
      <trkpt lat="42.86985" lon="0.1603">
        <ele>2369.306640625</ele>
        <time>2015-07-23T10:44:59Z</time>
      </trkpt>
      <trkpt lat="42.86985" lon="0.16031">
        <ele>2371.2290039062</ele>
        <time>2015-07-23T10:47:25Z</time>
      </trkpt>
      <trkpt lat="42.86987" lon="0.1603">
        <ele>2368.3452148438</ele>
        <time>2015-07-23T10:48:52Z</time>
      </trkpt>
      <trkpt lat="42.86985" lon="0.1603">
        <ele>2369.306640625</ele>
        <time>2015-07-23T10:53:11Z</time>
      </trkpt>
      <trkpt lat="42.86985" lon="0.1603">
        <ele>2369.787109375</ele>
        <time>2015-07-23T10:56:51Z</time>
      </trkpt>
      <trkpt lat="42.86988" lon="0.16029">
        <ele>2372.6711425781</ele>
        <time>2015-07-23T11:03:46Z</time>
      </trkpt>
      <trkpt lat="42.8699" lon="0.16029">
        <ele>2372.1904296875</ele>
        <time>2015-07-23T11:05:48Z</time>
      </trkpt>
      <trkpt lat="42.86987" lon="0.16025">
        <ele>2373.1518554688</ele>
        <time>2015-07-23T11:06:47Z</time>
      </trkpt>
      <trkpt lat="42.86986" lon="0.16028">
        <ele>2376.5163574219</ele>
        <time>2015-07-23T11:07:40Z</time>
      </trkpt>
      <trkpt lat="42.86986" lon="0.16028">
        <ele>2373.1518554688</ele>
        <time>2015-07-23T11:07:41Z</time>
      </trkpt>
      <trkpt lat="42.86985" lon="0.16027">
        <ele>2374.1130371094</ele>
        <time>2015-07-23T11:08:21Z</time>
      </trkpt>
      <trkpt lat="42.86987" lon="0.16028">
        <ele>2373.1518554688</ele>
        <time>2015-07-23T11:08:43Z</time>
      </trkpt>
      <trkpt lat="42.86988" lon="0.16028">
        <ele>2372.1904296875</ele>
        <time>2015-07-23T11:08:59Z</time>
      </trkpt>
      <trkpt lat="42.86988" lon="0.16028">
        <ele>2373.6323242188</ele>
        <time>2015-07-23T11:09:01Z</time>
      </trkpt>
      <trkpt lat="42.8699" lon="0.16034">
        <ele>2372.1904296875</ele>
        <time>2015-07-23T11:09:14Z</time>
      </trkpt>
      <trkpt lat="42.86994" lon="0.16048">
        <ele>2374.1130371094</ele>
        <time>2015-07-23T11:09:30Z</time>
      </trkpt>
      <trkpt lat="42.86992" lon="0.16053">
        <ele>2376.5163574219</ele>
        <time>2015-07-23T11:09:43Z</time>
      </trkpt>
      <trkpt lat="42.86988" lon="0.16057">
        <ele>2379.4001464844</ele>
        <time>2015-07-23T11:09:58Z</time>
      </trkpt>
      <trkpt lat="42.86987" lon="0.16065">
        <ele>2380.3618164062</ele>
        <time>2015-07-23T11:10:12Z</time>
      </trkpt>
      <trkpt lat="42.86987" lon="0.16066">
        <ele>2381.8037109375</ele>
        <time>2015-07-23T11:10:31Z</time>
      </trkpt>
      <trkpt lat="42.86979" lon="0.16068">
        <ele>2383.7263183594</ele>
        <time>2015-07-23T11:10:46Z</time>
      </trkpt>
      <trkpt lat="42.86974" lon="0.16072">
        <ele>2385.1682128906</ele>
        <time>2015-07-23T11:11:03Z</time>
      </trkpt>
      <trkpt lat="42.86969" lon="0.16073">
        <ele>2387.0908203125</ele>
        <time>2015-07-23T11:11:17Z</time>
      </trkpt>
      <trkpt lat="42.86963" lon="0.16074">
        <ele>2389.494140625</ele>
        <time>2015-07-23T11:11:31Z</time>
      </trkpt>
      <trkpt lat="42.86957" lon="0.16077">
        <ele>2391.8974609375</ele>
        <time>2015-07-23T11:11:46Z</time>
      </trkpt>
      <trkpt lat="42.86951" lon="0.16089">
        <ele>2395.2619628906</ele>
        <time>2015-07-23T11:12:03Z</time>
      </trkpt>
      <trkpt lat="42.86951" lon="0.1609">
        <ele>2395.2619628906</ele>
        <time>2015-07-23T11:12:04Z</time>
      </trkpt>
      <trkpt lat="42.86948" lon="0.16104">
        <ele>2398.1459960938</ele>
        <time>2015-07-23T11:12:21Z</time>
      </trkpt>
      <trkpt lat="42.86943" lon="0.1612">
        <ele>2400.5493164062</ele>
        <time>2015-07-23T11:12:39Z</time>
      </trkpt>
      <trkpt lat="42.86942" lon="0.16124">
        <ele>2401.9912109375</ele>
        <time>2015-07-23T11:12:44Z</time>
      </trkpt>
      <trkpt lat="42.86942" lon="0.16134">
        <ele>2404.8752441406</ele>
        <time>2015-07-23T11:12:55Z</time>
      </trkpt>
      <trkpt lat="42.86942" lon="0.16141">
        <ele>2405.3559570312</ele>
        <time>2015-07-23T11:13:11Z</time>
      </trkpt>
      <trkpt lat="42.86941" lon="0.1615">
        <ele>2406.7978515625</ele>
        <time>2015-07-23T11:13:24Z</time>
      </trkpt>
      <trkpt lat="42.86937" lon="0.16153">
        <ele>2409.201171875</ele>
        <time>2015-07-23T11:13:38Z</time>
      </trkpt>
      <trkpt lat="42.86931" lon="0.16158">
        <ele>2412.0852050781</ele>
        <time>2015-07-23T11:13:51Z</time>
      </trkpt>
      <trkpt lat="42.86929" lon="0.16166">
        <ele>2414.9692382812</ele>
        <time>2015-07-23T11:14:05Z</time>
      </trkpt>
      <trkpt lat="42.86924" lon="0.16173">
        <ele>2418.3337402344</ele>
        <time>2015-07-23T11:14:19Z</time>
      </trkpt>
      <trkpt lat="42.86924" lon="0.16172">
        <ele>2418.3337402344</ele>
        <time>2015-07-23T11:14:20Z</time>
      </trkpt>
      <trkpt lat="42.86922" lon="0.16174">
        <ele>2418.814453125</ele>
        <time>2015-07-23T11:14:26Z</time>
      </trkpt>
      <trkpt lat="42.86918" lon="0.16176">
        <ele>2421.6982421875</ele>
        <time>2015-07-23T11:14:35Z</time>
      </trkpt>
      <trkpt lat="42.86914" lon="0.16181">
        <ele>2422.1789550781</ele>
        <time>2015-07-23T11:14:51Z</time>
      </trkpt>
      <trkpt lat="42.86908" lon="0.16189">
        <ele>2425.5434570312</ele>
        <time>2015-07-23T11:15:03Z</time>
      </trkpt>
      <trkpt lat="42.86901" lon="0.16195">
        <ele>2426.5048828125</ele>
        <time>2015-07-23T11:15:24Z</time>
      </trkpt>
      <trkpt lat="42.86897" lon="0.16203">
        <ele>2428.908203125</ele>
        <time>2015-07-23T11:15:41Z</time>
      </trkpt>
      <trkpt lat="42.86895" lon="0.16221">
        <ele>2431.7922363281</ele>
        <time>2015-07-23T11:16:01Z</time>
      </trkpt>
      <trkpt lat="42.86896" lon="0.16239">
        <ele>2433.2341308594</ele>
        <time>2015-07-23T11:16:22Z</time>
      </trkpt>
      <trkpt lat="42.86897" lon="0.16255">
        <ele>2434.6762695312</ele>
        <time>2015-07-23T11:16:40Z</time>
      </trkpt>
      <trkpt lat="42.86898" lon="0.16274">
        <ele>2436.1181640625</ele>
        <time>2015-07-23T11:17:00Z</time>
      </trkpt>
      <trkpt lat="42.86896" lon="0.16293">
        <ele>2437.0793457031</ele>
        <time>2015-07-23T11:17:21Z</time>
      </trkpt>
      <trkpt lat="42.86896" lon="0.16305">
        <ele>2439.001953125</ele>
        <time>2015-07-23T11:17:34Z</time>
      </trkpt>
      <trkpt lat="42.86894" lon="0.16319">
        <ele>2441.8859863281</ele>
        <time>2015-07-23T11:17:49Z</time>
      </trkpt>
      <trkpt lat="42.86891" lon="0.1634">
        <ele>2443.3278808594</ele>
        <time>2015-07-23T11:18:09Z</time>
      </trkpt>
      <trkpt lat="42.86889" lon="0.16353">
        <ele>2445.7314453125</ele>
        <time>2015-07-23T11:18:22Z</time>
      </trkpt>
      <trkpt lat="42.86886" lon="0.16366">
        <ele>2448.1345214844</ele>
        <time>2015-07-23T11:18:37Z</time>
      </trkpt>
      <trkpt lat="42.86883" lon="0.16376">
        <ele>2450.0573730469</ele>
        <time>2015-07-23T11:18:51Z</time>
      </trkpt>
      <trkpt lat="42.86884" lon="0.16389">
        <ele>2452.4604492188</ele>
        <time>2015-07-23T11:19:07Z</time>
      </trkpt>
      <trkpt lat="42.8688" lon="0.16401">
        <ele>2454.3830566406</ele>
        <time>2015-07-23T11:19:20Z</time>
      </trkpt>
      <trkpt lat="42.86878" lon="0.16412">
        <ele>2456.7863769531</ele>
        <time>2015-07-23T11:19:35Z</time>
      </trkpt>
      <trkpt lat="42.86872" lon="0.16423">
        <ele>2458.2282714844</ele>
        <time>2015-07-23T11:19:49Z</time>
      </trkpt>
      <trkpt lat="42.86872" lon="0.16434">
        <ele>2461.5932617188</ele>
        <time>2015-07-23T11:20:02Z</time>
      </trkpt>
      <trkpt lat="42.86872" lon="0.16443">
        <ele>2463.515625</ele>
        <time>2015-07-23T11:20:14Z</time>
      </trkpt>
      <trkpt lat="42.86871" lon="0.16453">
        <ele>2466.8803710938</ele>
        <time>2015-07-23T11:20:26Z</time>
      </trkpt>
      <trkpt lat="42.86871" lon="0.16465">
        <ele>2469.7641601562</ele>
        <time>2015-07-23T11:20:41Z</time>
      </trkpt>
      <trkpt lat="42.86868" lon="0.16476">
        <ele>2470.7255859375</ele>
        <time>2015-07-23T11:20:57Z</time>
      </trkpt>
      <trkpt lat="42.86869" lon="0.16482">
        <ele>2471.2060546875</ele>
        <time>2015-07-23T11:21:11Z</time>
      </trkpt>
      <trkpt lat="42.86866" lon="0.16481">
        <ele>2472.1674804688</ele>
        <time>2015-07-23T11:21:18Z</time>
      </trkpt>
      <trkpt lat="42.86866" lon="0.16481">
        <ele>2470.2448730469</ele>
        <time>2015-07-23T11:21:34Z</time>
      </trkpt>
      <trkpt lat="42.86862" lon="0.16476">
        <ele>2469.7641601562</ele>
        <time>2015-07-23T11:22:07Z</time>
      </trkpt>
      <trkpt lat="42.86865" lon="0.1648">
        <ele>2470.7255859375</ele>
        <time>2015-07-23T11:22:37Z</time>
      </trkpt>
      <trkpt lat="42.86864" lon="0.1648">
        <ele>2471.2060546875</ele>
        <time>2015-07-23T11:23:05Z</time>
      </trkpt>
      <trkpt lat="42.86865" lon="0.16481">
        <ele>2470.2448730469</ele>
        <time>2015-07-23T11:23:34Z</time>
      </trkpt>
      <trkpt lat="42.86866" lon="0.1648">
        <ele>2471.2060546875</ele>
        <time>2015-07-23T11:24:22Z</time>
      </trkpt>
      <trkpt lat="42.86868" lon="0.16482">
        <ele>2471.2060546875</ele>
        <time>2015-07-23T11:24:53Z</time>
      </trkpt>
      <trkpt lat="42.86867" lon="0.16481">
        <ele>2471.6867675781</ele>
        <time>2015-07-23T11:25:22Z</time>
      </trkpt>
      <trkpt lat="42.86868" lon="0.16481">
        <ele>2471.6867675781</ele>
        <time>2015-07-23T11:25:41Z</time>
      </trkpt>
      <trkpt lat="42.86873" lon="0.16483">
        <ele>2470.2448730469</ele>
        <time>2015-07-23T11:26:02Z</time>
      </trkpt>
      <trkpt lat="42.86871" lon="0.16482">
        <ele>2471.6867675781</ele>
        <time>2015-07-23T11:26:05Z</time>
      </trkpt>
      <trkpt lat="42.8687" lon="0.16482">
        <ele>2471.6867675781</ele>
        <time>2015-07-23T11:26:24Z</time>
      </trkpt>
      <trkpt lat="42.86869" lon="0.16479">
        <ele>2472.1674804688</ele>
        <time>2015-07-23T11:26:37Z</time>
      </trkpt>
      <trkpt lat="42.86868" lon="0.16478">
        <ele>2473.609375</ele>
        <time>2015-07-23T11:27:11Z</time>
      </trkpt>
      <trkpt lat="42.86869" lon="0.16475">
        <ele>2471.6867675781</ele>
        <time>2015-07-23T11:27:15Z</time>
      </trkpt>
      <trkpt lat="42.86869" lon="0.16472">
        <ele>2468.322265625</ele>
        <time>2015-07-23T11:27:19Z</time>
      </trkpt>
      <trkpt lat="42.86869" lon="0.16468">
        <ele>2467.3608398438</ele>
        <time>2015-07-23T11:27:23Z</time>
      </trkpt>
      <trkpt lat="42.8687" lon="0.16462">
        <ele>2466.8803710938</ele>
        <time>2015-07-23T11:27:30Z</time>
      </trkpt>
      <trkpt lat="42.8687" lon="0.1646">
        <ele>2468.322265625</ele>
        <time>2015-07-23T11:27:33Z</time>
      </trkpt>
      <trkpt lat="42.8687" lon="0.16455">
        <ele>2465.9189453125</ele>
        <time>2015-07-23T11:27:38Z</time>
      </trkpt>
      <trkpt lat="42.8687" lon="0.16444">
        <ele>2463.03515625</ele>
        <time>2015-07-23T11:27:52Z</time>
      </trkpt>
      <trkpt lat="42.86871" lon="0.16439">
        <ele>2463.03515625</ele>
        <time>2015-07-23T11:28:05Z</time>
      </trkpt>
      <trkpt lat="42.86872" lon="0.16432">
        <ele>2461.5932617188</ele>
        <time>2015-07-23T11:28:19Z</time>
      </trkpt>
      <trkpt lat="42.86872" lon="0.16426">
        <ele>2459.1896972656</ele>
        <time>2015-07-23T11:28:33Z</time>
      </trkpt>
      <trkpt lat="42.86875" lon="0.16417">
        <ele>2457.7478027344</ele>
        <time>2015-07-23T11:28:47Z</time>
      </trkpt>
      <trkpt lat="42.86877" lon="0.16407">
        <ele>2455.3444824219</ele>
        <time>2015-07-23T11:29:01Z</time>
      </trkpt>
      <trkpt lat="42.86879" lon="0.16396">
        <ele>2452.4604492188</ele>
        <time>2015-07-23T11:29:13Z</time>
      </trkpt>
      <trkpt lat="42.86882" lon="0.16381">
        <ele>2450.5378417969</ele>
        <time>2015-07-23T11:29:28Z</time>
      </trkpt>
      <trkpt lat="42.86884" lon="0.16373">
        <ele>2447.1733398438</ele>
        <time>2015-07-23T11:29:37Z</time>
      </trkpt>
      <trkpt lat="42.86884" lon="0.16373">
        <ele>2447.6540527344</ele>
        <time>2015-07-23T11:29:38Z</time>
      </trkpt>
      <trkpt lat="42.86887" lon="0.16361">
        <ele>2447.1733398438</ele>
        <time>2015-07-23T11:29:52Z</time>
      </trkpt>
      <trkpt lat="42.86887" lon="0.16354">
        <ele>2446.2121582031</ele>
        <time>2015-07-23T11:30:00Z</time>
      </trkpt>
      <trkpt lat="42.86889" lon="0.16341">
        <ele>2446.2121582031</ele>
        <time>2015-07-23T11:30:18Z</time>
      </trkpt>
      <trkpt lat="42.8689" lon="0.16338">
        <ele>2444.7700195312</ele>
        <time>2015-07-23T11:30:43Z</time>
      </trkpt>
      <trkpt lat="42.86893" lon="0.16333">
        <ele>2445.2507324219</ele>
        <time>2015-07-23T11:31:09Z</time>
      </trkpt>
      <trkpt lat="42.86893" lon="0.16319">
        <ele>2443.80859375</ele>
        <time>2015-07-23T11:31:53Z</time>
      </trkpt>
      <trkpt lat="42.86895" lon="0.16299">
        <ele>2440.9245605469</ele>
        <time>2015-07-23T11:32:09Z</time>
      </trkpt>
      <trkpt lat="42.86896" lon="0.16278">
        <ele>2439.001953125</ele>
        <time>2015-07-23T11:32:28Z</time>
      </trkpt>
      <trkpt lat="42.86895" lon="0.16253">
        <ele>2436.1181640625</ele>
        <time>2015-07-23T11:32:50Z</time>
      </trkpt>
      <trkpt lat="42.86896" lon="0.1624">
        <ele>2435.6374511719</ele>
        <time>2015-07-23T11:33:03Z</time>
      </trkpt>
      <trkpt lat="42.86897" lon="0.1622">
        <ele>2434.1955566406</ele>
        <time>2015-07-23T11:33:20Z</time>
      </trkpt>
      <trkpt lat="42.86896" lon="0.16201">
        <ele>2431.7922363281</ele>
        <time>2015-07-23T11:33:38Z</time>
      </trkpt>
      <trkpt lat="42.86902" lon="0.16191">
        <ele>2428.427734375</ele>
        <time>2015-07-23T11:33:54Z</time>
      </trkpt>
      <trkpt lat="42.86909" lon="0.1618">
        <ele>2425.0627441406</ele>
        <time>2015-07-23T11:34:13Z</time>
      </trkpt>
      <trkpt lat="42.86911" lon="0.16174">
        <ele>2422.1789550781</ele>
        <time>2015-07-23T11:34:24Z</time>
      </trkpt>
      <trkpt lat="42.86918" lon="0.16169">
        <ele>2419.7756347656</ele>
        <time>2015-07-23T11:34:43Z</time>
      </trkpt>
      <trkpt lat="42.86921" lon="0.16168">
        <ele>2418.3337402344</ele>
        <time>2015-07-23T11:34:49Z</time>
      </trkpt>
      <trkpt lat="42.86922" lon="0.16168">
        <ele>2420.2563476562</ele>
        <time>2015-07-23T11:34:55Z</time>
      </trkpt>
      <trkpt lat="42.86923" lon="0.16164">
        <ele>2417.8530273438</ele>
        <time>2015-07-23T11:35:01Z</time>
      </trkpt>
      <trkpt lat="42.86926" lon="0.1616">
        <ele>2414.9692382812</ele>
        <time>2015-07-23T11:35:18Z</time>
      </trkpt>
      <trkpt lat="42.86927" lon="0.1616">
        <ele>2414.9692382812</ele>
        <time>2015-07-23T11:35:19Z</time>
      </trkpt>
      <trkpt lat="42.86926" lon="0.16155">
        <ele>2414.9692382812</ele>
        <time>2015-07-23T11:35:28Z</time>
      </trkpt>
      <trkpt lat="42.86928" lon="0.16153">
        <ele>2413.0466308594</ele>
        <time>2015-07-23T11:35:35Z</time>
      </trkpt>
      <trkpt lat="42.86932" lon="0.16153">
        <ele>2409.681640625</ele>
        <time>2015-07-23T11:35:41Z</time>
      </trkpt>
      <trkpt lat="42.86937" lon="0.16147">
        <ele>2408.7204589844</ele>
        <time>2015-07-23T11:35:59Z</time>
      </trkpt>
      <trkpt lat="42.86938" lon="0.16132">
        <ele>2404.8752441406</ele>
        <time>2015-07-23T11:36:16Z</time>
      </trkpt>
      <trkpt lat="42.86941" lon="0.16113">
        <ele>2401.9912109375</ele>
        <time>2015-07-23T11:36:36Z</time>
      </trkpt>
      <trkpt lat="42.86944" lon="0.16106">
        <ele>2399.5881347656</ele>
        <time>2015-07-23T11:36:46Z</time>
      </trkpt>
      <trkpt lat="42.86948" lon="0.16093">
        <ele>2397.1848144531</ele>
        <time>2015-07-23T11:37:04Z</time>
      </trkpt>
      <trkpt lat="42.86956" lon="0.16075">
        <ele>2394.3005371094</ele>
        <time>2015-07-23T11:37:26Z</time>
      </trkpt>
      <trkpt lat="42.86962" lon="0.16072">
        <ele>2392.3781738281</ele>
        <time>2015-07-23T11:37:41Z</time>
      </trkpt>
      <trkpt lat="42.8697" lon="0.16073">
        <ele>2389.9748535156</ele>
        <time>2015-07-23T11:37:58Z</time>
      </trkpt>
      <trkpt lat="42.86975" lon="0.16071">
        <ele>2387.0908203125</ele>
        <time>2015-07-23T11:38:12Z</time>
      </trkpt>
      <trkpt lat="42.86979" lon="0.16066">
        <ele>2384.6877441406</ele>
        <time>2015-07-23T11:38:27Z</time>
      </trkpt>
      <trkpt lat="42.86982" lon="0.16065">
        <ele>2382.7648925781</ele>
        <time>2015-07-23T11:38:34Z</time>
      </trkpt>
      <trkpt lat="42.86985" lon="0.16061">
        <ele>2381.8037109375</ele>
        <time>2015-07-23T11:38:48Z</time>
      </trkpt>
      <trkpt lat="42.86987" lon="0.16055">
        <ele>2380.3618164062</ele>
        <time>2015-07-23T11:39:06Z</time>
      </trkpt>
      <trkpt lat="42.86989" lon="0.16052">
        <ele>2378.4389648438</ele>
        <time>2015-07-23T11:39:30Z</time>
      </trkpt>
      <trkpt lat="42.86996" lon="0.16047">
        <ele>2376.0356445312</ele>
        <time>2015-07-23T11:39:49Z</time>
      </trkpt>
      <trkpt lat="42.87003" lon="0.16036">
        <ele>2372.6711425781</ele>
        <time>2015-07-23T11:40:07Z</time>
      </trkpt>
      <trkpt lat="42.87009" lon="0.16025">
        <ele>2369.306640625</ele>
        <time>2015-07-23T11:40:18Z</time>
      </trkpt>
      <trkpt lat="42.87009" lon="0.16025">
        <ele>2369.787109375</ele>
        <time>2015-07-23T11:40:19Z</time>
      </trkpt>
      <trkpt lat="42.87017" lon="0.16014">
        <ele>2368.8259277344</ele>
        <time>2015-07-23T11:40:36Z</time>
      </trkpt>
      <trkpt lat="42.87022" lon="0.16">
        <ele>2367.3837890625</ele>
        <time>2015-07-23T11:40:50Z</time>
      </trkpt>
      <trkpt lat="42.87024" lon="0.15992">
        <ele>2364.0192871094</ele>
        <time>2015-07-23T11:40:57Z</time>
      </trkpt>
      <trkpt lat="42.87033" lon="0.15967">
        <ele>2362.0964355469</ele>
        <time>2015-07-23T11:41:18Z</time>
      </trkpt>
      <trkpt lat="42.87048" lon="0.15942">
        <ele>2359.6931152344</ele>
        <time>2015-07-23T11:41:40Z</time>
      </trkpt>
      <trkpt lat="42.87055" lon="0.1593">
        <ele>2356.3286132812</ele>
        <time>2015-07-23T11:41:51Z</time>
      </trkpt>
      <trkpt lat="42.87072" lon="0.15913">
        <ele>2355.8479003906</ele>
        <time>2015-07-23T11:42:10Z</time>
      </trkpt>
      <trkpt lat="42.87076" lon="0.15904">
        <ele>2353.9255371094</ele>
        <time>2015-07-23T11:42:19Z</time>
      </trkpt>
      <trkpt lat="42.87079" lon="0.15897">
        <ele>2352.4833984375</ele>
        <time>2015-07-23T11:42:24Z</time>
      </trkpt>
      <trkpt lat="42.87085" lon="0.1588">
        <ele>2349.599609375</ele>
        <time>2015-07-23T11:42:39Z</time>
      </trkpt>
      <trkpt lat="42.87086" lon="0.15875">
        <ele>2348.1574707031</ele>
        <time>2015-07-23T11:42:43Z</time>
      </trkpt>
      <trkpt lat="42.87088" lon="0.15867">
        <ele>2348.1574707031</ele>
        <time>2015-07-23T11:42:49Z</time>
      </trkpt>
      <trkpt lat="42.87089" lon="0.15856">
        <ele>2346.7153320312</ele>
        <time>2015-07-23T11:42:58Z</time>
      </trkpt>
      <trkpt lat="42.87092" lon="0.15845">
        <ele>2345.7541503906</ele>
        <time>2015-07-23T11:43:16Z</time>
      </trkpt>
      <trkpt lat="42.87097" lon="0.1583">
        <ele>2342.8701171875</ele>
        <time>2015-07-23T11:43:38Z</time>
      </trkpt>
      <trkpt lat="42.87103" lon="0.15816">
        <ele>2341.9089355469</ele>
        <time>2015-07-23T11:43:53Z</time>
      </trkpt>
      <trkpt lat="42.87111" lon="0.15797">
        <ele>2341.9089355469</ele>
        <time>2015-07-23T11:44:11Z</time>
      </trkpt>
      <trkpt lat="42.87117" lon="0.15785">
        <ele>2340.9475097656</ele>
        <time>2015-07-23T11:44:23Z</time>
      </trkpt>
      <trkpt lat="42.87124" lon="0.1578">
        <ele>2340.466796875</ele>
        <time>2015-07-23T11:44:43Z</time>
      </trkpt>
      <trkpt lat="42.87134" lon="0.15764">
        <ele>2338.5444335938</ele>
        <time>2015-07-23T11:45:00Z</time>
      </trkpt>
      <trkpt lat="42.87142" lon="0.15755">
        <ele>2337.5830078125</ele>
        <time>2015-07-23T11:45:18Z</time>
      </trkpt>
      <trkpt lat="42.87145" lon="0.15754">
        <ele>2337.1022949219</ele>
        <time>2015-07-23T11:45:35Z</time>
      </trkpt>
      <trkpt lat="42.87152" lon="0.15745">
        <ele>2334.2185058594</ele>
        <time>2015-07-23T11:45:52Z</time>
      </trkpt>
      <trkpt lat="42.87161" lon="0.15731">
        <ele>2331.3342285156</ele>
        <time>2015-07-23T11:46:10Z</time>
      </trkpt>
      <trkpt lat="42.87166" lon="0.1572">
        <ele>2328.9309082031</ele>
        <time>2015-07-23T11:46:27Z</time>
      </trkpt>
      <trkpt lat="42.8717" lon="0.15708">
        <ele>2326.5278320312</ele>
        <time>2015-07-23T11:46:43Z</time>
      </trkpt>
      <trkpt lat="42.87171" lon="0.15694">
        <ele>2324.6052246094</ele>
        <time>2015-07-23T11:46:59Z</time>
      </trkpt>
      <trkpt lat="42.8717" lon="0.15683">
        <ele>2323.6437988281</ele>
        <time>2015-07-23T11:47:09Z</time>
      </trkpt>
      <trkpt lat="42.87172" lon="0.15673">
        <ele>2320.279296875</ele>
        <time>2015-07-23T11:47:22Z</time>
      </trkpt>
      <trkpt lat="42.87177" lon="0.15669">
        <ele>2316.9147949219</ele>
        <time>2015-07-23T11:47:32Z</time>
      </trkpt>
      <trkpt lat="42.8718" lon="0.1566">
        <ele>2315.953125</ele>
        <time>2015-07-23T11:47:48Z</time>
      </trkpt>
      <trkpt lat="42.8718" lon="0.15652">
        <ele>2314.9919433594</ele>
        <time>2015-07-23T11:48:05Z</time>
      </trkpt>
      <trkpt lat="42.87183" lon="0.15644">
        <ele>2314.0305175781</ele>
        <time>2015-07-23T11:48:22Z</time>
      </trkpt>
      <trkpt lat="42.8719" lon="0.15631">
        <ele>2311.1467285156</ele>
        <time>2015-07-23T11:48:37Z</time>
      </trkpt>
      <trkpt lat="42.87195" lon="0.15621">
        <ele>2309.2241210938</ele>
        <time>2015-07-23T11:48:53Z</time>
      </trkpt>
      <trkpt lat="42.872" lon="0.15624">
        <ele>2308.2626953125</ele>
        <time>2015-07-23T11:49:07Z</time>
      </trkpt>
      <trkpt lat="42.87204" lon="0.15629">
        <ele>2306.8208007812</ele>
        <time>2015-07-23T11:49:13Z</time>
      </trkpt>
      <trkpt lat="42.87215" lon="0.15648">
        <ele>2303.9370117188</ele>
        <time>2015-07-23T11:49:34Z</time>
      </trkpt>
      <trkpt lat="42.87223" lon="0.15649">
        <ele>2302.9755859375</ele>
        <time>2015-07-23T11:49:51Z</time>
      </trkpt>
      <trkpt lat="42.87225" lon="0.15646">
        <ele>2302.9755859375</ele>
        <time>2015-07-23T11:49:53Z</time>
      </trkpt>
      <trkpt lat="42.87228" lon="0.15636">
        <ele>2300.572265625</ele>
        <time>2015-07-23T11:50:02Z</time>
      </trkpt>
      <trkpt lat="42.87231" lon="0.15613">
        <ele>2298.1687011719</ele>
        <time>2015-07-23T11:50:20Z</time>
      </trkpt>
      <trkpt lat="42.87234" lon="0.15608">
        <ele>2295.2849121094</ele>
        <time>2015-07-23T11:50:26Z</time>
      </trkpt>
      <trkpt lat="42.87235" lon="0.15607">
        <ele>2294.3234863281</ele>
        <time>2015-07-23T11:50:28Z</time>
      </trkpt>
      <trkpt lat="42.87244" lon="0.15591">
        <ele>2292.4011230469</ele>
        <time>2015-07-23T11:50:46Z</time>
      </trkpt>
      <trkpt lat="42.87247" lon="0.15584">
        <ele>2289.0363769531</ele>
        <time>2015-07-23T11:50:53Z</time>
      </trkpt>
      <trkpt lat="42.87254" lon="0.15563">
        <ele>2287.1137695312</ele>
        <time>2015-07-23T11:51:14Z</time>
      </trkpt>
      <trkpt lat="42.8726" lon="0.15546">
        <ele>2283.7490234375</ele>
        <time>2015-07-23T11:51:28Z</time>
      </trkpt>
      <trkpt lat="42.87261" lon="0.15544">
        <ele>2282.7875976562</ele>
        <time>2015-07-23T11:51:30Z</time>
      </trkpt>
      <trkpt lat="42.87268" lon="0.15521">
        <ele>2279.9038085938</ele>
        <time>2015-07-23T11:51:50Z</time>
      </trkpt>
      <trkpt lat="42.87271" lon="0.15511">
        <ele>2277.9812011719</ele>
        <time>2015-07-23T11:52:10Z</time>
      </trkpt>
      <trkpt lat="42.87273" lon="0.155">
        <ele>2275.0971679688</ele>
        <time>2015-07-23T11:52:24Z</time>
      </trkpt>
      <trkpt lat="42.8728" lon="0.15495">
        <ele>2272.2133789062</ele>
        <time>2015-07-23T11:52:41Z</time>
      </trkpt>
      <trkpt lat="42.87282" lon="0.15486">
        <ele>2269.8100585938</ele>
        <time>2015-07-23T11:52:56Z</time>
      </trkpt>
      <trkpt lat="42.87286" lon="0.15481">
        <ele>2268.8488769531</ele>
        <time>2015-07-23T11:53:09Z</time>
      </trkpt>
      <trkpt lat="42.87288" lon="0.15482">
        <ele>2267.8872070312</ele>
        <time>2015-07-23T11:53:13Z</time>
      </trkpt>
      <trkpt lat="42.87295" lon="0.15484">
        <ele>2266.4453125</ele>
        <time>2015-07-23T11:53:28Z</time>
      </trkpt>
      <trkpt lat="42.87297" lon="0.15479">
        <ele>2263.0808105469</ele>
        <time>2015-07-23T11:53:38Z</time>
      </trkpt>
      <trkpt lat="42.87295" lon="0.15464">
        <ele>2260.6774902344</ele>
        <time>2015-07-23T11:53:55Z</time>
      </trkpt>
      <trkpt lat="42.87302" lon="0.15462">
        <ele>2260.1967773438</ele>
        <time>2015-07-23T11:54:07Z</time>
      </trkpt>
      <trkpt lat="42.87307" lon="0.15463">
        <ele>2257.3129882812</ele>
        <time>2015-07-23T11:54:17Z</time>
      </trkpt>
      <trkpt lat="42.87308" lon="0.15458">
        <ele>2255.3903808594</ele>
        <time>2015-07-23T11:54:28Z</time>
      </trkpt>
      <trkpt lat="42.8731" lon="0.15454">
        <ele>2253.9484863281</ele>
        <time>2015-07-23T11:54:47Z</time>
      </trkpt>
      <trkpt lat="42.87311" lon="0.15447">
        <ele>2252.0256347656</ele>
        <time>2015-07-23T11:54:58Z</time>
      </trkpt>
      <trkpt lat="42.87313" lon="0.15432">
        <ele>2249.6223144531</ele>
        <time>2015-07-23T11:55:16Z</time>
      </trkpt>
      <trkpt lat="42.87317" lon="0.15421">
        <ele>2247.2189941406</ele>
        <time>2015-07-23T11:55:32Z</time>
      </trkpt>
      <trkpt lat="42.8732" lon="0.15414">
        <ele>2243.8544921875</ele>
        <time>2015-07-23T11:55:42Z</time>
      </trkpt>
      <trkpt lat="42.8732" lon="0.15413">
        <ele>2243.8544921875</ele>
        <time>2015-07-23T11:55:43Z</time>
      </trkpt>
      <trkpt lat="42.87322" lon="0.15406">
        <ele>2242.4125976562</ele>
        <time>2015-07-23T11:55:57Z</time>
      </trkpt>
      <trkpt lat="42.87325" lon="0.15396">
        <ele>2240.0092773438</ele>
        <time>2015-07-23T11:56:14Z</time>
      </trkpt>
      <trkpt lat="42.87326" lon="0.15389">
        <ele>2238.5673828125</ele>
        <time>2015-07-23T11:56:31Z</time>
      </trkpt>
      <trkpt lat="42.87328" lon="0.15383">
        <ele>2236.1640625</ele>
        <time>2015-07-23T11:56:43Z</time>
      </trkpt>
      <trkpt lat="42.87333" lon="0.15378">
        <ele>2232.3186035156</ele>
        <time>2015-07-23T11:56:58Z</time>
      </trkpt>
      <trkpt lat="42.87337" lon="0.15371">
        <ele>2230.8767089844</ele>
        <time>2015-07-23T11:57:16Z</time>
      </trkpt>
      <trkpt lat="42.87342" lon="0.15366">
        <ele>2229.4345703125</ele>
        <time>2015-07-23T11:57:30Z</time>
      </trkpt>
      <trkpt lat="42.87345" lon="0.15361">
        <ele>2227.5119628906</ele>
        <time>2015-07-23T11:57:48Z</time>
      </trkpt>
      <trkpt lat="42.87348" lon="0.15354">
        <ele>2224.6281738281</ele>
        <time>2015-07-23T11:58:01Z</time>
      </trkpt>
      <trkpt lat="42.87351" lon="0.15351">
        <ele>2221.2634277344</ele>
        <time>2015-07-23T11:58:11Z</time>
      </trkpt>
      <trkpt lat="42.87359" lon="0.15349">
        <ele>2219.3408203125</ele>
        <time>2015-07-23T11:58:26Z</time>
      </trkpt>
      <trkpt lat="42.87365" lon="0.15349">
        <ele>2218.3793945312</ele>
        <time>2015-07-23T11:58:42Z</time>
      </trkpt>
      <trkpt lat="42.87369" lon="0.15341">
        <ele>2216.4567871094</ele>
        <time>2015-07-23T11:58:57Z</time>
      </trkpt>
      <trkpt lat="42.87372" lon="0.15332">
        <ele>2213.5727539062</ele>
        <time>2015-07-23T11:59:17Z</time>
      </trkpt>
      <trkpt lat="42.87375" lon="0.15326">
        <ele>2210.6889648438</ele>
        <time>2015-07-23T11:59:26Z</time>
      </trkpt>
      <trkpt lat="42.87381" lon="0.15313">
        <ele>2207.3244628906</ele>
        <time>2015-07-23T11:59:41Z</time>
      </trkpt>
      <trkpt lat="42.87382" lon="0.1531">
        <ele>2207.3244628906</ele>
        <time>2015-07-23T11:59:59Z</time>
      </trkpt>
      <trkpt lat="42.87386" lon="0.15304">
        <ele>2204.9211425781</ele>
        <time>2015-07-23T12:00:22Z</time>
      </trkpt>
      <trkpt lat="42.87389" lon="0.153">
        <ele>2203.4790039062</ele>
        <time>2015-07-23T12:00:32Z</time>
      </trkpt>
      <trkpt lat="42.87396" lon="0.15292">
        <ele>2201.0756835938</ele>
        <time>2015-07-23T12:00:43Z</time>
      </trkpt>
      <trkpt lat="42.87404" lon="0.15281">
        <ele>2197.7111816406</ele>
        <time>2015-07-23T12:00:59Z</time>
      </trkpt>
      <trkpt lat="42.87412" lon="0.15268">
        <ele>2194.8271484375</ele>
        <time>2015-07-23T12:01:16Z</time>
      </trkpt>
      <trkpt lat="42.87417" lon="0.15261">
        <ele>2192.9045410156</ele>
        <time>2015-07-23T12:01:33Z</time>
      </trkpt>
      <trkpt lat="42.87423" lon="0.15256">
        <ele>2190.0207519531</ele>
        <time>2015-07-23T12:01:43Z</time>
      </trkpt>
      <trkpt lat="42.87434" lon="0.15248">
        <ele>2188.0981445312</ele>
        <time>2015-07-23T12:02:00Z</time>
      </trkpt>
      <trkpt lat="42.87444" lon="0.15243">
        <ele>2185.2138671875</ele>
        <time>2015-07-23T12:02:14Z</time>
      </trkpt>
      <trkpt lat="42.87449" lon="0.15241">
        <ele>2181.8493652344</ele>
        <time>2015-07-23T12:02:21Z</time>
      </trkpt>
      <trkpt lat="42.8745" lon="0.15241">
        <ele>2182.330078125</ele>
        <time>2015-07-23T12:02:22Z</time>
      </trkpt>
      <trkpt lat="42.87456" lon="0.15233">
        <ele>2179.9267578125</ele>
        <time>2015-07-23T12:02:39Z</time>
      </trkpt>
      <trkpt lat="42.8746" lon="0.15227">
        <ele>2178.0041503906</ele>
        <time>2015-07-23T12:02:52Z</time>
      </trkpt>
      <trkpt lat="42.87462" lon="0.15225">
        <ele>2176.5622558594</ele>
        <time>2015-07-23T12:02:55Z</time>
      </trkpt>
      <trkpt lat="42.87475" lon="0.1522">
        <ele>2174.6396484375</ele>
        <time>2015-07-23T12:03:12Z</time>
      </trkpt>
      <trkpt lat="42.87479" lon="0.15219">
        <ele>2173.6782226562</ele>
        <time>2015-07-23T12:03:18Z</time>
      </trkpt>
      <trkpt lat="42.87494" lon="0.15218">
        <ele>2172.7170410156</ele>
        <time>2015-07-23T12:03:38Z</time>
      </trkpt>
      <trkpt lat="42.87498" lon="0.15218">
        <ele>2173.1977539062</ele>
        <time>2015-07-23T12:03:52Z</time>
      </trkpt>
      <trkpt lat="42.87501" lon="0.15213">
        <ele>2172.7170410156</ele>
        <time>2015-07-23T12:04:14Z</time>
      </trkpt>
      <trkpt lat="42.87505" lon="0.15208">
        <ele>2172.236328125</ele>
        <time>2015-07-23T12:04:29Z</time>
      </trkpt>
      <trkpt lat="42.87504" lon="0.15206">
        <ele>2172.236328125</ele>
        <time>2015-07-23T12:04:42Z</time>
      </trkpt>
      <trkpt lat="42.8751" lon="0.15202">
        <ele>2172.236328125</ele>
        <time>2015-07-23T12:04:58Z</time>
      </trkpt>
      <trkpt lat="42.87521" lon="0.15184">
        <ele>2171.2746582031</ele>
        <time>2015-07-23T12:05:18Z</time>
      </trkpt>
      <trkpt lat="42.8752" lon="0.1518">
        <ele>2170.7941894531</ele>
        <time>2015-07-23T12:05:21Z</time>
      </trkpt>
      <trkpt lat="42.87517" lon="0.15159">
        <ele>2171.2746582031</ele>
        <time>2015-07-23T12:05:41Z</time>
      </trkpt>
      <trkpt lat="42.87517" lon="0.15148">
        <ele>2167.91015625</ele>
        <time>2015-07-23T12:05:55Z</time>
      </trkpt>
      <trkpt lat="42.87517" lon="0.15144">
        <ele>2166.9489746094</ele>
        <time>2015-07-23T12:06:00Z</time>
      </trkpt>
      <trkpt lat="42.87517" lon="0.1514">
        <ele>2167.91015625</ele>
        <time>2015-07-23T12:06:15Z</time>
      </trkpt>
      <trkpt lat="42.8752" lon="0.15127">
        <ele>2165.9875488281</ele>
        <time>2015-07-23T12:06:28Z</time>
      </trkpt>
      <trkpt lat="42.87522" lon="0.15105">
        <ele>2166.4682617188</ele>
        <time>2015-07-23T12:06:45Z</time>
      </trkpt>
      <trkpt lat="42.87519" lon="0.15092">
        <ele>2165.0263671875</ele>
        <time>2015-07-23T12:07:00Z</time>
      </trkpt>
      <trkpt lat="42.87521" lon="0.15066">
        <ele>2164.0649414062</ele>
        <time>2015-07-23T12:07:19Z</time>
      </trkpt>
      <trkpt lat="42.87523" lon="0.15048">
        <ele>2163.1037597656</ele>
        <time>2015-07-23T12:07:35Z</time>
      </trkpt>
      <trkpt lat="42.87523" lon="0.15033">
        <ele>2161.6618652344</ele>
        <time>2015-07-23T12:07:52Z</time>
      </trkpt>
      <trkpt lat="42.87525" lon="0.15025">
        <ele>2161.1811523438</ele>
        <time>2015-07-23T12:08:09Z</time>
      </trkpt>
      <trkpt lat="42.87527" lon="0.15009">
        <ele>2160.2197265625</ele>
        <time>2015-07-23T12:08:22Z</time>
      </trkpt>
      <trkpt lat="42.8753" lon="0.14988">
        <ele>2158.7778320312</ele>
        <time>2015-07-23T12:08:40Z</time>
      </trkpt>
      <trkpt lat="42.87533" lon="0.14963">
        <ele>2156.3745117188</ele>
        <time>2015-07-23T12:09:00Z</time>
      </trkpt>
      <trkpt lat="42.87533" lon="0.14944">
        <ele>2155.4130859375</ele>
        <time>2015-07-23T12:09:16Z</time>
      </trkpt>
      <trkpt lat="42.87536" lon="0.14929">
        <ele>2153.9711914062</ele>
        <time>2015-07-23T12:09:30Z</time>
      </trkpt>
      <trkpt lat="42.87542" lon="0.1491">
        <ele>2152.0483398438</ele>
        <time>2015-07-23T12:09:48Z</time>
      </trkpt>
      <trkpt lat="42.87542" lon="0.14905">
        <ele>2152.0483398438</ele>
        <time>2015-07-23T12:10:07Z</time>
      </trkpt>
      <trkpt lat="42.87546" lon="0.14893">
        <ele>2149.1645507812</ele>
        <time>2015-07-23T12:10:22Z</time>
      </trkpt>
      <trkpt lat="42.87549" lon="0.14891">
        <ele>2150.1259765625</ele>
        <time>2015-07-23T12:10:27Z</time>
      </trkpt>
      <trkpt lat="42.87554" lon="0.14881">
        <ele>2148.6838378906</ele>
        <time>2015-07-23T12:10:40Z</time>
      </trkpt>
      <trkpt lat="42.8756" lon="0.14872">
        <ele>2147.2419433594</ele>
        <time>2015-07-23T12:10:54Z</time>
      </trkpt>
      <trkpt lat="42.87565" lon="0.14863">
        <ele>2146.2807617188</ele>
        <time>2015-07-23T12:11:08Z</time>
      </trkpt>
      <trkpt lat="42.87567" lon="0.14855">
        <ele>2144.8386230469</ele>
        <time>2015-07-23T12:11:26Z</time>
      </trkpt>
      <trkpt lat="42.87574" lon="0.14841">
        <ele>2143.8774414062</ele>
        <time>2015-07-23T12:11:41Z</time>
      </trkpt>
      <trkpt lat="42.87581" lon="0.14837">
        <ele>2144.3579101562</ele>
        <time>2015-07-23T12:11:49Z</time>
      </trkpt>
      <trkpt lat="42.87589" lon="0.14824">
        <ele>2142.916015625</ele>
        <time>2015-07-23T12:12:05Z</time>
      </trkpt>
      <trkpt lat="42.87591" lon="0.14823">
        <ele>2143.3967285156</ele>
        <time>2015-07-23T12:12:07Z</time>
      </trkpt>
      <trkpt lat="42.87593" lon="0.14821">
        <ele>2143.3967285156</ele>
        <time>2015-07-23T12:12:10Z</time>
      </trkpt>
      <trkpt lat="42.876" lon="0.14802">
        <ele>2141.9548339844</ele>
        <time>2015-07-23T12:12:28Z</time>
      </trkpt>
      <trkpt lat="42.87603" lon="0.1479">
        <ele>2141.4741210938</ele>
        <time>2015-07-23T12:12:39Z</time>
      </trkpt>
      <trkpt lat="42.87613" lon="0.14776">
        <ele>2140.5126953125</ele>
        <time>2015-07-23T12:12:56Z</time>
      </trkpt>
      <trkpt lat="42.87621" lon="0.14764">
        <ele>2140.0322265625</ele>
        <time>2015-07-23T12:13:12Z</time>
      </trkpt>
      <trkpt lat="42.87622" lon="0.14752">
        <ele>2139.0705566406</ele>
        <time>2015-07-23T12:13:26Z</time>
      </trkpt>
      <trkpt lat="42.87625" lon="0.1474">
        <ele>2138.109375</ele>
        <time>2015-07-23T12:13:39Z</time>
      </trkpt>
      <trkpt lat="42.87635" lon="0.14722">
        <ele>2137.1479492188</ele>
        <time>2015-07-23T12:13:58Z</time>
      </trkpt>
      <trkpt lat="42.87641" lon="0.14708">
        <ele>2136.6672363281</ele>
        <time>2015-07-23T12:14:14Z</time>
      </trkpt>
      <trkpt lat="42.87646" lon="0.14701">
        <ele>2134.7448730469</ele>
        <time>2015-07-23T12:14:22Z</time>
      </trkpt>
      <trkpt lat="42.87653" lon="0.14681">
        <ele>2135.2253417969</ele>
        <time>2015-07-23T12:14:38Z</time>
      </trkpt>
      <trkpt lat="42.87654" lon="0.14676">
        <ele>2134.7448730469</ele>
        <time>2015-07-23T12:14:42Z</time>
      </trkpt>
      <trkpt lat="42.87653" lon="0.14672">
        <ele>2135.2253417969</ele>
        <time>2015-07-23T12:14:44Z</time>
      </trkpt>
      <trkpt lat="42.87659" lon="0.14661">
        <ele>2135.2253417969</ele>
        <time>2015-07-23T12:14:54Z</time>
      </trkpt>
      <trkpt lat="42.87664" lon="0.14652">
        <ele>2135.2253417969</ele>
        <time>2015-07-23T12:15:03Z</time>
      </trkpt>
      <trkpt lat="42.87672" lon="0.14633">
        <ele>2134.7448730469</ele>
        <time>2015-07-23T12:15:21Z</time>
      </trkpt>
      <trkpt lat="42.87675" lon="0.1463">
        <ele>2134.7448730469</ele>
        <time>2015-07-23T12:15:26Z</time>
      </trkpt>
      <trkpt lat="42.87685" lon="0.14615">
        <ele>2133.302734375</ele>
        <time>2015-07-23T12:15:42Z</time>
      </trkpt>
      <trkpt lat="42.87697" lon="0.1461">
        <ele>2131.3801269531</ele>
        <time>2015-07-23T12:15:59Z</time>
      </trkpt>
      <trkpt lat="42.87704" lon="0.14601">
        <ele>2130.4189453125</ele>
        <time>2015-07-23T12:16:13Z</time>
      </trkpt>
      <trkpt lat="42.87711" lon="0.146">
        <ele>2129.4575195312</ele>
        <time>2015-07-23T12:16:26Z</time>
      </trkpt>
      <trkpt lat="42.87716" lon="0.14599">
        <ele>2126.5737304688</ele>
        <time>2015-07-23T12:16:35Z</time>
      </trkpt>
      <trkpt lat="42.87721" lon="0.14594">
        <ele>2125.1315917969</ele>
        <time>2015-07-23T12:16:49Z</time>
      </trkpt>
      <trkpt lat="42.87726" lon="0.14592">
        <ele>2121.7668457031</ele>
        <time>2015-07-23T12:17:03Z</time>
      </trkpt>
      <trkpt lat="42.87729" lon="0.14594">
        <ele>2121.2861328125</ele>
        <time>2015-07-23T12:17:17Z</time>
      </trkpt>
      <trkpt lat="42.87736" lon="0.14593">
        <ele>2118.8830566406</ele>
        <time>2015-07-23T12:17:38Z</time>
      </trkpt>
      <trkpt lat="42.87744" lon="0.14595">
        <ele>2115.5185546875</ele>
        <time>2015-07-23T12:17:53Z</time>
      </trkpt>
      <trkpt lat="42.87749" lon="0.14593">
        <ele>2115.0378417969</ele>
        <time>2015-07-23T12:18:07Z</time>
      </trkpt>
      <trkpt lat="42.87754" lon="0.14594">
        <ele>2114.0764160156</ele>
        <time>2015-07-23T12:18:21Z</time>
      </trkpt>
      <trkpt lat="42.87764" lon="0.14602">
        <ele>2114.5571289062</ele>
        <time>2015-07-23T12:18:35Z</time>
      </trkpt>
      <trkpt lat="42.87767" lon="0.14599">
        <ele>2115.0378417969</ele>
        <time>2015-07-23T12:18:53Z</time>
      </trkpt>
      <trkpt lat="42.87777" lon="0.14599">
        <ele>2114.0764160156</ele>
        <time>2015-07-23T12:19:11Z</time>
      </trkpt>
      <trkpt lat="42.8779" lon="0.14594">
        <ele>2112.6345214844</ele>
        <time>2015-07-23T12:19:29Z</time>
      </trkpt>
      <trkpt lat="42.87796" lon="0.14586">
        <ele>2112.1538085938</ele>
        <time>2015-07-23T12:19:44Z</time>
      </trkpt>
      <trkpt lat="42.87799" lon="0.14583">
        <ele>2110.7119140625</ele>
        <time>2015-07-23T12:20:04Z</time>
      </trkpt>
      <trkpt lat="42.87801" lon="0.14574">
        <ele>2110.2312011719</ele>
        <time>2015-07-23T12:20:15Z</time>
      </trkpt>
      <trkpt lat="42.87803" lon="0.14566">
        <ele>2109.7504882812</ele>
        <time>2015-07-23T12:20:30Z</time>
      </trkpt>
      <trkpt lat="42.87807" lon="0.14555">
        <ele>2108.30859375</ele>
        <time>2015-07-23T12:20:45Z</time>
      </trkpt>
      <trkpt lat="42.87809" lon="0.14548">
        <ele>2107.3471679688</ele>
        <time>2015-07-23T12:20:57Z</time>
      </trkpt>
      <trkpt lat="42.87811" lon="0.14546">
        <ele>2107.8278808594</ele>
        <time>2015-07-23T12:21:11Z</time>
      </trkpt>
      <trkpt lat="42.87809" lon="0.14541">
        <ele>2107.8278808594</ele>
        <time>2015-07-23T12:21:41Z</time>
      </trkpt>
      <trkpt lat="42.8781" lon="0.14536">
        <ele>2107.3471679688</ele>
        <time>2015-07-23T12:21:47Z</time>
      </trkpt>
      <trkpt lat="42.87808" lon="0.1452">
        <ele>2106.3857421875</ele>
        <time>2015-07-23T12:22:01Z</time>
      </trkpt>
      <trkpt lat="42.87809" lon="0.14516">
        <ele>2105.9050292969</ele>
        <time>2015-07-23T12:22:03Z</time>
      </trkpt>
      <trkpt lat="42.87812" lon="0.14501">
        <ele>2104.4631347656</ele>
        <time>2015-07-23T12:22:14Z</time>
      </trkpt>
      <trkpt lat="42.87816" lon="0.14494">
        <ele>2104.9438476562</ele>
        <time>2015-07-23T12:22:19Z</time>
      </trkpt>
      <trkpt lat="42.87818" lon="0.14478">
        <ele>2102.0598144531</ele>
        <time>2015-07-23T12:22:34Z</time>
      </trkpt>
      <trkpt lat="42.87818" lon="0.14469">
        <ele>2101.0986328125</ele>
        <time>2015-07-23T12:22:47Z</time>
      </trkpt>
      <trkpt lat="42.87816" lon="0.1446">
        <ele>2098.6953125</ele>
        <time>2015-07-23T12:23:03Z</time>
      </trkpt>
      <trkpt lat="42.87814" lon="0.14448">
        <ele>2096.2922363281</ele>
        <time>2015-07-23T12:23:16Z</time>
      </trkpt>
      <trkpt lat="42.87816" lon="0.14442">
        <ele>2096.2922363281</ele>
        <time>2015-07-23T12:23:25Z</time>
      </trkpt>
      <trkpt lat="42.87816" lon="0.14432">
        <ele>2095.3308105469</ele>
        <time>2015-07-23T12:23:32Z</time>
      </trkpt>
      <trkpt lat="42.87816" lon="0.14415">
        <ele>2093.8889160156</ele>
        <time>2015-07-23T12:23:45Z</time>
      </trkpt>
      <trkpt lat="42.8782" lon="0.14398">
        <ele>2092.4470214844</ele>
        <time>2015-07-23T12:23:59Z</time>
      </trkpt>
      <trkpt lat="42.87823" lon="0.14378">
        <ele>2092.4470214844</ele>
        <time>2015-07-23T12:24:15Z</time>
      </trkpt>
      <trkpt lat="42.87824" lon="0.14359">
        <ele>2091.9660644531</ele>
        <time>2015-07-23T12:24:30Z</time>
      </trkpt>
      <trkpt lat="42.87829" lon="0.14351">
        <ele>2090.5239257812</ele>
        <time>2015-07-23T12:24:41Z</time>
      </trkpt>
      <trkpt lat="42.87829" lon="0.14344">
        <ele>2088.6015625</ele>
        <time>2015-07-23T12:24:46Z</time>
      </trkpt>
      <trkpt lat="42.87829" lon="0.14342">
        <ele>2090.0434570312</ele>
        <time>2015-07-23T12:24:48Z</time>
      </trkpt>
      <trkpt lat="42.87838" lon="0.1433">
        <ele>2088.1208496094</ele>
        <time>2015-07-23T12:25:01Z</time>
      </trkpt>
      <trkpt lat="42.87838" lon="0.14329">
        <ele>2088.1208496094</ele>
        <time>2015-07-23T12:25:02Z</time>
      </trkpt>
      <trkpt lat="42.87845" lon="0.1431">
        <ele>2089.08203125</ele>
        <time>2015-07-23T12:25:17Z</time>
      </trkpt>
      <trkpt lat="42.87847" lon="0.14307">
        <ele>2088.6015625</ele>
        <time>2015-07-23T12:25:20Z</time>
      </trkpt>
      <trkpt lat="42.87856" lon="0.143">
        <ele>2088.1208496094</ele>
        <time>2015-07-23T12:25:33Z</time>
      </trkpt>
      <trkpt lat="42.8786" lon="0.14296">
        <ele>2087.1594238281</ele>
        <time>2015-07-23T12:25:38Z</time>
      </trkpt>
      <trkpt lat="42.87875" lon="0.14283">
        <ele>2085.7175292969</ele>
        <time>2015-07-23T12:25:57Z</time>
      </trkpt>
      <trkpt lat="42.87879" lon="0.1427">
        <ele>2085.2368164062</ele>
        <time>2015-07-23T12:26:09Z</time>
      </trkpt>
      <trkpt lat="42.87879" lon="0.14268">
        <ele>2083.794921875</ele>
        <time>2015-07-23T12:26:11Z</time>
      </trkpt>
      <trkpt lat="42.87884" lon="0.14255">
        <ele>2084.7563476562</ele>
        <time>2015-07-23T12:26:24Z</time>
      </trkpt>
      <trkpt lat="42.87891" lon="0.14245">
        <ele>2085.7175292969</ele>
        <time>2015-07-23T12:26:33Z</time>
      </trkpt>
      <trkpt lat="42.87892" lon="0.14215">
        <ele>2086.1982421875</ele>
        <time>2015-07-23T12:26:51Z</time>
      </trkpt>
      <trkpt lat="42.87894" lon="0.14191">
        <ele>2086.6787109375</ele>
        <time>2015-07-23T12:27:08Z</time>
      </trkpt>
      <trkpt lat="42.87894" lon="0.14177">
        <ele>2083.3142089844</ele>
        <time>2015-07-23T12:27:20Z</time>
      </trkpt>
      <trkpt lat="42.87894" lon="0.1417">
        <ele>2083.3142089844</ele>
        <time>2015-07-23T12:27:30Z</time>
      </trkpt>
      <trkpt lat="42.87897" lon="0.14164">
        <ele>2081.8723144531</ele>
        <time>2015-07-23T12:27:45Z</time>
      </trkpt>
      <trkpt lat="42.87901" lon="0.14154">
        <ele>2080.4304199219</ele>
        <time>2015-07-23T12:27:59Z</time>
      </trkpt>
      <trkpt lat="42.87905" lon="0.14153">
        <ele>2079.4689941406</ele>
        <time>2015-07-23T12:28:02Z</time>
      </trkpt>
      <trkpt lat="42.87916" lon="0.14146">
        <ele>2080.4304199219</ele>
        <time>2015-07-23T12:28:16Z</time>
      </trkpt>
      <trkpt lat="42.87917" lon="0.14135">
        <ele>2081.3916015625</ele>
        <time>2015-07-23T12:28:32Z</time>
      </trkpt>
      <trkpt lat="42.87918" lon="0.14125">
        <ele>2083.3142089844</ele>
        <time>2015-07-23T12:28:46Z</time>
      </trkpt>
      <trkpt lat="42.87919" lon="0.14125">
        <ele>2081.8723144531</ele>
        <time>2015-07-23T12:28:49Z</time>
      </trkpt>
      <trkpt lat="42.87922" lon="0.14113">
        <ele>2080.4304199219</ele>
        <time>2015-07-23T12:29:06Z</time>
      </trkpt>
      <trkpt lat="42.87925" lon="0.14102">
        <ele>2078.98828125</ele>
        <time>2015-07-23T12:29:21Z</time>
      </trkpt>
      <trkpt lat="42.87934" lon="0.14103">
        <ele>2078.0270996094</ele>
        <time>2015-07-23T12:29:35Z</time>
      </trkpt>
      <trkpt lat="42.87937" lon="0.14101">
        <ele>2075.6235351562</ele>
        <time>2015-07-23T12:29:45Z</time>
      </trkpt>
      <trkpt lat="42.87935" lon="0.14091">
        <ele>2072.7397460938</ele>
        <time>2015-07-23T12:30:14Z</time>
      </trkpt>
      <trkpt lat="42.87934" lon="0.14077">
        <ele>2072.2590332031</ele>
        <time>2015-07-23T12:30:25Z</time>
      </trkpt>
      <trkpt lat="42.87934" lon="0.14072">
        <ele>2069.8557128906</ele>
        <time>2015-07-23T12:30:36Z</time>
      </trkpt>
      <trkpt lat="42.87939" lon="0.14062">
        <ele>2068.89453125</ele>
        <time>2015-07-23T12:30:51Z</time>
      </trkpt>
      <trkpt lat="42.8794" lon="0.14054">
        <ele>2067.9331054688</ele>
        <time>2015-07-23T12:31:02Z</time>
      </trkpt>
      <trkpt lat="42.87944" lon="0.14048">
        <ele>2066.4912109375</ele>
        <time>2015-07-23T12:31:19Z</time>
      </trkpt>
      <trkpt lat="42.87947" lon="0.14031">
        <ele>2066.0104980469</ele>
        <time>2015-07-23T12:31:31Z</time>
      </trkpt>
      <trkpt lat="42.87947" lon="0.14028">
        <ele>2066.0104980469</ele>
        <time>2015-07-23T12:31:34Z</time>
      </trkpt>
      <trkpt lat="42.87945" lon="0.1401">
        <ele>2065.5300292969</ele>
        <time>2015-07-23T12:31:47Z</time>
      </trkpt>
      <trkpt lat="42.87943" lon="0.14005">
        <ele>2065.5300292969</ele>
        <time>2015-07-23T12:31:52Z</time>
      </trkpt>
      <trkpt lat="42.87941" lon="0.13988">
        <ele>2064.5686035156</ele>
        <time>2015-07-23T12:32:05Z</time>
      </trkpt>
      <trkpt lat="42.87942" lon="0.13976">
        <ele>2065.0493164062</ele>
        <time>2015-07-23T12:32:17Z</time>
      </trkpt>
      <trkpt lat="42.87947" lon="0.13971">
        <ele>2061.6848144531</ele>
        <time>2015-07-23T12:32:30Z</time>
      </trkpt>
      <trkpt lat="42.8795" lon="0.13962">
        <ele>2060.2426757812</ele>
        <time>2015-07-23T12:32:43Z</time>
      </trkpt>
      <trkpt lat="42.87951" lon="0.13954">
        <ele>2058.3198242188</ele>
        <time>2015-07-23T12:32:57Z</time>
      </trkpt>
      <trkpt lat="42.87948" lon="0.13941">
        <ele>2056.3972167969</ele>
        <time>2015-07-23T12:33:14Z</time>
      </trkpt>
      <trkpt lat="42.8795" lon="0.13933">
        <ele>2054.9553222656</ele>
        <time>2015-07-23T12:33:28Z</time>
      </trkpt>
      <trkpt lat="42.8795" lon="0.13923">
        <ele>2052.5520019531</ele>
        <time>2015-07-23T12:33:43Z</time>
      </trkpt>
      <trkpt lat="42.87955" lon="0.13915">
        <ele>2051.5908203125</ele>
        <time>2015-07-23T12:33:54Z</time>
      </trkpt>
      <trkpt lat="42.87963" lon="0.13906">
        <ele>2048.2260742188</ele>
        <time>2015-07-23T12:34:14Z</time>
      </trkpt>
      <trkpt lat="42.87966" lon="0.13892">
        <ele>2047.2648925781</ele>
        <time>2015-07-23T12:34:29Z</time>
      </trkpt>
      <trkpt lat="42.87969" lon="0.13877">
        <ele>2044.8615722656</ele>
        <time>2015-07-23T12:34:45Z</time>
      </trkpt>
      <trkpt lat="42.87969" lon="0.13872">
        <ele>2044.8615722656</ele>
        <time>2015-07-23T12:34:51Z</time>
      </trkpt>
      <trkpt lat="42.87971" lon="0.13857">
        <ele>2042.9387207031</ele>
        <time>2015-07-23T12:35:02Z</time>
      </trkpt>
      <trkpt lat="42.87973" lon="0.13854">
        <ele>2043.4194335938</ele>
        <time>2015-07-23T12:35:05Z</time>
      </trkpt>
      <trkpt lat="42.87976" lon="0.13839">
        <ele>2041.4968261719</ele>
        <time>2015-07-23T12:35:21Z</time>
      </trkpt>
      <trkpt lat="42.8798" lon="0.13825">
        <ele>2040.0549316406</ele>
        <time>2015-07-23T12:35:34Z</time>
      </trkpt>
      <trkpt lat="42.87986" lon="0.1381">
        <ele>2038.6130371094</ele>
        <time>2015-07-23T12:35:45Z</time>
      </trkpt>
      <trkpt lat="42.87988" lon="0.13808">
        <ele>2039.57421875</ele>
        <time>2015-07-23T12:35:47Z</time>
      </trkpt>
      <trkpt lat="42.87992" lon="0.13787">
        <ele>2038.1323242188</ele>
        <time>2015-07-23T12:36:04Z</time>
      </trkpt>
      <trkpt lat="42.87995" lon="0.13788">
        <ele>2037.1708984375</ele>
        <time>2015-07-23T12:36:18Z</time>
      </trkpt>
      <trkpt lat="42.88001" lon="0.13792">
        <ele>2035.7290039062</ele>
        <time>2015-07-23T12:36:40Z</time>
      </trkpt>
      <trkpt lat="42.87996" lon="0.13791">
        <ele>2036.2097167969</ele>
        <time>2015-07-23T12:37:17Z</time>
      </trkpt>
      <trkpt lat="42.88001" lon="0.13792">
        <ele>2036.2097167969</ele>
        <time>2015-07-23T12:40:25Z</time>
      </trkpt>
      <trkpt lat="42.88004" lon="0.13797">
        <ele>2036.2097167969</ele>
        <time>2015-07-23T12:41:01Z</time>
      </trkpt>
      <trkpt lat="42.88005" lon="0.13801">
        <ele>2035.2482910156</ele>
        <time>2015-07-23T12:41:15Z</time>
      </trkpt>
      <trkpt lat="42.88013" lon="0.13799">
        <ele>2033.8063964844</ele>
        <time>2015-07-23T12:41:32Z</time>
      </trkpt>
      <trkpt lat="42.88019" lon="0.13791">
        <ele>2032.3645019531</ele>
        <time>2015-07-23T12:41:51Z</time>
      </trkpt>
      <trkpt lat="42.88027" lon="0.13789">
        <ele>2032.3645019531</ele>
        <time>2015-07-23T12:42:04Z</time>
      </trkpt>
      <trkpt lat="42.88034" lon="0.13787">
        <ele>2030.4418945312</ele>
        <time>2015-07-23T12:42:19Z</time>
      </trkpt>
      <trkpt lat="42.88035" lon="0.13787">
        <ele>2029.48046875</ele>
        <time>2015-07-23T12:42:21Z</time>
      </trkpt>
      <trkpt lat="42.88039" lon="0.1379">
        <ele>2030.9226074219</ele>
        <time>2015-07-23T12:42:25Z</time>
      </trkpt>
      <trkpt lat="42.88045" lon="0.13798">
        <ele>2029.48046875</ele>
        <time>2015-07-23T12:42:39Z</time>
      </trkpt>
      <trkpt lat="42.88056" lon="0.13804">
        <ele>2028.0385742188</ele>
        <time>2015-07-23T12:42:51Z</time>
      </trkpt>
      <trkpt lat="42.88064" lon="0.13809">
        <ele>2028.9997558594</ele>
        <time>2015-07-23T12:43:03Z</time>
      </trkpt>
      <trkpt lat="42.88073" lon="0.13814">
        <ele>2028.0385742188</ele>
        <time>2015-07-23T12:43:17Z</time>
      </trkpt>
      <trkpt lat="42.8808" lon="0.13815">
        <ele>2027.0771484375</ele>
        <time>2015-07-23T12:43:31Z</time>
      </trkpt>
      <trkpt lat="42.88085" lon="0.1381">
        <ele>2027.5576171875</ele>
        <time>2015-07-23T12:43:43Z</time>
      </trkpt>
      <trkpt lat="42.88089" lon="0.13799">
        <ele>2024.1931152344</ele>
        <time>2015-07-23T12:43:56Z</time>
      </trkpt>
      <trkpt lat="42.88089" lon="0.13797">
        <ele>2025.6350097656</ele>
        <time>2015-07-23T12:43:59Z</time>
      </trkpt>
      <trkpt lat="42.88089" lon="0.13796">
        <ele>2023.7124023438</ele>
        <time>2015-07-23T12:44:01Z</time>
      </trkpt>
      <trkpt lat="42.88088" lon="0.1379">
        <ele>2022.2705078125</ele>
        <time>2015-07-23T12:44:11Z</time>
      </trkpt>
      <trkpt lat="42.88088" lon="0.13788">
        <ele>2020.8286132812</ele>
        <time>2015-07-23T12:44:13Z</time>
      </trkpt>
      <trkpt lat="42.88093" lon="0.13765">
        <ele>2020.3479003906</ele>
        <time>2015-07-23T12:44:32Z</time>
      </trkpt>
      <trkpt lat="42.88096" lon="0.13744">
        <ele>2020.8286132812</ele>
        <time>2015-07-23T12:44:51Z</time>
      </trkpt>
      <trkpt lat="42.88098" lon="0.13725">
        <ele>2018.4252929688</ele>
        <time>2015-07-23T12:45:10Z</time>
      </trkpt>
      <trkpt lat="42.88098" lon="0.13713">
        <ele>2016.5026855469</ele>
        <time>2015-07-23T12:45:22Z</time>
      </trkpt>
      <trkpt lat="42.88098" lon="0.1371">
        <ele>2016.0219726562</ele>
        <time>2015-07-23T12:45:26Z</time>
      </trkpt>
      <trkpt lat="42.88098" lon="0.13701">
        <ele>2016.0219726562</ele>
        <time>2015-07-23T12:45:40Z</time>
      </trkpt>
      <trkpt lat="42.88102" lon="0.13692">
        <ele>2013.6186523438</ele>
        <time>2015-07-23T12:45:54Z</time>
      </trkpt>
      <trkpt lat="42.88103" lon="0.13687">
        <ele>2012.6574707031</ele>
        <time>2015-07-23T12:46:09Z</time>
      </trkpt>
      <trkpt lat="42.88104" lon="0.13677">
        <ele>2009.7731933594</ele>
        <time>2015-07-23T12:46:25Z</time>
      </trkpt>
      <trkpt lat="42.88102" lon="0.13666">
        <ele>2007.3701171875</ele>
        <time>2015-07-23T12:46:41Z</time>
      </trkpt>
      <trkpt lat="42.88102" lon="0.13659">
        <ele>2004.0056152344</ele>
        <time>2015-07-23T12:46:50Z</time>
      </trkpt>
      <trkpt lat="42.881" lon="0.13648">
        <ele>2003.0441894531</ele>
        <time>2015-07-23T12:47:07Z</time>
      </trkpt>
      <trkpt lat="42.88094" lon="0.13643">
        <ele>1999.6796875</ele>
        <time>2015-07-23T12:47:20Z</time>
      </trkpt>
      <trkpt lat="42.88096" lon="0.13635">
        <ele>1996.7956542969</ele>
        <time>2015-07-23T12:47:33Z</time>
      </trkpt>
      <trkpt lat="42.88098" lon="0.13625">
        <ele>1994.8728027344</ele>
        <time>2015-07-23T12:47:50Z</time>
      </trkpt>
      <trkpt lat="42.88099" lon="0.13621">
        <ele>1993.9116210938</ele>
        <time>2015-07-23T12:48:03Z</time>
      </trkpt>
      <trkpt lat="42.881" lon="0.13615">
        <ele>1991.5083007812</ele>
        <time>2015-07-23T12:48:19Z</time>
      </trkpt>
      <trkpt lat="42.88101" lon="0.13611">
        <ele>1990.06640625</ele>
        <time>2015-07-23T12:48:36Z</time>
      </trkpt>
      <trkpt lat="42.88101" lon="0.13604">
        <ele>1988.6245117188</ele>
        <time>2015-07-23T12:48:50Z</time>
      </trkpt>
      <trkpt lat="42.88101" lon="0.13595">
        <ele>1985.7404785156</ele>
        <time>2015-07-23T12:49:09Z</time>
      </trkpt>
      <trkpt lat="42.88102" lon="0.13589">
        <ele>1985.259765625</ele>
        <time>2015-07-23T12:49:25Z</time>
      </trkpt>
      <trkpt lat="42.88099" lon="0.13588">
        <ele>1982.3759765625</ele>
        <time>2015-07-23T12:49:38Z</time>
      </trkpt>
      <trkpt lat="42.88094" lon="0.13589">
        <ele>1980.9340820312</ele>
        <time>2015-07-23T12:49:52Z</time>
      </trkpt>
      <trkpt lat="42.88091" lon="0.13584">
        <ele>1977.0886230469</ele>
        <time>2015-07-23T12:50:03Z</time>
      </trkpt>
      <trkpt lat="42.88092" lon="0.13574">
        <ele>1976.1271972656</ele>
        <time>2015-07-23T12:50:12Z</time>
      </trkpt>
      <trkpt lat="42.88097" lon="0.13555">
        <ele>1974.6853027344</ele>
        <time>2015-07-23T12:50:28Z</time>
      </trkpt>
      <trkpt lat="42.88105" lon="0.1354">
        <ele>1974.6853027344</ele>
        <time>2015-07-23T12:50:45Z</time>
      </trkpt>
      <trkpt lat="42.88106" lon="0.13535">
        <ele>1974.2045898438</ele>
        <time>2015-07-23T12:50:50Z</time>
      </trkpt>
      <trkpt lat="42.88108" lon="0.1353">
        <ele>1973.2434082031</ele>
        <time>2015-07-23T12:50:54Z</time>
      </trkpt>
      <trkpt lat="42.88118" lon="0.13516">
        <ele>1971.3205566406</ele>
        <time>2015-07-23T12:51:11Z</time>
      </trkpt>
      <trkpt lat="42.88119" lon="0.13507">
        <ele>1971.8012695312</ele>
        <time>2015-07-23T12:51:23Z</time>
      </trkpt>
      <trkpt lat="42.88121" lon="0.13501">
        <ele>1971.3205566406</ele>
        <time>2015-07-23T12:51:40Z</time>
      </trkpt>
      <trkpt lat="42.88128" lon="0.13507">
        <ele>1970.8400878906</ele>
        <time>2015-07-23T12:52:06Z</time>
      </trkpt>
      <trkpt lat="42.88128" lon="0.13508">
        <ele>1971.3205566406</ele>
        <time>2015-07-23T12:52:07Z</time>
      </trkpt>
      <trkpt lat="42.88135" lon="0.13509">
        <ele>1971.3205566406</ele>
        <time>2015-07-23T12:52:20Z</time>
      </trkpt>
      <trkpt lat="42.8814" lon="0.13505">
        <ele>1971.8012695312</ele>
        <time>2015-07-23T12:52:33Z</time>
      </trkpt>
      <trkpt lat="42.88145" lon="0.13497">
        <ele>1971.3205566406</ele>
        <time>2015-07-23T12:52:51Z</time>
      </trkpt>
      <trkpt lat="42.88143" lon="0.1349">
        <ele>1970.359375</ele>
        <time>2015-07-23T12:53:02Z</time>
      </trkpt>
      <trkpt lat="42.88147" lon="0.13482">
        <ele>1969.3981933594</ele>
        <time>2015-07-23T12:53:15Z</time>
      </trkpt>
      <trkpt lat="42.88148" lon="0.1348">
        <ele>1969.3981933594</ele>
        <time>2015-07-23T12:53:17Z</time>
      </trkpt>
      <trkpt lat="42.88151" lon="0.13467">
        <ele>1966.9948730469</ele>
        <time>2015-07-23T12:53:32Z</time>
      </trkpt>
      <trkpt lat="42.88153" lon="0.13462">
        <ele>1967.4753417969</ele>
        <time>2015-07-23T12:53:38Z</time>
      </trkpt>
      <trkpt lat="42.88158" lon="0.13452">
        <ele>1966.0334472656</ele>
        <time>2015-07-23T12:53:51Z</time>
      </trkpt>
      <trkpt lat="42.88159" lon="0.13434">
        <ele>1965.072265625</ele>
        <time>2015-07-23T12:54:17Z</time>
      </trkpt>
      <trkpt lat="42.8816" lon="0.13431">
        <ele>1964.5915527344</ele>
        <time>2015-07-23T12:54:23Z</time>
      </trkpt>
      <trkpt lat="42.88163" lon="0.13417">
        <ele>1964.5915527344</ele>
        <time>2015-07-23T12:54:37Z</time>
      </trkpt>
      <trkpt lat="42.88159" lon="0.13407">
        <ele>1964.5915527344</ele>
        <time>2015-07-23T12:54:48Z</time>
      </trkpt>
      <trkpt lat="42.88153" lon="0.1339">
        <ele>1963.6298828125</ele>
        <time>2015-07-23T12:55:01Z</time>
      </trkpt>
      <trkpt lat="42.88144" lon="0.13372">
        <ele>1963.1494140625</ele>
        <time>2015-07-23T12:55:18Z</time>
      </trkpt>
      <trkpt lat="42.88141" lon="0.13361">
        <ele>1961.7075195312</ele>
        <time>2015-07-23T12:55:31Z</time>
      </trkpt>
      <trkpt lat="42.88139" lon="0.13345">
        <ele>1961.7075195312</ele>
        <time>2015-07-23T12:55:46Z</time>
      </trkpt>
      <trkpt lat="42.8814" lon="0.13331">
        <ele>1964.5915527344</ele>
        <time>2015-07-23T12:56:02Z</time>
      </trkpt>
      <trkpt lat="42.88142" lon="0.1332">
        <ele>1967.9560546875</ele>
        <time>2015-07-23T12:56:19Z</time>
      </trkpt>
      <trkpt lat="42.88142" lon="0.13301">
        <ele>1967.9560546875</ele>
        <time>2015-07-23T12:56:37Z</time>
      </trkpt>
      <trkpt lat="42.88145" lon="0.13287">
        <ele>1967.9560546875</ele>
        <time>2015-07-23T12:56:53Z</time>
      </trkpt>
      <trkpt lat="42.8815" lon="0.13274">
        <ele>1969.3981933594</ele>
        <time>2015-07-23T12:57:07Z</time>
      </trkpt>
      <trkpt lat="42.88151" lon="0.1326">
        <ele>1969.3981933594</ele>
        <time>2015-07-23T12:57:24Z</time>
      </trkpt>
      <trkpt lat="42.88152" lon="0.13244">
        <ele>1968.4367675781</ele>
        <time>2015-07-23T12:57:40Z</time>
      </trkpt>
      <trkpt lat="42.88154" lon="0.13233">
        <ele>1966.9948730469</ele>
        <time>2015-07-23T12:57:49Z</time>
      </trkpt>
      <trkpt lat="42.88155" lon="0.13218">
        <ele>1968.9174804688</ele>
        <time>2015-07-23T12:58:04Z</time>
      </trkpt>
      <trkpt lat="42.88158" lon="0.13203">
        <ele>1968.9174804688</ele>
        <time>2015-07-23T12:58:18Z</time>
      </trkpt>
      <trkpt lat="42.88159" lon="0.1319">
        <ele>1967.9560546875</ele>
        <time>2015-07-23T12:58:31Z</time>
      </trkpt>
      <trkpt lat="42.88162" lon="0.13177">
        <ele>1965.5529785156</ele>
        <time>2015-07-23T12:58:44Z</time>
      </trkpt>
      <trkpt lat="42.88167" lon="0.13162">
        <ele>1964.5915527344</ele>
        <time>2015-07-23T12:58:58Z</time>
      </trkpt>
      <trkpt lat="42.88172" lon="0.13149">
        <ele>1964.5915527344</ele>
        <time>2015-07-23T12:59:13Z</time>
      </trkpt>
      <trkpt lat="42.88176" lon="0.13134">
        <ele>1962.1879882812</ele>
        <time>2015-07-23T12:59:29Z</time>
      </trkpt>
      <trkpt lat="42.88175" lon="0.13124">
        <ele>1960.2653808594</ele>
        <time>2015-07-23T12:59:42Z</time>
      </trkpt>
      <trkpt lat="42.88178" lon="0.13109">
        <ele>1960.2653808594</ele>
        <time>2015-07-23T12:59:58Z</time>
      </trkpt>
      <trkpt lat="42.88179" lon="0.13097">
        <ele>1959.3041992188</ele>
        <time>2015-07-23T13:00:10Z</time>
      </trkpt>
      <trkpt lat="42.88182" lon="0.13086">
        <ele>1958.3427734375</ele>
        <time>2015-07-23T13:00:22Z</time>
      </trkpt>
      <trkpt lat="42.88187" lon="0.13075">
        <ele>1957.8623046875</ele>
        <time>2015-07-23T13:00:35Z</time>
      </trkpt>
      <trkpt lat="42.8819" lon="0.13062">
        <ele>1958.3427734375</ele>
        <time>2015-07-23T13:00:48Z</time>
      </trkpt>
      <trkpt lat="42.88197" lon="0.13048">
        <ele>1958.3427734375</ele>
        <time>2015-07-23T13:01:02Z</time>
      </trkpt>
      <trkpt lat="42.88201" lon="0.13021">
        <ele>1959.3041992188</ele>
        <time>2015-07-23T13:01:20Z</time>
      </trkpt>
      <trkpt lat="42.88205" lon="0.13003">
        <ele>1960.2653808594</ele>
        <time>2015-07-23T13:01:34Z</time>
      </trkpt>
      <trkpt lat="42.88208" lon="0.12981">
        <ele>1959.7846679688</ele>
        <time>2015-07-23T13:01:53Z</time>
      </trkpt>
      <trkpt lat="42.88211" lon="0.12968">
        <ele>1958.8234863281</ele>
        <time>2015-07-23T13:02:08Z</time>
      </trkpt>
      <trkpt lat="42.88211" lon="0.12957">
        <ele>1956.4201660156</ele>
        <time>2015-07-23T13:02:20Z</time>
      </trkpt>
      <trkpt lat="42.88217" lon="0.12938">
        <ele>1953.5363769531</ele>
        <time>2015-07-23T13:02:39Z</time>
      </trkpt>
      <trkpt lat="42.88222" lon="0.12926">
        <ele>1953.0556640625</ele>
        <time>2015-07-23T13:02:53Z</time>
      </trkpt>
      <trkpt lat="42.88228" lon="0.12914">
        <ele>1951.6137695312</ele>
        <time>2015-07-23T13:03:08Z</time>
      </trkpt>
      <trkpt lat="42.88228" lon="0.12906">
        <ele>1948.7297363281</ele>
        <time>2015-07-23T13:03:26Z</time>
      </trkpt>
      <trkpt lat="42.88219" lon="0.12909">
        <ele>1946.3264160156</ele>
        <time>2015-07-23T13:03:42Z</time>
      </trkpt>
      <trkpt lat="42.88212" lon="0.12906">
        <ele>1943.4423828125</ele>
        <time>2015-07-23T13:03:59Z</time>
      </trkpt>
      <trkpt lat="42.88214" lon="0.12898">
        <ele>1942.0004882812</ele>
        <time>2015-07-23T13:04:12Z</time>
      </trkpt>
      <trkpt lat="42.88216" lon="0.12888">
        <ele>1939.1164550781</ele>
        <time>2015-07-23T13:04:27Z</time>
      </trkpt>
      <trkpt lat="42.88223" lon="0.12872">
        <ele>1938.6359863281</ele>
        <time>2015-07-23T13:04:44Z</time>
      </trkpt>
      <trkpt lat="42.88225" lon="0.12854">
        <ele>1937.6745605469</ele>
        <time>2015-07-23T13:05:03Z</time>
      </trkpt>
      <trkpt lat="42.88224" lon="0.12844">
        <ele>1935.751953125</ele>
        <time>2015-07-23T13:05:17Z</time>
      </trkpt>
      <trkpt lat="42.88225" lon="0.12839">
        <ele>1933.8293457031</ele>
        <time>2015-07-23T13:05:22Z</time>
      </trkpt>
      <trkpt lat="42.88232" lon="0.12818">
        <ele>1932.8679199219</ele>
        <time>2015-07-23T13:05:40Z</time>
      </trkpt>
      <trkpt lat="42.88236" lon="0.12805">
        <ele>1930.9453125</ele>
        <time>2015-07-23T13:05:57Z</time>
      </trkpt>
      <trkpt lat="42.88228" lon="0.12798">
        <ele>1929.9838867188</ele>
        <time>2015-07-23T13:06:10Z</time>
      </trkpt>
      <trkpt lat="42.88227" lon="0.12795">
        <ele>1930.4645996094</ele>
        <time>2015-07-23T13:06:14Z</time>
      </trkpt>
      <trkpt lat="42.88213" lon="0.12786">
        <ele>1930.4645996094</ele>
        <time>2015-07-23T13:06:31Z</time>
      </trkpt>
      <trkpt lat="42.88204" lon="0.12783">
        <ele>1930.9453125</ele>
        <time>2015-07-23T13:06:42Z</time>
      </trkpt>
      <trkpt lat="42.88198" lon="0.12803">
        <ele>1929.9838867188</ele>
        <time>2015-07-23T13:06:59Z</time>
      </trkpt>
      <trkpt lat="42.88198" lon="0.12804">
        <ele>1929.9838867188</ele>
        <time>2015-07-23T13:07:10Z</time>
      </trkpt>
      <trkpt lat="42.88202" lon="0.12798">
        <ele>1929.9838867188</ele>
        <time>2015-07-23T13:07:16Z</time>
      </trkpt>
      <trkpt lat="42.88203" lon="0.12794">
        <ele>1929.9838867188</ele>
        <time>2015-07-23T13:07:19Z</time>
      </trkpt>
      <trkpt lat="42.88202" lon="0.12779">
        <ele>1930.4645996094</ele>
        <time>2015-07-23T13:07:35Z</time>
      </trkpt>
      <trkpt lat="42.88199" lon="0.12775">
        <ele>1930.4645996094</ele>
        <time>2015-07-23T13:07:49Z</time>
      </trkpt>
      <trkpt lat="42.882" lon="0.12775">
        <ele>1929.9838867188</ele>
        <time>2015-07-23T13:08:14Z</time>
      </trkpt>
      <trkpt lat="42.882" lon="0.12764">
        <ele>1929.5031738281</ele>
        <time>2015-07-23T13:08:28Z</time>
      </trkpt>
      <trkpt lat="42.88201" lon="0.12748">
        <ele>1929.5031738281</ele>
        <time>2015-07-23T13:08:43Z</time>
      </trkpt>
      <trkpt lat="42.88199" lon="0.12729">
        <ele>1929.5031738281</ele>
        <time>2015-07-23T13:09:00Z</time>
      </trkpt>
      <trkpt lat="42.88197" lon="0.12716">
        <ele>1929.0224609375</ele>
        <time>2015-07-23T13:09:15Z</time>
      </trkpt>
      <trkpt lat="42.88198" lon="0.12699">
        <ele>1927.5805664062</ele>
        <time>2015-07-23T13:09:31Z</time>
      </trkpt>
      <trkpt lat="42.882" lon="0.12687">
        <ele>1926.138671875</ele>
        <time>2015-07-23T13:09:45Z</time>
      </trkpt>
      <trkpt lat="42.88202" lon="0.12674">
        <ele>1924.6967773438</ele>
        <time>2015-07-23T13:10:00Z</time>
      </trkpt>
      <trkpt lat="42.88201" lon="0.12659">
        <ele>1921.8127441406</ele>
        <time>2015-07-23T13:10:16Z</time>
      </trkpt>
      <trkpt lat="42.88201" lon="0.12658">
        <ele>1921.8127441406</ele>
        <time>2015-07-23T13:10:17Z</time>
      </trkpt>
      <trkpt lat="42.88199" lon="0.12643">
        <ele>1920.8515625</ele>
        <time>2015-07-23T13:10:31Z</time>
      </trkpt>
      <trkpt lat="42.88198" lon="0.12628">
        <ele>1920.3708496094</ele>
        <time>2015-07-23T13:10:47Z</time>
      </trkpt>
      <trkpt lat="42.88201" lon="0.1262">
        <ele>1917.0063476562</ele>
        <time>2015-07-23T13:10:58Z</time>
      </trkpt>
      <trkpt lat="42.88202" lon="0.12616">
        <ele>1917.4868164062</ele>
        <time>2015-07-23T13:11:11Z</time>
      </trkpt>
      <trkpt lat="42.88199" lon="0.126">
        <ele>1916.044921875</ele>
        <time>2015-07-23T13:11:28Z</time>
      </trkpt>
      <trkpt lat="42.88199" lon="0.12589">
        <ele>1912.6801757812</ele>
        <time>2015-07-23T13:11:41Z</time>
      </trkpt>
      <trkpt lat="42.88199" lon="0.12588">
        <ele>1913.1608886719</ele>
        <time>2015-07-23T13:11:42Z</time>
      </trkpt>
      <trkpt lat="42.88199" lon="0.12581">
        <ele>1911.7189941406</ele>
        <time>2015-07-23T13:11:50Z</time>
      </trkpt>
      <trkpt lat="42.88199" lon="0.12567">
        <ele>1910.7575683594</ele>
        <time>2015-07-23T13:12:05Z</time>
      </trkpt>
      <trkpt lat="42.882" lon="0.12558">
        <ele>1909.7961425781</ele>
        <time>2015-07-23T13:12:17Z</time>
      </trkpt>
      <trkpt lat="42.8821" lon="0.12545">
        <ele>1908.8349609375</ele>
        <time>2015-07-23T13:12:35Z</time>
      </trkpt>
      <trkpt lat="42.88216" lon="0.12547">
        <ele>1906.9123535156</ele>
        <time>2015-07-23T13:12:49Z</time>
      </trkpt>
      <trkpt lat="42.88223" lon="0.12548">
        <ele>1906.431640625</ele>
        <time>2015-07-23T13:13:00Z</time>
      </trkpt>
      <trkpt lat="42.88228" lon="0.12547">
        <ele>1906.9123535156</ele>
        <time>2015-07-23T13:13:12Z</time>
      </trkpt>
      <trkpt lat="42.88231" lon="0.12536">
        <ele>1905.9509277344</ele>
        <time>2015-07-23T13:13:37Z</time>
      </trkpt>
      <trkpt lat="42.88238" lon="0.12518">
        <ele>1904.5090332031</ele>
        <time>2015-07-23T13:13:54Z</time>
      </trkpt>
      <trkpt lat="42.88241" lon="0.125">
        <ele>1904.9897460938</ele>
        <time>2015-07-23T13:14:10Z</time>
      </trkpt>
      <trkpt lat="42.88239" lon="0.12495">
        <ele>1905.9509277344</ele>
        <time>2015-07-23T13:14:24Z</time>
      </trkpt>
      <trkpt lat="42.88247" lon="0.12494">
        <ele>1904.9897460938</ele>
        <time>2015-07-23T13:14:37Z</time>
      </trkpt>
      <trkpt lat="42.88255" lon="0.12491">
        <ele>1905.9509277344</ele>
        <time>2015-07-23T13:14:50Z</time>
      </trkpt>
      <trkpt lat="42.88262" lon="0.12481">
        <ele>1905.4704589844</ele>
        <time>2015-07-23T13:15:06Z</time>
      </trkpt>
      <trkpt lat="42.88263" lon="0.12468">
        <ele>1906.9123535156</ele>
        <time>2015-07-23T13:15:30Z</time>
      </trkpt>
      <trkpt lat="42.88262" lon="0.12466">
        <ele>1907.3930664062</ele>
        <time>2015-07-23T13:15:32Z</time>
      </trkpt>
      <trkpt lat="42.88252" lon="0.12436">
        <ele>1907.8737792969</ele>
        <time>2015-07-23T13:15:55Z</time>
      </trkpt>
      <trkpt lat="42.88248" lon="0.12412">
        <ele>1907.8737792969</ele>
        <time>2015-07-23T13:16:13Z</time>
      </trkpt>
      <trkpt lat="42.88244" lon="0.12382">
        <ele>1907.8737792969</ele>
        <time>2015-07-23T13:16:34Z</time>
      </trkpt>
      <trkpt lat="42.88242" lon="0.12359">
        <ele>1908.3542480469</ele>
        <time>2015-07-23T13:16:53Z</time>
      </trkpt>
      <trkpt lat="42.88241" lon="0.12338">
        <ele>1908.3542480469</ele>
        <time>2015-07-23T13:17:10Z</time>
      </trkpt>
      <trkpt lat="42.88242" lon="0.12318">
        <ele>1907.3930664062</ele>
        <time>2015-07-23T13:17:28Z</time>
      </trkpt>
      <trkpt lat="42.88239" lon="0.12303">
        <ele>1906.9123535156</ele>
        <time>2015-07-23T13:17:43Z</time>
      </trkpt>
      <trkpt lat="42.88239" lon="0.12291">
        <ele>1906.431640625</ele>
        <time>2015-07-23T13:17:57Z</time>
      </trkpt>
      <trkpt lat="42.88241" lon="0.12274">
        <ele>1905.9509277344</ele>
        <time>2015-07-23T13:18:13Z</time>
      </trkpt>
      <trkpt lat="42.88238" lon="0.12259">
        <ele>1905.4704589844</ele>
        <time>2015-07-23T13:18:30Z</time>
      </trkpt>
      <trkpt lat="42.88237" lon="0.12245">
        <ele>1906.9123535156</ele>
        <time>2015-07-23T13:18:46Z</time>
      </trkpt>
      <trkpt lat="42.88237" lon="0.12232">
        <ele>1906.9123535156</ele>
        <time>2015-07-23T13:19:01Z</time>
      </trkpt>
      <trkpt lat="42.88237" lon="0.12226">
        <ele>1907.3930664062</ele>
        <time>2015-07-23T13:19:22Z</time>
      </trkpt>
      <trkpt lat="42.88239" lon="0.12207">
        <ele>1908.3542480469</ele>
        <time>2015-07-23T13:19:38Z</time>
      </trkpt>
      <trkpt lat="42.88244" lon="0.12191">
        <ele>1910.2768554688</ele>
        <time>2015-07-23T13:19:55Z</time>
      </trkpt>
      <trkpt lat="42.88241" lon="0.12173">
        <ele>1910.2768554688</ele>
        <time>2015-07-23T13:20:11Z</time>
      </trkpt>
      <trkpt lat="42.88243" lon="0.12153">
        <ele>1909.3156738281</ele>
        <time>2015-07-23T13:20:26Z</time>
      </trkpt>
      <trkpt lat="42.88243" lon="0.12148">
        <ele>1908.8349609375</ele>
        <time>2015-07-23T13:20:31Z</time>
      </trkpt>
      <trkpt lat="42.88244" lon="0.12138">
        <ele>1907.3930664062</ele>
        <time>2015-07-23T13:20:39Z</time>
      </trkpt>
      <trkpt lat="42.88239" lon="0.12119">
        <ele>1906.431640625</ele>
        <time>2015-07-23T13:20:57Z</time>
      </trkpt>
      <trkpt lat="42.88234" lon="0.12109">
        <ele>1904.0285644531</ele>
        <time>2015-07-23T13:21:13Z</time>
      </trkpt>
      <trkpt lat="42.8823" lon="0.12103">
        <ele>1903.5478515625</ele>
        <time>2015-07-23T13:21:27Z</time>
      </trkpt>
      <trkpt lat="42.88226" lon="0.12097">
        <ele>1903.0671386719</ele>
        <time>2015-07-23T13:21:42Z</time>
      </trkpt>
      <trkpt lat="42.88221" lon="0.1209">
        <ele>1899.7023925781</ele>
        <time>2015-07-23T13:21:54Z</time>
      </trkpt>
      <trkpt lat="42.88212" lon="0.12073">
        <ele>1898.2602539062</ele>
        <time>2015-07-23T13:22:12Z</time>
      </trkpt>
      <trkpt lat="42.882" lon="0.12065">
        <ele>1898.7409667969</ele>
        <time>2015-07-23T13:22:27Z</time>
      </trkpt>
      <trkpt lat="42.88191" lon="0.12053">
        <ele>1898.2602539062</ele>
        <time>2015-07-23T13:22:43Z</time>
      </trkpt>
      <trkpt lat="42.88184" lon="0.12042">
        <ele>1897.2990722656</ele>
        <time>2015-07-23T13:22:59Z</time>
      </trkpt>
      <trkpt lat="42.88179" lon="0.12026">
        <ele>1895.3764648438</ele>
        <time>2015-07-23T13:23:18Z</time>
      </trkpt>
      <trkpt lat="42.88176" lon="0.1201">
        <ele>1894.4150390625</ele>
        <time>2015-07-23T13:23:36Z</time>
      </trkpt>
      <trkpt lat="42.88178" lon="0.11994">
        <ele>1893.4538574219</ele>
        <time>2015-07-23T13:23:52Z</time>
      </trkpt>
      <trkpt lat="42.88184" lon="0.11985">
        <ele>1892.0119628906</ele>
        <time>2015-07-23T13:24:09Z</time>
      </trkpt>
      <trkpt lat="42.88188" lon="0.11975">
        <ele>1891.0505371094</ele>
        <time>2015-07-23T13:24:23Z</time>
      </trkpt>
      <trkpt lat="42.88191" lon="0.11963">
        <ele>1890.0893554688</ele>
        <time>2015-07-23T13:24:40Z</time>
      </trkpt>
      <trkpt lat="42.88195" lon="0.11952">
        <ele>1887.6860351562</ele>
        <time>2015-07-23T13:24:58Z</time>
      </trkpt>
      <trkpt lat="42.88198" lon="0.11943">
        <ele>1884.8022460938</ele>
        <time>2015-07-23T13:25:13Z</time>
      </trkpt>
      <trkpt lat="42.88201" lon="0.1195">
        <ele>1883.8405761719</ele>
        <time>2015-07-23T13:25:26Z</time>
      </trkpt>
      <trkpt lat="42.88206" lon="0.11948">
        <ele>1879.5146484375</ele>
        <time>2015-07-23T13:25:40Z</time>
      </trkpt>
      <trkpt lat="42.88209" lon="0.1194">
        <ele>1878.0727539062</ele>
        <time>2015-07-23T13:25:57Z</time>
      </trkpt>
      <trkpt lat="42.88214" lon="0.11934">
        <ele>1876.630859375</ele>
        <time>2015-07-23T13:26:13Z</time>
      </trkpt>
      <trkpt lat="42.88214" lon="0.11926">
        <ele>1873.2663574219</ele>
        <time>2015-07-23T13:26:25Z</time>
      </trkpt>
      <trkpt lat="42.8822" lon="0.11919">
        <ele>1871.3435058594</ele>
        <time>2015-07-23T13:26:38Z</time>
      </trkpt>
      <trkpt lat="42.88224" lon="0.11905">
        <ele>1869.9016113281</ele>
        <time>2015-07-23T13:26:54Z</time>
      </trkpt>
      <trkpt lat="42.88223" lon="0.11898">
        <ele>1867.498046875</ele>
        <time>2015-07-23T13:27:05Z</time>
      </trkpt>
      <trkpt lat="42.88221" lon="0.11892">
        <ele>1867.017578125</ele>
        <time>2015-07-23T13:27:14Z</time>
      </trkpt>
      <trkpt lat="42.8822" lon="0.11882">
        <ele>1865.0949707031</ele>
        <time>2015-07-23T13:27:29Z</time>
      </trkpt>
      <trkpt lat="42.88221" lon="0.11871">
        <ele>1862.2109375</ele>
        <time>2015-07-23T13:27:46Z</time>
      </trkpt>
      <trkpt lat="42.88221" lon="0.1187">
        <ele>1861.73046875</ele>
        <time>2015-07-23T13:27:48Z</time>
      </trkpt>
      <trkpt lat="42.88221" lon="0.11858">
        <ele>1859.8076171875</ele>
        <time>2015-07-23T13:28:03Z</time>
      </trkpt>
      <trkpt lat="42.88224" lon="0.11849">
        <ele>1858.8464355469</ele>
        <time>2015-07-23T13:28:19Z</time>
      </trkpt>
      <trkpt lat="42.88221" lon="0.11843">
        <ele>1856.923828125</ele>
        <time>2015-07-23T13:28:28Z</time>
      </trkpt>
      <trkpt lat="42.88222" lon="0.11832">
        <ele>1855.4819335938</ele>
        <time>2015-07-23T13:28:42Z</time>
      </trkpt>
      <trkpt lat="42.88223" lon="0.11829">
        <ele>1854.0400390625</ele>
        <time>2015-07-23T13:28:45Z</time>
      </trkpt>
      <trkpt lat="42.88225" lon="0.11816">
        <ele>1851.1557617188</ele>
        <time>2015-07-23T13:28:57Z</time>
      </trkpt>
      <trkpt lat="42.88227" lon="0.11798">
        <ele>1849.2331542969</ele>
        <time>2015-07-23T13:29:15Z</time>
      </trkpt>
      <trkpt lat="42.88226" lon="0.11791">
        <ele>1845.3879394531</ele>
        <time>2015-07-23T13:29:24Z</time>
      </trkpt>
      <trkpt lat="42.88226" lon="0.11789">
        <ele>1845.3879394531</ele>
        <time>2015-07-23T13:29:25Z</time>
      </trkpt>
      <trkpt lat="42.88228" lon="0.11786">
        <ele>1843.9460449219</ele>
        <time>2015-07-23T13:29:32Z</time>
      </trkpt>
      <trkpt lat="42.88233" lon="0.11776">
        <ele>1843.4653320312</ele>
        <time>2015-07-23T13:29:47Z</time>
      </trkpt>
      <trkpt lat="42.88239" lon="0.11762">
        <ele>1841.5427246094</ele>
        <time>2015-07-23T13:30:05Z</time>
      </trkpt>
      <trkpt lat="42.88246" lon="0.11748">
        <ele>1840.1008300781</ele>
        <time>2015-07-23T13:30:21Z</time>
      </trkpt>
      <trkpt lat="42.8825" lon="0.11727">
        <ele>1837.216796875</ele>
        <time>2015-07-23T13:30:37Z</time>
      </trkpt>
      <trkpt lat="42.88254" lon="0.11724">
        <ele>1836.7360839844</ele>
        <time>2015-07-23T13:30:52Z</time>
      </trkpt>
      <trkpt lat="42.88249" lon="0.11707">
        <ele>1833.3713378906</ele>
        <time>2015-07-23T13:31:12Z</time>
      </trkpt>
      <trkpt lat="42.88252" lon="0.11699">
        <ele>1832.41015625</ele>
        <time>2015-07-23T13:31:27Z</time>
      </trkpt>
      <trkpt lat="42.88253" lon="0.11694">
        <ele>1830.0068359375</ele>
        <time>2015-07-23T13:31:33Z</time>
      </trkpt>
      <trkpt lat="42.88258" lon="0.11679">
        <ele>1828.5649414062</ele>
        <time>2015-07-23T13:31:53Z</time>
      </trkpt>
      <trkpt lat="42.88258" lon="0.11664">
        <ele>1826.6423339844</ele>
        <time>2015-07-23T13:32:11Z</time>
      </trkpt>
      <trkpt lat="42.88255" lon="0.11657">
        <ele>1825.6809082031</ele>
        <time>2015-07-23T13:32:17Z</time>
      </trkpt>
      <trkpt lat="42.88254" lon="0.11662">
        <ele>1823.7583007812</ele>
        <time>2015-07-23T13:32:31Z</time>
      </trkpt>
      <trkpt lat="42.88257" lon="0.11653">
        <ele>1822.31640625</ele>
        <time>2015-07-23T13:32:46Z</time>
      </trkpt>
      <trkpt lat="42.88257" lon="0.1164">
        <ele>1819.4323730469</ele>
        <time>2015-07-23T13:32:57Z</time>
      </trkpt>
      <trkpt lat="42.88258" lon="0.11622">
        <ele>1817.990234375</ele>
        <time>2015-07-23T13:33:10Z</time>
      </trkpt>
      <trkpt lat="42.88258" lon="0.11616">
        <ele>1817.5095214844</ele>
        <time>2015-07-23T13:33:13Z</time>
      </trkpt>
      <trkpt lat="42.88256" lon="0.11597">
        <ele>1814.1450195312</ele>
        <time>2015-07-23T13:33:24Z</time>
      </trkpt>
      <trkpt lat="42.88259" lon="0.11593">
        <ele>1811.7419433594</ele>
        <time>2015-07-23T13:33:41Z</time>
      </trkpt>
      <trkpt lat="42.88264" lon="0.11585">
        <ele>1811.7419433594</ele>
        <time>2015-07-23T13:33:57Z</time>
      </trkpt>
      <trkpt lat="42.88261" lon="0.11579">
        <ele>1810.2998046875</ele>
        <time>2015-07-23T13:34:11Z</time>
      </trkpt>
      <trkpt lat="42.8826" lon="0.11579">
        <ele>1810.2998046875</ele>
        <time>2015-07-23T13:34:12Z</time>
      </trkpt>
      <trkpt lat="42.88257" lon="0.11569">
        <ele>1809.8190917969</ele>
        <time>2015-07-23T13:34:27Z</time>
      </trkpt>
      <trkpt lat="42.88261" lon="0.11557">
        <ele>1810.2998046875</ele>
        <time>2015-07-23T13:34:43Z</time>
      </trkpt>
      <trkpt lat="42.8826" lon="0.11545">
        <ele>1810.2998046875</ele>
        <time>2015-07-23T13:34:53Z</time>
      </trkpt>
      <trkpt lat="42.88261" lon="0.11525">
        <ele>1807.8967285156</ele>
        <time>2015-07-23T13:35:08Z</time>
      </trkpt>
      <trkpt lat="42.88266" lon="0.11515">
        <ele>1806.4545898438</ele>
        <time>2015-07-23T13:35:22Z</time>
      </trkpt>
      <trkpt lat="42.88263" lon="0.11509">
        <ele>1804.0515136719</ele>
        <time>2015-07-23T13:35:37Z</time>
      </trkpt>
      <trkpt lat="42.88261" lon="0.11501">
        <ele>1803.5705566406</ele>
        <time>2015-07-23T13:35:50Z</time>
      </trkpt>
      <trkpt lat="42.88261" lon="0.11487">
        <ele>1801.6479492188</ele>
        <time>2015-07-23T13:36:04Z</time>
      </trkpt>
      <trkpt lat="42.88262" lon="0.11472">
        <ele>1799.2446289062</ele>
        <time>2015-07-23T13:36:17Z</time>
      </trkpt>
      <trkpt lat="42.88264" lon="0.11465">
        <ele>1797.3220214844</ele>
        <time>2015-07-23T13:36:29Z</time>
      </trkpt>
      <trkpt lat="42.88266" lon="0.1145">
        <ele>1794.9187011719</ele>
        <time>2015-07-23T13:36:45Z</time>
      </trkpt>
      <trkpt lat="42.88265" lon="0.11437">
        <ele>1793.9575195312</ele>
        <time>2015-07-23T13:36:57Z</time>
      </trkpt>
      <trkpt lat="42.88268" lon="0.11431">
        <ele>1792.515625</ele>
        <time>2015-07-23T13:37:14Z</time>
      </trkpt>
      <trkpt lat="42.88272" lon="0.11422">
        <ele>1790.5927734375</ele>
        <time>2015-07-23T13:37:29Z</time>
      </trkpt>
      <trkpt lat="42.88277" lon="0.11414">
        <ele>1788.6704101562</ele>
        <time>2015-07-23T13:37:43Z</time>
      </trkpt>
      <trkpt lat="42.88277" lon="0.11405">
        <ele>1787.7087402344</ele>
        <time>2015-07-23T13:37:58Z</time>
      </trkpt>
      <trkpt lat="42.8828" lon="0.11392">
        <ele>1786.2668457031</ele>
        <time>2015-07-23T13:38:14Z</time>
      </trkpt>
      <trkpt lat="42.88278" lon="0.11384">
        <ele>1785.3054199219</ele>
        <time>2015-07-23T13:38:27Z</time>
      </trkpt>
      <trkpt lat="42.88278" lon="0.11374">
        <ele>1782.9020996094</ele>
        <time>2015-07-23T13:38:43Z</time>
      </trkpt>
      <trkpt lat="42.88276" lon="0.11362">
        <ele>1782.4216308594</ele>
        <time>2015-07-23T13:38:57Z</time>
      </trkpt>
      <trkpt lat="42.88282" lon="0.1135">
        <ele>1781.9409179688</ele>
        <time>2015-07-23T13:39:12Z</time>
      </trkpt>
      <trkpt lat="42.88287" lon="0.11343">
        <ele>1780.4990234375</ele>
        <time>2015-07-23T13:39:27Z</time>
      </trkpt>
      <trkpt lat="42.88294" lon="0.11335">
        <ele>1780.4990234375</ele>
        <time>2015-07-23T13:39:40Z</time>
      </trkpt>
      <trkpt lat="42.88304" lon="0.11329">
        <ele>1779.0568847656</ele>
        <time>2015-07-23T13:39:56Z</time>
      </trkpt>
      <trkpt lat="42.88306" lon="0.11331">
        <ele>1777.1345214844</ele>
        <time>2015-07-23T13:40:12Z</time>
      </trkpt>
      <trkpt lat="42.88302" lon="0.11329">
        <ele>1776.1730957031</ele>
        <time>2015-07-23T13:47:57Z</time>
      </trkpt>
      <trkpt lat="42.88309" lon="0.11328">
        <ele>1776.1730957031</ele>
        <time>2015-07-23T13:49:29Z</time>
      </trkpt>
      <trkpt lat="42.88304" lon="0.11328">
        <ele>1775.6923828125</ele>
        <time>2015-07-23T13:50:23Z</time>
      </trkpt>
      <trkpt lat="42.88308" lon="0.11329">
        <ele>1771.8469238281</ele>
        <time>2015-07-23T13:53:32Z</time>
      </trkpt>
      <trkpt lat="42.88308" lon="0.1133">
        <ele>1777.6149902344</ele>
        <time>2015-07-23T13:53:33Z</time>
      </trkpt>
      <trkpt lat="42.88309" lon="0.1133">
        <ele>1775.2116699219</ele>
        <time>2015-07-23T13:53:34Z</time>
      </trkpt>
      <trkpt lat="42.88306" lon="0.11323">
        <ele>1775.6923828125</ele>
        <time>2015-07-23T13:54:08Z</time>
      </trkpt>
      <trkpt lat="42.88299" lon="0.11326">
        <ele>1777.1345214844</ele>
        <time>2015-07-23T13:54:21Z</time>
      </trkpt>
      <trkpt lat="42.88293" lon="0.1132">
        <ele>1776.1730957031</ele>
        <time>2015-07-23T13:54:35Z</time>
      </trkpt>
      <trkpt lat="42.88288" lon="0.11313">
        <ele>1774.7312011719</ele>
        <time>2015-07-23T13:54:48Z</time>
      </trkpt>
      <trkpt lat="42.8829" lon="0.11303">
        <ele>1773.2893066406</ele>
        <time>2015-07-23T13:55:03Z</time>
      </trkpt>
      <trkpt lat="42.88294" lon="0.11292">
        <ele>1771.8469238281</ele>
        <time>2015-07-23T13:55:17Z</time>
      </trkpt>
      <trkpt lat="42.88295" lon="0.11281">
        <ele>1769.9243164062</ele>
        <time>2015-07-23T13:55:32Z</time>
      </trkpt>
      <trkpt lat="42.88299" lon="0.11275">
        <ele>1768.0017089844</ele>
        <time>2015-07-23T13:55:45Z</time>
      </trkpt>
      <trkpt lat="42.88308" lon="0.11268">
        <ele>1767.5209960938</ele>
        <time>2015-07-23T13:55:59Z</time>
      </trkpt>
      <trkpt lat="42.88308" lon="0.11259">
        <ele>1767.0405273438</ele>
        <time>2015-07-23T13:56:15Z</time>
      </trkpt>
      <trkpt lat="42.88308" lon="0.11252">
        <ele>1767.0405273438</ele>
        <time>2015-07-23T13:56:29Z</time>
      </trkpt>
      <trkpt lat="42.8831" lon="0.11233">
        <ele>1765.5986328125</ele>
        <time>2015-07-23T13:56:45Z</time>
      </trkpt>
      <trkpt lat="42.88316" lon="0.1122">
        <ele>1764.6372070312</ele>
        <time>2015-07-23T13:56:58Z</time>
      </trkpt>
      <trkpt lat="42.88318" lon="0.11207">
        <ele>1764.1564941406</ele>
        <time>2015-07-23T13:57:12Z</time>
      </trkpt>
      <trkpt lat="42.88317" lon="0.11206">
        <ele>1764.1564941406</ele>
        <time>2015-07-23T13:57:29Z</time>
      </trkpt>
      <trkpt lat="42.88319" lon="0.11206">
        <ele>1763.67578125</ele>
        <time>2015-07-23T13:57:47Z</time>
      </trkpt>
      <trkpt lat="42.88322" lon="0.11206">
        <ele>1764.1564941406</ele>
        <time>2015-07-23T13:58:09Z</time>
      </trkpt>
      <trkpt lat="42.88323" lon="0.11203">
        <ele>1763.1953125</ele>
        <time>2015-07-23T13:58:29Z</time>
      </trkpt>
      <trkpt lat="42.88325" lon="0.11194">
        <ele>1763.1953125</ele>
        <time>2015-07-23T13:58:40Z</time>
      </trkpt>
      <trkpt lat="42.88324" lon="0.11184">
        <ele>1761.2727050781</ele>
        <time>2015-07-23T13:58:51Z</time>
      </trkpt>
      <trkpt lat="42.8833" lon="0.11175">
        <ele>1759.3500976562</ele>
        <time>2015-07-23T13:59:02Z</time>
      </trkpt>
      <trkpt lat="42.88338" lon="0.11166">
        <ele>1757.908203125</ele>
        <time>2015-07-23T13:59:12Z</time>
      </trkpt>
      <trkpt lat="42.88352" lon="0.11156">
        <ele>1756.9467773438</ele>
        <time>2015-07-23T13:59:30Z</time>
      </trkpt>
      <trkpt lat="42.88362" lon="0.11154">
        <ele>1756.9467773438</ele>
        <time>2015-07-23T13:59:44Z</time>
      </trkpt>
      <trkpt lat="42.88368" lon="0.11158">
        <ele>1755.0239257812</ele>
        <time>2015-07-23T13:59:52Z</time>
      </trkpt>
      <trkpt lat="42.88377" lon="0.11157">
        <ele>1754.5432128906</ele>
        <time>2015-07-23T14:00:04Z</time>
      </trkpt>
      <trkpt lat="42.88381" lon="0.11144">
        <ele>1754.0627441406</ele>
        <time>2015-07-23T14:00:13Z</time>
      </trkpt>
      <trkpt lat="42.8838" lon="0.11141">
        <ele>1754.0627441406</ele>
        <time>2015-07-23T14:00:27Z</time>
      </trkpt>
      <trkpt lat="42.8838" lon="0.11141">
        <ele>1753.58203125</ele>
        <time>2015-07-23T14:00:28Z</time>
      </trkpt>
      <trkpt lat="42.88383" lon="0.1114">
        <ele>1753.1013183594</ele>
        <time>2015-07-23T14:00:30Z</time>
      </trkpt>
      <trkpt lat="42.88386" lon="0.11139">
        <ele>1753.1013183594</ele>
        <time>2015-07-23T14:00:33Z</time>
      </trkpt>
      <trkpt lat="42.88406" lon="0.11115">
        <ele>1753.1013183594</ele>
        <time>2015-07-23T14:00:56Z</time>
      </trkpt>
      <trkpt lat="42.88423" lon="0.11093">
        <ele>1751.1787109375</ele>
        <time>2015-07-23T14:01:17Z</time>
      </trkpt>
      <trkpt lat="42.88434" lon="0.11075">
        <ele>1752.1398925781</ele>
        <time>2015-07-23T14:01:35Z</time>
      </trkpt>
      <trkpt lat="42.88443" lon="0.11057">
        <ele>1751.1787109375</ele>
        <time>2015-07-23T14:01:50Z</time>
      </trkpt>
      <trkpt lat="42.8846" lon="0.1104">
        <ele>1748.775390625</ele>
        <time>2015-07-23T14:02:08Z</time>
      </trkpt>
      <trkpt lat="42.88477" lon="0.11021">
        <ele>1747.3334960938</ele>
        <time>2015-07-23T14:02:29Z</time>
      </trkpt>
      <trkpt lat="42.88484" lon="0.11016">
        <ele>1746.8527832031</ele>
        <time>2015-07-23T14:02:48Z</time>
      </trkpt>
      <trkpt lat="42.88491" lon="0.1101">
        <ele>1745.8916015625</ele>
        <time>2015-07-23T14:02:57Z</time>
      </trkpt>
      <trkpt lat="42.88506" lon="0.10991">
        <ele>1743.9689941406</ele>
        <time>2015-07-23T14:03:16Z</time>
      </trkpt>
      <trkpt lat="42.88518" lon="0.10978">
        <ele>1742.0463867188</ele>
        <time>2015-07-23T14:03:31Z</time>
      </trkpt>
      <trkpt lat="42.88531" lon="0.10961">
        <ele>1740.1237792969</ele>
        <time>2015-07-23T14:03:50Z</time>
      </trkpt>
      <trkpt lat="42.88535" lon="0.10957">
        <ele>1739.6428222656</ele>
        <time>2015-07-23T14:03:55Z</time>
      </trkpt>
      <trkpt lat="42.88547" lon="0.10945">
        <ele>1737.7202148438</ele>
        <time>2015-07-23T14:04:09Z</time>
      </trkpt>
      <trkpt lat="42.88553" lon="0.10936">
        <ele>1736.2783203125</ele>
        <time>2015-07-23T14:04:18Z</time>
      </trkpt>
      <trkpt lat="42.88562" lon="0.10925">
        <ele>1735.3168945312</ele>
        <time>2015-07-23T14:04:39Z</time>
      </trkpt>
      <trkpt lat="42.88571" lon="0.10917">
        <ele>1734.3557128906</ele>
        <time>2015-07-23T14:04:53Z</time>
      </trkpt>
      <trkpt lat="42.88579" lon="0.10913">
        <ele>1732.9135742188</ele>
        <time>2015-07-23T14:05:12Z</time>
      </trkpt>
      <trkpt lat="42.88591" lon="0.10906">
        <ele>1730.0297851562</ele>
        <time>2015-07-23T14:05:28Z</time>
      </trkpt>
      <trkpt lat="42.88596" lon="0.10903">
        <ele>1730.9912109375</ele>
        <time>2015-07-23T14:05:38Z</time>
      </trkpt>
      <trkpt lat="42.88607" lon="0.10901">
        <ele>1729.5490722656</ele>
        <time>2015-07-23T14:05:56Z</time>
      </trkpt>
      <trkpt lat="42.88609" lon="0.10897">
        <ele>1728.587890625</ele>
        <time>2015-07-23T14:06:13Z</time>
      </trkpt>
      <trkpt lat="42.88611" lon="0.10888">
        <ele>1726.1845703125</ele>
        <time>2015-07-23T14:06:22Z</time>
      </trkpt>
      <trkpt lat="42.88611" lon="0.10885">
        <ele>1725.7038574219</ele>
        <time>2015-07-23T14:06:25Z</time>
      </trkpt>
      <trkpt lat="42.88611" lon="0.10862">
        <ele>1723.7810058594</ele>
        <time>2015-07-23T14:06:41Z</time>
      </trkpt>
      <trkpt lat="42.88614" lon="0.10848">
        <ele>1721.3776855469</ele>
        <time>2015-07-23T14:06:54Z</time>
      </trkpt>
      <trkpt lat="42.88619" lon="0.10842">
        <ele>1718.4938964844</ele>
        <time>2015-07-23T14:07:08Z</time>
      </trkpt>
      <trkpt lat="42.88621" lon="0.1084">
        <ele>1718.4938964844</ele>
        <time>2015-07-23T14:07:18Z</time>
      </trkpt>
      <trkpt lat="42.88618" lon="0.10833">
        <ele>1718.0131835938</ele>
        <time>2015-07-23T14:07:23Z</time>
      </trkpt>
      <trkpt lat="42.88626" lon="0.10809">
        <ele>1715.6101074219</ele>
        <time>2015-07-23T14:07:41Z</time>
      </trkpt>
      <trkpt lat="42.88634" lon="0.10827">
        <ele>1714.16796875</ele>
        <time>2015-07-23T14:07:57Z</time>
      </trkpt>
      <trkpt lat="42.88644" lon="0.10832">
        <ele>1713.2067871094</ele>
        <time>2015-07-23T14:08:10Z</time>
      </trkpt>
      <trkpt lat="42.88654" lon="0.10837">
        <ele>1712.7260742188</ele>
        <time>2015-07-23T14:08:24Z</time>
      </trkpt>
      <trkpt lat="42.88663" lon="0.10839">
        <ele>1710.3227539062</ele>
        <time>2015-07-23T14:08:35Z</time>
      </trkpt>
      <trkpt lat="42.88674" lon="0.10837">
        <ele>1709.3615722656</ele>
        <time>2015-07-23T14:08:47Z</time>
      </trkpt>
      <trkpt lat="42.88675" lon="0.10837">
        <ele>1708.880859375</ele>
        <time>2015-07-23T14:08:48Z</time>
      </trkpt>
      <trkpt lat="42.88683" lon="0.10836">
        <ele>1706.9580078125</ele>
        <time>2015-07-23T14:08:56Z</time>
      </trkpt>
      <trkpt lat="42.88694" lon="0.10835">
        <ele>1705.5161132812</ele>
        <time>2015-07-23T14:09:08Z</time>
      </trkpt>
      <trkpt lat="42.88703" lon="0.10834">
        <ele>1705.5161132812</ele>
        <time>2015-07-23T14:09:19Z</time>
      </trkpt>
      <trkpt lat="42.88713" lon="0.10834">
        <ele>1704.07421875</ele>
        <time>2015-07-23T14:09:33Z</time>
      </trkpt>
      <trkpt lat="42.88725" lon="0.10834">
        <ele>1702.6320800781</ele>
        <time>2015-07-23T14:09:47Z</time>
      </trkpt>
      <trkpt lat="42.88736" lon="0.10831">
        <ele>1700.7094726562</ele>
        <time>2015-07-23T14:10:02Z</time>
      </trkpt>
      <trkpt lat="42.88744" lon="0.10831">
        <ele>1698.7868652344</ele>
        <time>2015-07-23T14:10:12Z</time>
      </trkpt>
      <trkpt lat="42.88753" lon="0.1083">
        <ele>1698.3061523438</ele>
        <time>2015-07-23T14:10:23Z</time>
      </trkpt>
      <trkpt lat="42.88766" lon="0.10829">
        <ele>1696.3837890625</ele>
        <time>2015-07-23T14:10:35Z</time>
      </trkpt>
      <trkpt lat="42.88781" lon="0.10824">
        <ele>1693.98046875</ele>
        <time>2015-07-23T14:10:50Z</time>
      </trkpt>
      <trkpt lat="42.88801" lon="0.10816">
        <ele>1693.4997558594</ele>
        <time>2015-07-23T14:11:09Z</time>
      </trkpt>
      <trkpt lat="42.88814" lon="0.10811">
        <ele>1689.654296875</ele>
        <time>2015-07-23T14:11:22Z</time>
      </trkpt>
      <trkpt lat="42.88815" lon="0.10811">
        <ele>1689.654296875</ele>
        <time>2015-07-23T14:11:23Z</time>
      </trkpt>
      <trkpt lat="42.88832" lon="0.10806">
        <ele>1687.7316894531</ele>
        <time>2015-07-23T14:11:41Z</time>
      </trkpt>
      <trkpt lat="42.88841" lon="0.108">
        <ele>1687.7316894531</ele>
        <time>2015-07-23T14:11:50Z</time>
      </trkpt>
      <trkpt lat="42.88854" lon="0.10794">
        <ele>1686.2897949219</ele>
        <time>2015-07-23T14:12:03Z</time>
      </trkpt>
      <trkpt lat="42.88864" lon="0.10793">
        <ele>1686.2897949219</ele>
        <time>2015-07-23T14:12:18Z</time>
      </trkpt>
      <trkpt lat="42.88879" lon="0.1079">
        <ele>1683.4057617188</ele>
        <time>2015-07-23T14:12:36Z</time>
      </trkpt>
      <trkpt lat="42.889" lon="0.10777">
        <ele>1681.4831542969</ele>
        <time>2015-07-23T14:12:59Z</time>
      </trkpt>
      <trkpt lat="42.88914" lon="0.10759">
        <ele>1680.5219726562</ele>
        <time>2015-07-23T14:13:15Z</time>
      </trkpt>
      <trkpt lat="42.88925" lon="0.10753">
        <ele>1680.0412597656</ele>
        <time>2015-07-23T14:13:29Z</time>
      </trkpt>
      <trkpt lat="42.88931" lon="0.1075">
        <ele>1677.1574707031</ele>
        <time>2015-07-23T14:13:35Z</time>
      </trkpt>
      <trkpt lat="42.88949" lon="0.10743">
        <ele>1677.1574707031</ele>
        <time>2015-07-23T14:13:53Z</time>
      </trkpt>
      <trkpt lat="42.88967" lon="0.10743">
        <ele>1674.2731933594</ele>
        <time>2015-07-23T14:14:12Z</time>
      </trkpt>
      <trkpt lat="42.88988" lon="0.10744">
        <ele>1673.7924804688</ele>
        <time>2015-07-23T14:14:32Z</time>
      </trkpt>
      <trkpt lat="42.89011" lon="0.10748">
        <ele>1671.3891601562</ele>
        <time>2015-07-23T14:14:53Z</time>
      </trkpt>
      <trkpt lat="42.89013" lon="0.10748">
        <ele>1671.8698730469</ele>
        <time>2015-07-23T14:14:55Z</time>
      </trkpt>
      <trkpt lat="42.89038" lon="0.10744">
        <ele>1668.5053710938</ele>
        <time>2015-07-23T14:15:16Z</time>
      </trkpt>
      <trkpt lat="42.89043" lon="0.10744">
        <ele>1668.5053710938</ele>
        <time>2015-07-23T14:15:34Z</time>
      </trkpt>
      <trkpt lat="42.89058" lon="0.10734">
        <ele>1667.0634765625</ele>
        <time>2015-07-23T14:15:51Z</time>
      </trkpt>
      <trkpt lat="42.89064" lon="0.10726">
        <ele>1666.5827636719</ele>
        <time>2015-07-23T14:16:10Z</time>
      </trkpt>
      <trkpt lat="42.89073" lon="0.10717">
        <ele>1665.6215820312</ele>
        <time>2015-07-23T14:16:23Z</time>
      </trkpt>
      <trkpt lat="42.89077" lon="0.10717">
        <ele>1664.1794433594</ele>
        <time>2015-07-23T14:16:26Z</time>
      </trkpt>
      <trkpt lat="42.89091" lon="0.10721">
        <ele>1661.2956542969</ele>
        <time>2015-07-23T14:16:41Z</time>
      </trkpt>
      <trkpt lat="42.89112" lon="0.10724">
        <ele>1657.9309082031</ele>
        <time>2015-07-23T14:16:58Z</time>
      </trkpt>
      <trkpt lat="42.89113" lon="0.10724">
        <ele>1657.9309082031</ele>
        <time>2015-07-23T14:16:59Z</time>
      </trkpt>
      <trkpt lat="42.8912" lon="0.10714">
        <ele>1656.4887695312</ele>
        <time>2015-07-23T14:17:12Z</time>
      </trkpt>
      <trkpt lat="42.89133" lon="0.10706">
        <ele>1652.6435546875</ele>
        <time>2015-07-23T14:17:29Z</time>
      </trkpt>
      <trkpt lat="42.89147" lon="0.10698">
        <ele>1650.7209472656</ele>
        <time>2015-07-23T14:17:47Z</time>
      </trkpt>
      <trkpt lat="42.89162" lon="0.10695">
        <ele>1649.2790527344</ele>
        <time>2015-07-23T14:18:06Z</time>
      </trkpt>
      <trkpt lat="42.89175" lon="0.10693">
        <ele>1646.3952636719</ele>
        <time>2015-07-23T14:18:22Z</time>
      </trkpt>
      <trkpt lat="42.89182" lon="0.10691">
        <ele>1644.4724121094</ele>
        <time>2015-07-23T14:18:37Z</time>
      </trkpt>
      <trkpt lat="42.89189" lon="0.10694">
        <ele>1643.0302734375</ele>
        <time>2015-07-23T14:18:50Z</time>
      </trkpt>
      <trkpt lat="42.89198" lon="0.10694">
        <ele>1641.1076660156</ele>
        <time>2015-07-23T14:19:05Z</time>
      </trkpt>
      <trkpt lat="42.89207" lon="0.10694">
        <ele>1638.2238769531</ele>
        <time>2015-07-23T14:19:19Z</time>
      </trkpt>
      <trkpt lat="42.89217" lon="0.10694">
        <ele>1636.3012695312</ele>
        <time>2015-07-23T14:19:36Z</time>
      </trkpt>
      <trkpt lat="42.89225" lon="0.10692">
        <ele>1635.33984375</ele>
        <time>2015-07-23T14:19:48Z</time>
      </trkpt>
      <trkpt lat="42.89234" lon="0.10688">
        <ele>1633.4172363281</ele>
        <time>2015-07-23T14:20:03Z</time>
      </trkpt>
      <trkpt lat="42.89243" lon="0.10683">
        <ele>1631.9753417969</ele>
        <time>2015-07-23T14:20:15Z</time>
      </trkpt>
      <trkpt lat="42.89249" lon="0.10685">
        <ele>1631.4946289062</ele>
        <time>2015-07-23T14:20:30Z</time>
      </trkpt>
      <trkpt lat="42.89257" lon="0.10682">
        <ele>1630.5334472656</ele>
        <time>2015-07-23T14:20:41Z</time>
      </trkpt>
      <trkpt lat="42.89266" lon="0.10677">
        <ele>1630.5334472656</ele>
        <time>2015-07-23T14:20:53Z</time>
      </trkpt>
      <trkpt lat="42.89273" lon="0.10676">
        <ele>1627.1687011719</ele>
        <time>2015-07-23T14:21:17Z</time>
      </trkpt>
      <trkpt lat="42.89279" lon="0.10679">
        <ele>1624.7653808594</ele>
        <time>2015-07-23T14:21:30Z</time>
      </trkpt>
      <trkpt lat="42.89288" lon="0.1068">
        <ele>1622.8427734375</ele>
        <time>2015-07-23T14:21:42Z</time>
      </trkpt>
      <trkpt lat="42.89294" lon="0.10677">
        <ele>1619.4782714844</ele>
        <time>2015-07-23T14:21:54Z</time>
      </trkpt>
      <trkpt lat="42.89299" lon="0.10675">
        <ele>1618.9975585938</ele>
        <time>2015-07-23T14:21:57Z</time>
      </trkpt>
      <trkpt lat="42.89313" lon="0.10668">
        <ele>1615.6330566406</ele>
        <time>2015-07-23T14:22:15Z</time>
      </trkpt>
      <trkpt lat="42.89314" lon="0.10668">
        <ele>1615.6330566406</ele>
        <time>2015-07-23T14:22:16Z</time>
      </trkpt>
      <trkpt lat="42.89328" lon="0.10669">
        <ele>1614.1909179688</ele>
        <time>2015-07-23T14:22:32Z</time>
      </trkpt>
      <trkpt lat="42.89334" lon="0.10662">
        <ele>1612.7490234375</ele>
        <time>2015-07-23T14:22:48Z</time>
      </trkpt>
      <trkpt lat="42.89345" lon="0.1066">
        <ele>1611.3068847656</ele>
        <time>2015-07-23T14:23:04Z</time>
      </trkpt>
      <trkpt lat="42.89347" lon="0.1066">
        <ele>1609.3842773438</ele>
        <time>2015-07-23T14:23:06Z</time>
      </trkpt>
      <trkpt lat="42.89357" lon="0.10661">
        <ele>1606.5002441406</ele>
        <time>2015-07-23T14:23:19Z</time>
      </trkpt>
      <trkpt lat="42.89362" lon="0.10659">
        <ele>1605.5390625</ele>
        <time>2015-07-23T14:23:26Z</time>
      </trkpt>
      <trkpt lat="42.8937" lon="0.10664">
        <ele>1602.1743164062</ele>
        <time>2015-07-23T14:23:41Z</time>
      </trkpt>
      <trkpt lat="42.89375" lon="0.10664">
        <ele>1601.2131347656</ele>
        <time>2015-07-23T14:23:47Z</time>
      </trkpt>
      <trkpt lat="42.89387" lon="0.10662">
        <ele>1599.2905273438</ele>
        <time>2015-07-23T14:23:59Z</time>
      </trkpt>
      <trkpt lat="42.89391" lon="0.10666">
        <ele>1596.4067382812</ele>
        <time>2015-07-23T14:24:12Z</time>
      </trkpt>
      <trkpt lat="42.89402" lon="0.10666">
        <ele>1595.4450683594</ele>
        <time>2015-07-23T14:24:24Z</time>
      </trkpt>
      <trkpt lat="42.89408" lon="0.10658">
        <ele>1593.0417480469</ele>
        <time>2015-07-23T14:24:37Z</time>
      </trkpt>
      <trkpt lat="42.8941" lon="0.10651">
        <ele>1591.5998535156</ele>
        <time>2015-07-23T14:24:44Z</time>
      </trkpt>
      <trkpt lat="42.89417" lon="0.10641">
        <ele>1590.1579589844</ele>
        <time>2015-07-23T14:24:56Z</time>
      </trkpt>
      <trkpt lat="42.89425" lon="0.1063">
        <ele>1587.7546386719</ele>
        <time>2015-07-23T14:25:07Z</time>
      </trkpt>
      <trkpt lat="42.89434" lon="0.10624">
        <ele>1584.3901367188</ele>
        <time>2015-07-23T14:25:17Z</time>
      </trkpt>
      <trkpt lat="42.89435" lon="0.10623">
        <ele>1584.3901367188</ele>
        <time>2015-07-23T14:25:18Z</time>
      </trkpt>
      <trkpt lat="42.89447" lon="0.10622">
        <ele>1580.544921875</ele>
        <time>2015-07-23T14:25:35Z</time>
      </trkpt>
      <trkpt lat="42.89448" lon="0.10622">
        <ele>1581.0256347656</ele>
        <time>2015-07-23T14:25:36Z</time>
      </trkpt>
      <trkpt lat="42.89449" lon="0.10621">
        <ele>1580.544921875</ele>
        <time>2015-07-23T14:25:37Z</time>
      </trkpt>
      <trkpt lat="42.89451" lon="0.1062">
        <ele>1580.0642089844</ele>
        <time>2015-07-23T14:25:39Z</time>
      </trkpt>
      <trkpt lat="42.89454" lon="0.10619">
        <ele>1579.5832519531</ele>
        <time>2015-07-23T14:25:43Z</time>
      </trkpt>
      <trkpt lat="42.89462" lon="0.10619">
        <ele>1577.6606445312</ele>
        <time>2015-07-23T14:25:50Z</time>
      </trkpt>
      <trkpt lat="42.89473" lon="0.10618">
        <ele>1574.2961425781</ele>
        <time>2015-07-23T14:26:05Z</time>
      </trkpt>
      <trkpt lat="42.89483" lon="0.10618">
        <ele>1572.3735351562</ele>
        <time>2015-07-23T14:26:18Z</time>
      </trkpt>
      <trkpt lat="42.89493" lon="0.10619">
        <ele>1570.931640625</ele>
        <time>2015-07-23T14:26:32Z</time>
      </trkpt>
      <trkpt lat="42.89496" lon="0.10616">
        <ele>1570.4509277344</ele>
        <time>2015-07-23T14:26:37Z</time>
      </trkpt>
      <trkpt lat="42.89507" lon="0.10597">
        <ele>1568.0476074219</ele>
        <time>2015-07-23T14:26:57Z</time>
      </trkpt>
      <trkpt lat="42.89512" lon="0.10591">
        <ele>1565.1638183594</ele>
        <time>2015-07-23T14:27:08Z</time>
      </trkpt>
      <trkpt lat="42.89516" lon="0.10581">
        <ele>1564.2023925781</ele>
        <time>2015-07-23T14:27:23Z</time>
      </trkpt>
      <trkpt lat="42.8952" lon="0.10574">
        <ele>1563.2409667969</ele>
        <time>2015-07-23T14:27:30Z</time>
      </trkpt>
      <trkpt lat="42.89521" lon="0.10567">
        <ele>1563.2409667969</ele>
        <time>2015-07-23T14:27:35Z</time>
      </trkpt>
      <trkpt lat="42.89524" lon="0.10556">
        <ele>1560.8376464844</ele>
        <time>2015-07-23T14:27:42Z</time>
      </trkpt>
      <trkpt lat="42.89526" lon="0.10545">
        <ele>1560.8376464844</ele>
        <time>2015-07-23T14:27:48Z</time>
      </trkpt>
      <trkpt lat="42.89536" lon="0.10511">
        <ele>1558.4343261719</ele>
        <time>2015-07-23T14:28:09Z</time>
      </trkpt>
      <trkpt lat="42.89545" lon="0.10478">
        <ele>1556.9924316406</ele>
        <time>2015-07-23T14:28:29Z</time>
      </trkpt>
      <trkpt lat="42.89548" lon="0.10469">
        <ele>1556.9924316406</ele>
        <time>2015-07-23T14:28:35Z</time>
      </trkpt>
      <trkpt lat="42.89549" lon="0.10462">
        <ele>1556.9924316406</ele>
        <time>2015-07-23T14:28:49Z</time>
      </trkpt>
      <trkpt lat="42.89552" lon="0.1046">
        <ele>1556.9924316406</ele>
        <time>2015-07-23T14:28:55Z</time>
      </trkpt>
      <trkpt lat="42.89572" lon="0.10463">
        <ele>1555.0698242188</ele>
        <time>2015-07-23T14:29:12Z</time>
      </trkpt>
      <trkpt lat="42.89599" lon="0.10474">
        <ele>1552.6665039062</ele>
        <time>2015-07-23T14:29:34Z</time>
      </trkpt>
      <trkpt lat="42.89619" lon="0.10481">
        <ele>1551.224609375</ele>
        <time>2015-07-23T14:29:50Z</time>
      </trkpt>
      <trkpt lat="42.89644" lon="0.10487">
        <ele>1548.3405761719</ele>
        <time>2015-07-23T14:30:10Z</time>
      </trkpt>
      <trkpt lat="42.89665" lon="0.10493">
        <ele>1544.9758300781</ele>
        <time>2015-07-23T14:30:28Z</time>
      </trkpt>
      <trkpt lat="42.89677" lon="0.10499">
        <ele>1544.0146484375</ele>
        <time>2015-07-23T14:30:39Z</time>
      </trkpt>
      <trkpt lat="42.89682" lon="0.10498">
        <ele>1542.0920410156</ele>
        <time>2015-07-23T14:30:44Z</time>
      </trkpt>
      <trkpt lat="42.89693" lon="0.10501">
        <ele>1540.6499023438</ele>
        <time>2015-07-23T14:30:55Z</time>
      </trkpt>
      <trkpt lat="42.89714" lon="0.10494">
        <ele>1538.2468261719</ele>
        <time>2015-07-23T14:31:14Z</time>
      </trkpt>
      <trkpt lat="42.89734" lon="0.1049">
        <ele>1535.3627929688</ele>
        <time>2015-07-23T14:31:30Z</time>
      </trkpt>
      <trkpt lat="42.89754" lon="0.1049">
        <ele>1532.9594726562</ele>
        <time>2015-07-23T14:31:46Z</time>
      </trkpt>
      <trkpt lat="42.89771" lon="0.10491">
        <ele>1529.5947265625</ele>
        <time>2015-07-23T14:32:00Z</time>
      </trkpt>
      <trkpt lat="42.89796" lon="0.10489">
        <ele>1527.6721191406</ele>
        <time>2015-07-23T14:32:20Z</time>
      </trkpt>
      <trkpt lat="42.89814" lon="0.10478">
        <ele>1525.7495117188</ele>
        <time>2015-07-23T14:32:35Z</time>
      </trkpt>
      <trkpt lat="42.89832" lon="0.10464">
        <ele>1524.3076171875</ele>
        <time>2015-07-23T14:32:51Z</time>
      </trkpt>
      <trkpt lat="42.89852" lon="0.10455">
        <ele>1521.4235839844</ele>
        <time>2015-07-23T14:33:08Z</time>
      </trkpt>
      <trkpt lat="42.89871" lon="0.1045">
        <ele>1518.5397949219</ele>
        <time>2015-07-23T14:33:23Z</time>
      </trkpt>
      <trkpt lat="42.89885" lon="0.10446">
        <ele>1515.6557617188</ele>
        <time>2015-07-23T14:33:37Z</time>
      </trkpt>
      <trkpt lat="42.89905" lon="0.10439">
        <ele>1513.2524414062</ele>
        <time>2015-07-23T14:33:54Z</time>
      </trkpt>
      <trkpt lat="42.89924" lon="0.10435">
        <ele>1511.3298339844</ele>
        <time>2015-07-23T14:34:09Z</time>
      </trkpt>
      <trkpt lat="42.89933" lon="0.10431">
        <ele>1511.3298339844</ele>
        <time>2015-07-23T14:34:17Z</time>
      </trkpt>
      <trkpt lat="42.89955" lon="0.10427">
        <ele>1509.8876953125</ele>
        <time>2015-07-23T14:34:32Z</time>
      </trkpt>
      <trkpt lat="42.89979" lon="0.10423">
        <ele>1508.4458007812</ele>
        <time>2015-07-23T14:34:50Z</time>
      </trkpt>
      <trkpt lat="42.90004" lon="0.10419">
        <ele>1507.9653320312</ele>
        <time>2015-07-23T14:35:09Z</time>
      </trkpt>
      <trkpt lat="42.90022" lon="0.10414">
        <ele>1506.5231933594</ele>
        <time>2015-07-23T14:35:24Z</time>
      </trkpt>
      <trkpt lat="42.9005" lon="0.10403">
        <ele>1503.6394042969</ele>
        <time>2015-07-23T14:35:47Z</time>
      </trkpt>
      <trkpt lat="42.9006" lon="0.10402">
        <ele>1501.716796875</ele>
        <time>2015-07-23T14:35:56Z</time>
      </trkpt>
      <trkpt lat="42.9008" lon="0.10397">
        <ele>1498.3518066406</ele>
        <time>2015-07-23T14:36:12Z</time>
      </trkpt>
      <trkpt lat="42.90081" lon="0.10397">
        <ele>1498.3518066406</ele>
        <time>2015-07-23T14:36:13Z</time>
      </trkpt>
      <trkpt lat="42.90111" lon="0.1039">
        <ele>1496.9099121094</ele>
        <time>2015-07-23T14:36:35Z</time>
      </trkpt>
      <trkpt lat="42.90133" lon="0.10387">
        <ele>1493.5454101562</ele>
        <time>2015-07-23T14:36:53Z</time>
      </trkpt>
      <trkpt lat="42.90134" lon="0.10386">
        <ele>1493.0646972656</ele>
        <time>2015-07-23T14:36:54Z</time>
      </trkpt>
      <trkpt lat="42.90158" lon="0.10375">
        <ele>1491.1420898438</ele>
        <time>2015-07-23T14:37:15Z</time>
      </trkpt>
      <trkpt lat="42.90184" lon="0.10364">
        <ele>1490.1809082031</ele>
        <time>2015-07-23T14:37:35Z</time>
      </trkpt>
      <trkpt lat="42.90207" lon="0.10355">
        <ele>1487.7775878906</ele>
        <time>2015-07-23T14:37:55Z</time>
      </trkpt>
      <trkpt lat="42.90223" lon="0.10352">
        <ele>1485.3742675781</ele>
        <time>2015-07-23T14:38:07Z</time>
      </trkpt>
      <trkpt lat="42.90243" lon="0.10351">
        <ele>1484.8937988281</ele>
        <time>2015-07-23T14:38:23Z</time>
      </trkpt>
      <trkpt lat="42.90266" lon="0.10348">
        <ele>1483.4514160156</ele>
        <time>2015-07-23T14:38:42Z</time>
      </trkpt>
      <trkpt lat="42.90288" lon="0.10345">
        <ele>1481.0483398438</ele>
        <time>2015-07-23T14:38:59Z</time>
      </trkpt>
      <trkpt lat="42.90312" lon="0.10338">
        <ele>1480.0869140625</ele>
        <time>2015-07-23T14:39:20Z</time>
      </trkpt>
      <trkpt lat="42.90317" lon="0.10337">
        <ele>1480.0869140625</ele>
        <time>2015-07-23T14:39:29Z</time>
      </trkpt>
      <trkpt lat="42.9032" lon="0.10332">
        <ele>1479.6062011719</ele>
        <time>2015-07-23T14:39:33Z</time>
      </trkpt>
      <trkpt lat="42.90339" lon="0.10313">
        <ele>1478.6450195312</ele>
        <time>2015-07-23T14:39:53Z</time>
      </trkpt>
      <trkpt lat="42.90345" lon="0.1031">
        <ele>1478.6450195312</ele>
        <time>2015-07-23T14:39:58Z</time>
      </trkpt>
      <trkpt lat="42.90357" lon="0.10304">
        <ele>1478.6450195312</ele>
        <time>2015-07-23T14:40:11Z</time>
      </trkpt>
      <trkpt lat="42.90367" lon="0.10303">
        <ele>1477.203125</ele>
        <time>2015-07-23T14:40:22Z</time>
      </trkpt>
      <trkpt lat="42.90372" lon="0.10304">
        <ele>1477.68359375</ele>
        <time>2015-07-23T14:40:27Z</time>
      </trkpt>
      <trkpt lat="42.90383" lon="0.10323">
        <ele>1478.6450195312</ele>
        <time>2015-07-23T14:40:44Z</time>
      </trkpt>
      <trkpt lat="42.90387" lon="0.10325">
        <ele>1478.6450195312</ele>
        <time>2015-07-23T14:40:49Z</time>
      </trkpt>
      <trkpt lat="42.904" lon="0.10338">
        <ele>1479.6062011719</ele>
        <time>2015-07-23T14:41:06Z</time>
      </trkpt>
      <trkpt lat="42.90404" lon="0.10341">
        <ele>1480.0869140625</ele>
        <time>2015-07-23T14:41:13Z</time>
      </trkpt>
    </trkseg>
  </trk>
</gpx>